Darstellungsparameter: Aktuell verwendete Einstellungen:
Skalierung der Graphiken ... ?
xyx+y,   Skalierungsfaktor:      Skalierung: Modus: x, Faktor: 1
Darstellungszeitraum ... ?
Vom - - bis: - -   Zeitraum: 03.11.2008 - 23.11.2008
Min/Max/Avg-Anzeige ... ?
Zeige MMA aktuell
Zeige MMA Monat
Zeige MMA alles
Zeige --A aktuell
Zeige --A Monat
Zeige --A alles
Keine MMA-Anzeige
MMA:
Average (ber die Originaldaten)
MMA-Basis: 17.04.2019 - 19.05.2019
Quicknavigation für Darstellung... ?
Tage:      1T, 2T, 3T, 5T -1T -2T -3T -5T +1T +2T +3T +5T
Wochen: 1W, 2W, 3W -1W -2W -3W +1W +2W +3W
Monate: 1M, 3M, 6M -1M -3M -6M +1M +3M +6M
Jahre:    1J, 3J, 5J, 10J -1J -3J -5J -10J +1J +3J +5J +10J
Nutze für die Darstellung ... ?
Originaldaten oder Mittelwerte auf ...
Stundenbasis Tagesbasis Wochenbasis
Monatsbasis Jahresbasis      Datenbasis: Original-Daten
Darstellen als:
Statistik (Auto) Statistik J:M      Darstellung:
Zur Graphik,    zurück zur Übersicht aller Sensoren.
 
Tabellarische Datenbersicht: ?
 
Sensor: Nr:Datum:Temp:Abs-Feuchte:Windchill:Wind:
Aussen-T/F 1 03-11-2008 00:06:25 8.1 C 7.57 g/m*3 8.1 C 0 km/h
2 03-11-2008 00:31:25 8 C 7.52 g/m*3 8 C 0 km/h
3 03-11-2008 00:56:25 7.7 C 7.46 g/m*3 7.7 C 0 km/h
4 03-11-2008 01:21:25 7.8 C 7.59 g/m*3 7.8 C 0 km/h
5 03-11-2008 01:46:25 8 C 7.69 g/m*3 8 C 0 km/h
6 03-11-2008 02:11:25 8 C 7.69 g/m*3 8 C 0 km/h
7 03-11-2008 02:36:25 8 C 7.69 g/m*3 8 C 0 km/h
8 03-11-2008 03:01:25 8.5 C 8.03 g/m*3 8.5 C 0 km/h
9 03-11-2008 03:26:25 8.9 C 8.23 g/m*3 8.9 C 0 km/h
10 03-11-2008 03:51:25 9 C 8.11 g/m*3 9 C 0 km/h
11 03-11-2008 04:16:25 9.1 C 8.07 g/m*3 9.1 C 0 km/h
12 03-11-2008 04:41:25 9.1 C 7.99 g/m*3 9.1 C 0 km/h
13 03-11-2008 05:06:25 9.2 C 7.95 g/m*3 9.2 C 0 km/h
14 03-11-2008 05:31:25 9.2 C 7.86 g/m*3 9.2 C 0 km/h
15 03-11-2008 05:56:25 9.1 C 7.81 g/m*3 9.1 C 0 km/h
16 03-11-2008 06:21:25 9.2 C 7.86 g/m*3 9.2 C 0 km/h
17 03-11-2008 06:46:25 9.2 C 7.77 g/m*3 9.2 C 0 km/h
18 03-11-2008 07:11:26 9.2 C 7.77 g/m*3 9.2 C 0 km/h
19 03-11-2008 07:36:26 9.2 C 7.77 g/m*3 9.2 C 0 km/h
20 03-11-2008 08:01:26 9.4 C 7.87 g/m*3 9.4 C 0 km/h
21 03-11-2008 08:26:26 9.5 C 7.92 g/m*3 9.5 C 0 km/h
22 03-11-2008 08:51:26 9.8 C 8.07 g/m*3 9.8 C 0 km/h
23 03-11-2008 09:16:26 10.1 C 7.94 g/m*3 10.1 C 0 km/h
24 03-11-2008 09:41:26 10.2 C 7.9 g/m*3 10.2 C 0 km/h
25 03-11-2008 10:06:26 10.4 C 7.81 g/m*3 10.4 C 0 km/h
Sensor: Nr:Datum:Temp:Abs-Feuchte:Windchill:Wind:
Aussen-T/F 26 03-11-2008 10:31:26 10.5 C 7.76 g/m*3 10.5 C 0 km/h
27 03-11-2008 10:56:26 11.1 C 7.96 g/m*3 11.1 C 0 km/h
28 03-11-2008 11:21:26 11.4 C 7.8 g/m*3 11.4 C 0 km/h
29 03-11-2008 11:46:26 11.7 C 7.84 g/m*3 11.7 C 0 km/h
30 03-11-2008 12:11:26 12.7 C 8.24 g/m*3 12.7 C 0 km/h
31 03-11-2008 12:36:26 13.1 C 7.99 g/m*3 13.1 C 0 km/h
32 03-11-2008 13:01:26 13.4 C 7.9 g/m*3 13.4 C 0 km/h
33 03-11-2008 13:26:26 13.4 C 7.9 g/m*3 13.4 C 0 km/h
34 03-11-2008 13:51:26 13.5 C 7.72 g/m*3 13.5 C 0 km/h
35 03-11-2008 14:16:26 13.6 C 7.77 g/m*3 13.6 C 0 km/h
36 03-11-2008 14:41:26 14.4 C 7.79 g/m*3 14.4 C 0 km/h
37 03-11-2008 15:06:27 14 C 7.84 g/m*3 14 C 0 km/h
38 03-11-2008 15:31:27 13.3 C 8.09 g/m*3 13.3 C 0 km/h
39 03-11-2008 15:56:27 13.2 C 8.27 g/m*3 13.2 C 0 km/h
40 03-11-2008 16:21:27 12.7 C 8.24 g/m*3 12.7 C 0 km/h
41 03-11-2008 16:46:27 12.3 C 8.25 g/m*3 12.3 C 0 km/h
42 03-11-2008 17:11:27 11.5 C 8.06 g/m*3 11.5 C 0 km/h
43 03-11-2008 17:36:27 10.8 C 8.01 g/m*3 10.8 C 0 km/h
44 03-11-2008 18:01:27 10.1 C 7.85 g/m*3 10.1 C 0 km/h
45 03-11-2008 18:26:27 9.7 C 7.93 g/m*3 9.7 C 0 km/h
46 03-11-2008 18:51:27 9.3 C 7.82 g/m*3 9.3 C 0 km/h
47 03-11-2008 19:16:27 9 C 7.76 g/m*3 9 C 0 km/h
48 03-11-2008 19:41:27 8.5 C 7.6 g/m*3 8.5 C 0 km/h
49 03-11-2008 20:06:27 8.4 C 7.63 g/m*3 8.4 C 0 km/h
50 03-11-2008 20:31:27 8.1 C 7.49 g/m*3 8.1 C 0 km/h
Sensor: Nr:Datum:Temp:Abs-Feuchte:Windchill:Wind:
Aussen-T/F 51 03-11-2008 20:56:27 7.9 C 7.56 g/m*3 7.9 C 0 km/h
52 03-11-2008 21:21:27 7.5 C 7.36 g/m*3 7.5 C 0 km/h
53 03-11-2008 21:46:27 7.1 C 7.18 g/m*3 7.1 C 0 km/h
54 03-11-2008 22:11:27 6.8 C 7.11 g/m*3 6.8 C 0 km/h
55 03-11-2008 22:36:27 6.6 C 7.02 g/m*3 6.6 C 0 km/h
56 03-11-2008 23:01:27 6.4 C 6.93 g/m*3 6.4 C 0 km/h
57 03-11-2008 23:26:28 6.7 C 7.14 g/m*3 6.7 C 0 km/h
58 03-11-2008 23:51:28 7.1 C 7.33 g/m*3 7.1 C 0 km/h
59 04-11-2008 00:16:28 6.9 C 7.31 g/m*3 6.9 C 0 km/h
60 04-11-2008 00:41:28 6.7 C 7.22 g/m*3 6.7 C 0 km/h
61 04-11-2008 01:06:28 6.8 C 7.27 g/m*3 6.8 C 0 km/h
62 04-11-2008 01:31:28 6.8 C 7.27 g/m*3 6.8 C 0 km/h
63 04-11-2008 01:56:28 6.6 C 7.17 g/m*3 6.6 C 0 km/h
64 04-11-2008 02:21:28 6.5 C 7.12 g/m*3 6.5 C 0 km/h
65 04-11-2008 02:46:28 6.7 C 7.22 g/m*3 6.7 C 0 km/h
66 04-11-2008 03:11:28 6.8 C 7.27 g/m*3 6.8 C 0 km/h
67 04-11-2008 03:36:28 6.8 C 7.27 g/m*3 6.8 C 0 km/h
68 04-11-2008 04:01:28 6.8 C 7.27 g/m*3 6.8 C 0 km/h
69 04-11-2008 04:26:28 6.7 C 7.22 g/m*3 6.7 C 0 km/h
70 04-11-2008 04:51:28 6.8 C 7.27 g/m*3 6.8 C 0 km/h
71 04-11-2008 05:16:28 6.4 C 7.08 g/m*3 6.4 C 0 km/h
72 04-11-2008 05:41:28 6.3 C 7.03 g/m*3 6.3 C 0 km/h
73 04-11-2008 06:06:28 6.2 C 6.99 g/m*3 6.2 C 0 km/h
74 04-11-2008 06:31:28 6.3 C 7.03 g/m*3 6.3 C 0 km/h
75 04-11-2008 06:56:28 6.4 C 7.08 g/m*3 6.4 C 0 km/h
Sensor: Nr:Datum:Temp:Abs-Feuchte:Windchill:Wind:
Aussen-T/F 76 04-11-2008 07:21:29 6.4 C 7.08 g/m*3 6.4 C 0 km/h
77 04-11-2008 07:46:29 6.5 C 7.12 g/m*3 6.5 C 0 km/h
78 04-11-2008 08:11:29 6.6 C 7.17 g/m*3 6.6 C 0 km/h
79 04-11-2008 08:36:29 6.6 C 7.17 g/m*3 6.6 C 0 km/h
80 04-11-2008 09:01:29 6.9 C 7.31 g/m*3 6.9 C 0 km/h
81 04-11-2008 09:26:29 7.4 C 7.55 g/m*3 7.4 C 0 km/h
82 04-11-2008 09:51:29 7.7 C 7.7 g/m*3 7.7 C 0 km/h
83 04-11-2008 10:16:29 8.1 C 7.9 g/m*3 8.1 C 0 km/h
84 04-11-2008 10:41:29 7.8 C 7.75 g/m*3 7.8 C 0 km/h
85 04-11-2008 11:06:29 8.5 C 8.03 g/m*3 8.5 C 0 km/h
86 04-11-2008 11:31:29 9 C 8.11 g/m*3 9 C 0 km/h
87 04-11-2008 11:56:29 9 C 7.93 g/m*3 9 C 0 km/h
88 04-11-2008 12:21:29 9.1 C 7.81 g/m*3 9.1 C 0 km/h
89 04-11-2008 12:46:29 9.7 C 8.11 g/m*3 9.7 C 0 km/h
90 04-11-2008 13:11:29 12 C 8.85 g/m*3 12 C 0 km/h
91 04-11-2008 13:36:29 13.7 C 8.05 g/m*3 13.7 C 0 km/h
92 04-11-2008 14:01:29 14.5 C 8.46 g/m*3 14.5 C 0 km/h
93 04-11-2008 14:26:29 14.4 C 8.41 g/m*3 14.4 C 0 km/h
94 04-11-2008 14:51:29 14.4 C 8.41 g/m*3 14.4 C 0 km/h
95 04-11-2008 15:16:30 13.9 C 8.51 g/m*3 13.9 C 0 km/h
96 04-11-2008 15:41:30 13.4 C 8.49 g/m*3 13.4 C 0 km/h
97 04-11-2008 16:06:30 12.8 C 8.4 g/m*3 12.8 C 0 km/h
98 04-11-2008 16:31:30 12.1 C 8.36 g/m*3 12.1 C 0 km/h
99 04-11-2008 16:56:30 11.8 C 8.21 g/m*3 11.8 C 0 km/h
100 04-11-2008 17:21:30 11.9 C 8.26 g/m*3 11.9 C 0 km/h
Sensor: Nr:Datum:Temp:Abs-Feuchte:Windchill:Wind:
Aussen-T/F 101 04-11-2008 17:46:30 11.1 C 8.16 g/m*3 11.1 C 0 km/h
102 04-11-2008 18:11:30 10.9 C 8.26 g/m*3 10.9 C 0 km/h
103 04-11-2008 18:36:30 10.8 C 8.4 g/m*3 10.8 C 0 km/h
104 04-11-2008 19:01:30 10.6 C 8.39 g/m*3 10.6 C 0 km/h
105 04-11-2008 19:26:30 10.4 C 8.29 g/m*3 10.4 C 0 km/h
106 04-11-2008 19:51:30 10.2 C 8.28 g/m*3 10.2 C 0 km/h
107 04-11-2008 20:16:30 10.1 C 8.32 g/m*3 10.1 C 0 km/h
108 04-11-2008 20:41:30 9.7 C 8.2 g/m*3 9.7 C 0 km/h
109 04-11-2008 21:06:30 9.3 C 8.09 g/m*3 9.3 C 0 km/h
110 04-11-2008 21:31:30 9.1 C 7.99 g/m*3 9.1 C 0 km/h
111 04-11-2008 21:56:30 9.1 C 8.07 g/m*3 9.1 C 0 km/h
112 04-11-2008 22:21:30 9.1 C 8.16 g/m*3 9.1 C 0 km/h
113 04-11-2008 22:46:30 8.7 C 8.04 g/m*3 8.7 C 0 km/h
114 04-11-2008 23:11:31 8.4 C 7.89 g/m*3 8.4 C 0 km/h
115 04-11-2008 23:36:31 9 C 8.2 g/m*3 9 C 0 km/h
116 05-11-2008 00:01:31 8.7 C 8.04 g/m*3 8.7 C 0 km/h
117 05-11-2008 00:26:31 8.7 C 8.04 g/m*3 8.7 C 0 km/h
118 05-11-2008 00:51:31 8.6 C 7.99 g/m*3 8.6 C 0 km/h
119 05-11-2008 01:16:31 8.7 C 8.04 g/m*3 8.7 C 0 km/h
120 05-11-2008 01:41:31 8.8 C 7.92 g/m*3 8.8 C 0 km/h
121 05-11-2008 02:06:31 8.7 C 7.7 g/m*3 8.7 C 0 km/h
122 05-11-2008 02:31:31 8.5 C 7.6 g/m*3 8.5 C 0 km/h
123 05-11-2008 02:56:31 8.4 C 7.55 g/m*3 8.4 C 0 km/h
124 05-11-2008 03:21:31 8.3 C 7.5 g/m*3 8.3 C 0 km/h
125 05-11-2008 03:46:31 8.4 C 7.55 g/m*3 8.4 C 0 km/h
Sensor: Nr:Datum:Temp:Abs-Feuchte:Windchill:Wind:
Aussen-T/F 126 05-11-2008 04:11:31 8.2 C 7.37 g/m*3 8.2 C 0 km/h
127 05-11-2008 04:36:31 7.9 C 7.39 g/m*3 7.9 C 0 km/h
128 05-11-2008 05:01:31 8.2 C 7.45 g/m*3 8.2 C 0 km/h
129 05-11-2008 05:26:31 8.4 C 7.55 g/m*3 8.4 C 0 km/h
130 05-11-2008 05:51:31 8.4 C 7.55 g/m*3 8.4 C 0 km/h
131 05-11-2008 06:16:31 8.4 C 7.38 g/m*3 8.4 C 0 km/h
132 05-11-2008 06:41:31 8.5 C 7.34 g/m*3 8.5 C 0 km/h
133 05-11-2008 07:06:31 8.4 C 7.21 g/m*3 8.4 C 0 km/h
134 05-11-2008 07:31:32 8.4 C 7.21 g/m*3 8.4 C 0 km/h
135 05-11-2008 07:56:32 8.5 C 7.26 g/m*3 8.5 C 0 km/h
136 05-11-2008 08:21:32 8.7 C 7.35 g/m*3 8.7 C 0 km/h
137 05-11-2008 08:46:32 8.9 C 7.45 g/m*3 8.9 C 0 km/h
138 05-11-2008 09:11:32 9.2 C 7.5 g/m*3 9.2 C 0 km/h
139 05-11-2008 09:36:32 9.8 C 7.79 g/m*3 9.8 C 0 km/h
140 05-11-2008 10:01:32 10 C 7.42 g/m*3 10 C 0 km/h
141 05-11-2008 10:26:32 10.7 C 7.46 g/m*3 10.7 C 0 km/h
142 05-11-2008 10:51:32 10.7 C 7.46 g/m*3 10.7 C 0 km/h
143 05-11-2008 11:16:32 10.9 C 7.46 g/m*3 10.9 C 0 km/h
144 05-11-2008 11:41:32 11 C 7.51 g/m*3 11 C 0 km/h
145 05-11-2008 12:06:32 11.1 C 7.45 g/m*3 11.1 C 0 km/h
146 05-11-2008 12:31:32 11 C 7.41 g/m*3 11 C 0 km/h
147 05-11-2008 12:56:32 10.8 C 7.51 g/m*3 10.8 C 0 km/h
148 05-11-2008 13:21:32 11 C 7.61 g/m*3 11 C 0 km/h
149 05-11-2008 13:46:32 11.2 C 7.6 g/m*3 11.2 C 0 km/h
150 05-11-2008 14:11:32 11.2 C 7.7 g/m*3 11.2 C 0 km/h
Sensor: Nr:Datum:Temp:Abs-Feuchte:Windchill:Wind:
Aussen-T/F 151 05-11-2008 14:36:32 11.4 C 7.8 g/m*3 11.4 C 0 km/h
152 05-11-2008 15:01:32 11.5 C 7.64 g/m*3 11.5 C 0 km/h
153 05-11-2008 15:26:33 11.5 C 7.64 g/m*3 11.5 C 0 km/h
154 05-11-2008 15:51:33 11.4 C 7.7 g/m*3 11.4 C 0 km/h
155 05-11-2008 16:16:33 11.1 C 7.66 g/m*3 11.1 C 0 km/h
156 05-11-2008 16:41:33 10.9 C 7.76 g/m*3 10.9 C 0 km/h
157 05-11-2008 17:06:33 10.7 C 7.66 g/m*3 10.7 C 0 km/h
158 05-11-2008 17:31:33 10.5 C 7.66 g/m*3 10.5 C 0 km/h
159 05-11-2008 17:56:33 10.5 C 7.76 g/m*3 10.5 C 0 km/h
160 05-11-2008 18:21:33 10.4 C 7.81 g/m*3 10.4 C 0 km/h
161 05-11-2008 18:46:33 10.4 C 7.81 g/m*3 10.4 C 0 km/h
162 05-11-2008 19:11:33 10.4 C 7.9 g/m*3 10.4 C 0 km/h
163 05-11-2008 19:36:33 10.3 C 7.85 g/m*3 10.3 C 0 km/h
164 05-11-2008 20:01:33 10.3 C 7.85 g/m*3 10.3 C 0 km/h
165 05-11-2008 20:26:33 10.3 C 7.95 g/m*3 10.3 C 0 km/h
166 05-11-2008 20:51:33 10.2 C 7.9 g/m*3 10.2 C 0 km/h
167 05-11-2008 21:16:33 10.2 C 7.9 g/m*3 10.2 C 0 km/h
168 05-11-2008 21:41:33 10.2 C 7.9 g/m*3 10.2 C 0 km/h
169 05-11-2008 22:06:33 10.2 C 7.9 g/m*3 10.2 C 0 km/h
170 05-11-2008 22:31:33 10.2 C 7.99 g/m*3 10.2 C 0 km/h
171 05-11-2008 22:56:33 10.2 C 7.99 g/m*3 10.2 C 0 km/h
172 05-11-2008 23:21:34 10.2 C 7.99 g/m*3 10.2 C 0 km/h
173 05-11-2008 23:46:34 10 C 7.99 g/m*3 10 C 0 km/h
174 06-11-2008 00:11:34 10 C 7.99 g/m*3 10 C 0 km/h
175 06-11-2008 00:36:34 10 C 7.99 g/m*3 10 C 0 km/h
Sensor: Nr:Datum:Temp:Abs-Feuchte:Windchill:Wind:
Aussen-T/F 176 06-11-2008 01:01:34 10 C 7.99 g/m*3 10 C 0 km/h
177 06-11-2008 01:26:34 9.9 C 8.12 g/m*3 9.9 C 0 km/h
178 06-11-2008 01:51:34 9.8 C 8.07 g/m*3 9.8 C 0 km/h
179 06-11-2008 02:16:34 9.8 C 7.98 g/m*3 9.8 C 0 km/h
180 06-11-2008 02:41:34 9.7 C 7.84 g/m*3 9.7 C 0 km/h
181 06-11-2008 03:06:34 9.5 C 7.74 g/m*3 9.5 C 0 km/h
182 06-11-2008 03:31:34 9.3 C 7.73 g/m*3 9.3 C 0 km/h
183 06-11-2008 03:56:34 8.9 C 7.62 g/m*3 8.9 C 0 km/h
184 06-11-2008 04:21:34 8.5 C 7.43 g/m*3 8.5 C 0 km/h
185 06-11-2008 04:46:34 8.6 C 7.48 g/m*3 8.6 C 0 km/h
186 06-11-2008 05:11:34 8.9 C 7.71 g/m*3 8.9 C 0 km/h
187 06-11-2008 05:36:34 9 C 7.58 g/m*3 9 C 0 km/h
188 06-11-2008 06:01:34 9 C 7.58 g/m*3 9 C 0 km/h
189 06-11-2008 06:26:34 9.3 C 7.64 g/m*3 9.3 C 0 km/h
190 06-11-2008 06:51:34 9.3 C 7.46 g/m*3 9.3 C 0 km/h
191 06-11-2008 07:16:34 9.3 C 7.46 g/m*3 9.3 C 0 km/h
192 06-11-2008 07:41:35 9.1 C 7.36 g/m*3 9.1 C 0 km/h
193 06-11-2008 08:06:35 9.4 C 7.51 g/m*3 9.4 C 0 km/h
194 06-11-2008 08:31:35 9.7 C 7.56 g/m*3 9.7 C 0 km/h
195 06-11-2008 08:56:35 10 C 7.42 g/m*3 10 C 0 km/h
196 06-11-2008 09:21:35 10.3 C 7.47 g/m*3 10.3 C 0 km/h
197 06-11-2008 09:46:35 10.6 C 7.12 g/m*3 10.6 C 0 km/h
198 06-11-2008 10:11:35 11 C 7.01 g/m*3 11 C 0 km/h
199 06-11-2008 10:36:35 11.3 C 7.04 g/m*3 11.3 C 0 km/h
200 06-11-2008 11:01:35 12.1 C 7.18 g/m*3 12.1 C 0 km/h
Sensor: Nr:Datum:Temp:Abs-Feuchte:Windchill:Wind:
Aussen-T/F 201 06-11-2008 11:26:35 12.4 C 7.1 g/m*3 12.4 C 0 km/h
202 06-11-2008 11:51:35 12.2 C 6.91 g/m*3 12.2 C 0 km/h
203 06-11-2008 12:16:35 12.2 C 6.91 g/m*3 12.2 C 0 km/h
204 06-11-2008 12:41:35 12.1 C 6.97 g/m*3 12.1 C 0 km/h
205 06-11-2008 13:06:35 12.6 C 7.08 g/m*3 12.6 C 0 km/h
206 06-11-2008 13:31:35 12.7 C 7.01 g/m*3 12.7 C 0 km/h
207 06-11-2008 13:56:35 12.4 C 7.1 g/m*3 12.4 C 0 km/h
208 06-11-2008 14:21:35 13 C 7.14 g/m*3 13 C 0 km/h
209 06-11-2008 14:46:35 13.1 C 6.96 g/m*3 13.1 C 0 km/h
210 06-11-2008 15:11:35 13 C 6.92 g/m*3 13 C 0 km/h
211 06-11-2008 15:36:36 12.6 C 6.97 g/m*3 12.6 C 0 km/h
212 06-11-2008 16:01:36 12.4 C 6.99 g/m*3 12.4 C 0 km/h
213 06-11-2008 16:26:36 11.8 C 6.95 g/m*3 11.8 C 0 km/h
214 06-11-2008 16:51:36 11.4 C 6.98 g/m*3 11.4 C 0 km/h
215 06-11-2008 17:16:36 11.1 C 6.95 g/m*3 11.1 C 0 km/h
216 06-11-2008 17:41:36 10.9 C 7.06 g/m*3 10.9 C 0 km/h
217 06-11-2008 18:06:36 10.1 C 6.9 g/m*3 10.1 C 0 km/h
218 06-11-2008 18:31:36 10.1 C 7 g/m*3 10.1 C 0 km/h
219 06-11-2008 18:56:36 10.2 C 7.04 g/m*3 10.2 C 0 km/h
220 06-11-2008 19:21:36 10.4 C 7.13 g/m*3 10.4 C 0 km/h
221 06-11-2008 19:46:36 10.3 C 7.09 g/m*3 10.3 C 0 km/h
222 06-11-2008 20:11:36 10.2 C 7.14 g/m*3 10.2 C 0 km/h
223 06-11-2008 20:36:36 10.3 C 7.28 g/m*3 10.3 C 0 km/h
224 06-11-2008 21:01:36 10.2 C 7.23 g/m*3 10.2 C 0 km/h
225 06-11-2008 21:26:36 10.4 C 7.23 g/m*3 10.4 C 0 km/h
Sensor: Nr:Datum:Temp:Abs-Feuchte:Windchill:Wind:
Aussen-T/F 226 06-11-2008 21:51:36 10.3 C 7.18 g/m*3 10.3 C 0 km/h
227 06-11-2008 22:16:36 10.2 C 7.33 g/m*3 10.2 C 0 km/h
228 06-11-2008 22:41:36 10.2 C 7.33 g/m*3 10.2 C 0 km/h
229 06-11-2008 23:06:36 10.1 C 7.28 g/m*3 10.1 C 0 km/h
230 06-11-2008 23:31:37 10.2 C 7.23 g/m*3 10.2 C 0 km/h
231 06-11-2008 23:56:37 10.2 C 7.23 g/m*3 10.2 C 0 km/h
232 07-11-2008 00:21:37 10.1 C 7.19 g/m*3 10.1 C 0 km/h
233 07-11-2008 00:46:37 10.1 C 7.19 g/m*3 10.1 C 0 km/h
234 07-11-2008 01:11:37 10 C 7.24 g/m*3 10 C 0 km/h
235 07-11-2008 01:36:37 10 C 7.24 g/m*3 10 C 0 km/h
236 07-11-2008 02:01:37 10 C 7.14 g/m*3 10 C 0 km/h
237 07-11-2008 02:26:37 10 C 7.14 g/m*3 10 C 0 km/h
238 07-11-2008 02:51:37 9.9 C 7.28 g/m*3 9.9 C 0 km/h
239 07-11-2008 03:16:37 9.9 C 7.19 g/m*3 9.9 C 0 km/h
240 07-11-2008 03:41:37 10 C 7.14 g/m*3 10 C 0 km/h
241 07-11-2008 04:06:37 10.2 C 7.14 g/m*3 10.2 C 0 km/h
242 07-11-2008 04:31:37 10.1 C 7.19 g/m*3 10.1 C 0 km/h
243 07-11-2008 04:56:37 10.3 C 7.28 g/m*3 10.3 C 0 km/h
244 07-11-2008 05:21:37 10.3 C 7.28 g/m*3 10.3 C 0 km/h
245 07-11-2008 05:46:37 10.2 C 7.23 g/m*3 10.2 C 0 km/h
246 07-11-2008 06:11:37 10.1 C 7.19 g/m*3 10.1 C 0 km/h
247 07-11-2008 06:36:37 10 C 7.14 g/m*3 10 C 0 km/h
248 07-11-2008 07:01:37 10.1 C 7.09 g/m*3 10.1 C 0 km/h
249 07-11-2008 07:26:38 10.1 C 7 g/m*3 10.1 C 0 km/h
250 07-11-2008 07:51:38 9.8 C 7.05 g/m*3 9.8 C 0 km/h
Sensor: Nr:Datum:Temp:Abs-Feuchte:Windchill:Wind:
Aussen-T/F 251 07-11-2008 08:16:38 9.6 C 7.15 g/m*3 9.6 C 0 km/h
252 07-11-2008 08:41:38 10.3 C 6.99 g/m*3 10.3 C 0 km/h
253 07-11-2008 09:06:38 10.8 C 7.02 g/m*3 10.8 C 0 km/h
254 07-11-2008 09:31:38 11 C 6.91 g/m*3 11 C 0 km/h
255 07-11-2008 09:56:38 11.1 C 6.95 g/m*3 11.1 C 0 km/h
256 07-11-2008 10:21:38 11.3 C 7.04 g/m*3 11.3 C 0 km/h
257 07-11-2008 10:46:38 11.2 C 6.89 g/m*3 11.2 C 0 km/h
258 07-11-2008 11:11:38 11.6 C 6.96 g/m*3 11.6 C 0 km/h
259 07-11-2008 11:36:38 12.2 C 6.91 g/m*3 12.2 C 0 km/h
260 07-11-2008 12:01:38 12.7 C 6.9 g/m*3 12.7 C 0 km/h
261 07-11-2008 12:26:38 13.1 C 6.85 g/m*3 13.1 C 0 km/h
262 07-11-2008 12:51:38 13.2 C 6.77 g/m*3 13.2 C 0 km/h
263 07-11-2008 13:16:38 13.8 C 6.91 g/m*3 13.8 C 0 km/h
264 07-11-2008 13:41:38 13.6 C 6.71 g/m*3 13.6 C 0 km/h
265 07-11-2008 14:06:38 13.8 C 7.03 g/m*3 13.8 C 0 km/h
266 07-11-2008 14:31:38 14.5 C 7.09 g/m*3 14.5 C 0 km/h
267 07-11-2008 14:56:38 14 C 7 g/m*3 14 C 0 km/h
268 07-11-2008 15:21:38 13.8 C 7.27 g/m*3 13.8 C 0 km/h
269 07-11-2008 15:46:39 13.5 C 7.37 g/m*3 13.5 C 0 km/h
270 07-11-2008 16:11:39 13.1 C 7.3 g/m*3 13.1 C 0 km/h
271 07-11-2008 16:36:39 12.7 C 7.57 g/m*3 12.7 C 0 km/h
272 07-11-2008 17:01:39 12.4 C 7.43 g/m*3 12.4 C 0 km/h
273 07-11-2008 17:26:39 11.8 C 7.26 g/m*3 11.8 C 0 km/h
274 07-11-2008 17:51:39 11.1 C 7.15 g/m*3 11.1 C 0 km/h
275 07-11-2008 18:16:39 10.4 C 7.23 g/m*3 10.4 C 0 km/h
Sensor: Nr:Datum:Temp:Abs-Feuchte:Windchill:Wind:
Aussen-T/F 276 07-11-2008 18:41:39 10.4 C 7.42 g/m*3 10.4 C 0 km/h
277 07-11-2008 19:06:39 10.7 C 7.56 g/m*3 10.7 C 0 km/h
278 07-11-2008 19:31:39 10.6 C 7.32 g/m*3 10.6 C 0 km/h
279 07-11-2008 19:56:39 10 C 7.33 g/m*3 10 C 0 km/h
280 07-11-2008 20:21:39 9.9 C 7.56 g/m*3 9.9 C 0 km/h
281 07-11-2008 20:46:39 9.5 C 7.37 g/m*3 9.5 C 0 km/h
282 07-11-2008 21:11:39 9.1 C 7.36 g/m*3 9.1 C 0 km/h
283 07-11-2008 21:36:39 8.7 C 7.44 g/m*3 8.7 C 0 km/h
284 07-11-2008 22:01:39 8.4 C 7.38 g/m*3 8.4 C 0 km/h
285 07-11-2008 22:26:39 7.9 C 7.31 g/m*3 7.9 C 0 km/h
286 07-11-2008 22:51:39 7.5 C 7.12 g/m*3 7.5 C 0 km/h
287 07-11-2008 23:16:39 7.3 C 7.03 g/m*3 7.3 C 0 km/h
288 07-11-2008 23:41:40 7.3 C 7.11 g/m*3 7.3 C 0 km/h
289 08-11-2008 00:06:40 7.3 C 7.19 g/m*3 7.3 C 0 km/h
290 08-11-2008 00:31:40 6.9 C 7.08 g/m*3 6.9 C 0 km/h
291 08-11-2008 00:56:40 7.1 C 7.18 g/m*3 7.1 C 0 km/h
292 08-11-2008 01:21:40 7 C 7.13 g/m*3 7 C 0 km/h
293 08-11-2008 01:46:40 7.2 C 7.3 g/m*3 7.2 C 0 km/h
294 08-11-2008 02:11:40 7.3 C 7.35 g/m*3 7.3 C 0 km/h
295 08-11-2008 02:36:40 7.5 C 7.44 g/m*3 7.5 C 0 km/h
296 08-11-2008 03:01:40 7.8 C 7.59 g/m*3 7.8 C 0 km/h
297 08-11-2008 03:26:40 7.9 C 7.56 g/m*3 7.9 C 0 km/h
298 08-11-2008 03:51:40 8.1 C 7.57 g/m*3 8.1 C 0 km/h
299 08-11-2008 04:16:40 8.2 C 7.62 g/m*3 8.2 C 0 km/h
300 08-11-2008 04:41:40 8.3 C 7.67 g/m*3 8.3 C 0 km/h
Sensor: Nr:Datum:Temp:Abs-Feuchte:Windchill:Wind:
Aussen-T/F 301 08-11-2008 05:06:40 8.3 C 7.59 g/m*3 8.3 C 0 km/h
302 08-11-2008 05:31:40 8 C 7.44 g/m*3 8 C 0 km/h
303 08-11-2008 05:56:40 8.6 C 7.82 g/m*3 8.6 C 0 km/h
304 08-11-2008 06:21:40 8.6 C 7.65 g/m*3 8.6 C 0 km/h
305 08-11-2008 06:46:40 8.5 C 7.6 g/m*3 8.5 C 0 km/h
306 08-11-2008 07:11:40 8.5 C 7.77 g/m*3 8.5 C 0 km/h
307 08-11-2008 07:36:41 8 C 7.52 g/m*3 8 C 0 km/h
308 08-11-2008 08:01:41 7.9 C 7.64 g/m*3 7.9 C 0 km/h
309 08-11-2008 08:26:41 7.3 C 7.27 g/m*3 7.3 C 0 km/h
310 08-11-2008 08:51:41 7.2 C 7.3 g/m*3 7.2 C 0 km/h
311 08-11-2008 09:16:41 7.6 C 7.57 g/m*3 7.6 C 0 km/h
312 08-11-2008 09:41:41 8.2 C 7.87 g/m*3 8.2 C 0 km/h
313 08-11-2008 10:06:41 8.7 C 8.13 g/m*3 8.7 C 0 km/h
314 08-11-2008 10:31:41 8.9 C 7.88 g/m*3 8.9 C 0 km/h
315 08-11-2008 10:56:41 9.3 C 7.28 g/m*3 9.3 C 0 km/h
316 08-11-2008 11:21:41 9.7 C 6.36 g/m*3 9.7 C 0 km/h
317 08-11-2008 11:46:41 10.3 C 6.03 g/m*3 10.3 C 0 km/h
318 08-11-2008 12:11:41 10.9 C 5.97 g/m*3 10.9 C 0 km/h
319 08-11-2008 12:36:41 11.7 C 5.86 g/m*3 11.7 C 0 km/h
320 08-11-2008 13:01:41 12.2 C 5.4 g/m*3 12.2 C 0 km/h
321 08-11-2008 13:26:41 12.4 C 5.14 g/m*3 12.4 C 0 km/h
322 08-11-2008 13:51:01 12 C 5.33 g/m*3 12 C 0 km/h
323 08-11-2008 14:16:01 11.9 C 5.51 g/m*3 11.9 C 0 km/h
324 08-11-2008 14:41:01 12 C 5.44 g/m*3 12 C 0 km/h
325 08-11-2008 15:06:02 11.8 C 5.79 g/m*3 11.8 C 0 km/h
Sensor: Nr:Datum:Temp:Abs-Feuchte:Windchill:Wind:
Aussen-T/F 326 08-11-2008 15:31:02 12 C 5.86 g/m*3 12 C 0 km/h
327 08-11-2008 15:56:02 11.2 C 5.98 g/m*3 11.2 C 0 km/h
328 08-11-2008 16:21:02 10.2 C 5.8 g/m*3 10.2 C 0 km/h
329 08-11-2008 16:46:02 9.5 C 6.01 g/m*3 9.5 C 0 km/h
330 08-11-2008 17:11:02 8.8 C 6.09 g/m*3 8.8 C 0 km/h
331 08-11-2008 17:36:02 8.2 C 6.03 g/m*3 8.2 C 0 km/h
332 08-11-2008 18:01:02 7.7 C 6.08 g/m*3 7.7 C 0 km/h
333 08-11-2008 18:26:01 7.4 C 6.04 g/m*3 7.4 C 0 km/h
334 08-11-2008 18:51:01 7.2 C 6.12 g/m*3 7.2 C 0 km/h
335 08-11-2008 19:16:02 6.8 C 6.12 g/m*3 6.8 C 0 km/h
336 08-11-2008 19:41:02 6.5 C 6.15 g/m*3 6.5 C 0 km/h
337 08-11-2008 20:06:02 6.1 C 5.99 g/m*3 6.1 C 0 km/h
338 08-11-2008 20:31:02 5.8 C 6.02 g/m*3 5.8 C 0 km/h
339 08-11-2008 20:56:02 5.6 C 6.08 g/m*3 5.6 C 0 km/h
340 08-11-2008 21:21:02 5.3 C 5.96 g/m*3 5.3 C 0 km/h
341 08-11-2008 21:46:02 5.2 C 6.06 g/m*3 5.2 C 0 km/h
342 08-11-2008 22:11:03 5.1 C 6.02 g/m*3 5.1 C 0 km/h
343 08-11-2008 22:36:03 4.7 C 6 g/m*3 4.7 C 0 km/h
344 08-11-2008 23:01:02 4.9 C 6.14 g/m*3 4.9 C 0 km/h
345 08-11-2008 23:26:02 5.3 C 6.38 g/m*3 5.3 C 0 km/h
346 08-11-2008 23:50:02 5.8 C 6.66 g/m*3 5.8 C 0 km/h
347 09-11-2008 00:02:03 6.4 C 6.85 g/m*3 6.4 C 0 km/h
348 09-11-2008 00:14:03 6.7 C 6.84 g/m*3 6.7 C 0 km/h
349 09-11-2008 00:26:03 6.7 C 6.76 g/m*3 6.7 C 0 km/h
350 09-11-2008 00:38:03 7 C 6.74 g/m*3 7 C 0 km/h
Sensor: Nr:Datum:Temp:Abs-Feuchte:Windchill:Wind:
Aussen-T/F 351 09-11-2008 00:50:02 7 C 6.59 g/m*3 7 C 0 km/h
352 09-11-2008 01:02:03 6.6 C 6.42 g/m*3 6.6 C 0 km/h
353 09-11-2008 01:14:03 6.7 C 6.53 g/m*3 6.7 C 0 km/h
354 09-11-2008 01:26:02 6.5 C 6.37 g/m*3 6.5 C 0 km/h
355 09-11-2008 01:38:03 6.5 C 6.45 g/m*3 6.5 C 0 km/h
356 09-11-2008 01:50:02 6.4 C 6.41 g/m*3 6.4 C 0 km/h
357 09-11-2008 02:02:01 7.1 C 6.63 g/m*3 7.1 C 0 km/h
358 09-11-2008 02:14:01 7.5 C 6.56 g/m*3 7.5 C 0 km/h
359 09-11-2008 02:26:02 7.3 C 6.4 g/m*3 7.3 C 0 km/h
360 09-11-2008 02:38:01 7.6 C 6.53 g/m*3 7.6 C 0 km/h
361 09-11-2008 02:50:01 7.5 C 6.32 g/m*3 7.5 C 0 km/h
362 09-11-2008 03:02:01 7.7 C 6.49 g/m*3 7.7 C 0 km/h
363 09-11-2008 03:14:02 8 C 6.45 g/m*3 8 C 0 km/h
364 09-11-2008 03:26:02 8 C 6.45 g/m*3 8 C 0 km/h
365 09-11-2008 03:38:01 8.2 C 6.53 g/m*3 8.2 C 0 km/h
366 09-11-2008 03:50:01 8.8 C 6.61 g/m*3 8.8 C 0 km/h
367 09-11-2008 04:02:01 9.3 C 6.56 g/m*3 9.3 C 0 km/h
368 09-11-2008 04:14:01 9.4 C 6.51 g/m*3 9.4 C 0 km/h
369 09-11-2008 04:26:01 9.6 C 6.5 g/m*3 9.6 C 0 km/h
370 09-11-2008 04:38:01 9.3 C 6.47 g/m*3 9.3 C 0 km/h
371 09-11-2008 04:50:02 9.3 C 6.56 g/m*3 9.3 C 0 km/h
372 09-11-2008 05:02:01 9.2 C 6.52 g/m*3 9.2 C 0 km/h
373 09-11-2008 05:14:01 9.6 C 6.6 g/m*3 9.6 C 0 km/h
374 09-11-2008 05:26:02 9.7 C 6.64 g/m*3 9.7 C 0 km/h
375 09-11-2008 05:38:01 9.7 C 6.64 g/m*3 9.7 C 0 km/h
Sensor: Nr:Datum:Temp:Abs-Feuchte:Windchill:Wind:
Aussen-T/F 376 09-11-2008 05:50:02 9.6 C 6.6 g/m*3 9.6 C 0 km/h
377 09-11-2008 06:02:01 9.6 C 6.69 g/m*3 9.6 C 0 km/h
378 09-11-2008 06:14:01 9.6 C 6.6 g/m*3 9.6 C 0 km/h
379 09-11-2008 06:26:02 9.8 C 6.68 g/m*3 9.8 C 0 km/h
380 09-11-2008 06:38:01 9.7 C 6.64 g/m*3 9.7 C 0 km/h
381 09-11-2008 06:50:02 9.7 C 6.64 g/m*3 9.7 C 0 km/h
382 09-11-2008 07:02:01 9.9 C 6.82 g/m*3 9.9 C 0 km/h
383 09-11-2008 07:14:01 10 C 6.77 g/m*3 10 C 0 km/h
384 09-11-2008 07:26:02 9.8 C 6.87 g/m*3 9.8 C 0 km/h
385 09-11-2008 07:38:01 9.4 C 7.15 g/m*3 9.4 C 0 km/h
386 09-11-2008 07:50:01 9.2 C 7.41 g/m*3 9.2 C 0 km/h
387 09-11-2008 08:02:01 9.3 C 7.64 g/m*3 9.3 C 0 km/h
388 09-11-2008 08:14:01 9.1 C 7.72 g/m*3 9.1 C 0 km/h
389 09-11-2008 08:26:01 9.3 C 7.82 g/m*3 9.3 C 0 km/h
390 09-11-2008 08:38:01 9.4 C 7.96 g/m*3 9.4 C 0 km/h
391 09-11-2008 08:50:01 9.4 C 7.96 g/m*3 9.4 C 0 km/h
392 09-11-2008 09:02:02 9.6 C 8.15 g/m*3 9.6 C 0 km/h
393 09-11-2008 09:14:02 9.6 C 8.15 g/m*3 9.6 C 0 km/h
394 09-11-2008 09:26:01 9.7 C 8.2 g/m*3 9.7 C 0 km/h
395 09-11-2008 09:38:01 9.7 C 8.2 g/m*3 9.7 C 0 km/h
396 09-11-2008 09:50:01 9.8 C 8.35 g/m*3 9.8 C 0 km/h
397 09-11-2008 10:02:02 9.7 C 8.3 g/m*3 9.7 C 0 km/h
398 09-11-2008 10:14:02 9.7 C 8.3 g/m*3 9.7 C 0 km/h
399 09-11-2008 10:26:01 9.7 C 8.39 g/m*3 9.7 C 0 km/h
400 09-11-2008 10:38:02 9.8 C 8.44 g/m*3 9.8 C 0 km/h
Sensor: Nr:Datum:Temp:Abs-Feuchte:Windchill:Wind:
Aussen-T/F 401 09-11-2008 10:50:01 9.8 C 8.54 g/m*3 9.8 C 0 km/h
402 09-11-2008 11:02:02 9.8 C 8.54 g/m*3 9.8 C 0 km/h
403 09-11-2008 11:14:02 9.9 C 8.59 g/m*3 9.9 C 0 km/h
404 09-11-2008 11:26:01 10.1 C 8.7 g/m*3 10.1 C 0 km/h
405 09-11-2008 11:38:02 10.3 C 8.81 g/m*3 10.3 C 0 km/h
406 09-11-2008 11:50:02 10.3 C 8.81 g/m*3 10.3 C 0 km/h
407 09-11-2008 12:02:02 10.4 C 8.87 g/m*3 10.4 C 0 km/h
408 09-11-2008 12:14:02 10.7 C 9.04 g/m*3 10.7 C 0 km/h
409 09-11-2008 12:26:02 11 C 9.11 g/m*3 11 C 0 km/h
410 09-11-2008 12:38:02 10.8 C 8.99 g/m*3 10.8 C 0 km/h
411 09-11-2008 12:50:02 10.9 C 9.05 g/m*3 10.9 C 0 km/h
412 09-11-2008 13:02:02 10.6 C 8.69 g/m*3 10.6 C 0 km/h
413 09-11-2008 13:14:02 10.5 C 8.44 g/m*3 10.5 C 0 km/h
414 09-11-2008 13:26:02 10.6 C 8.39 g/m*3 10.6 C 0 km/h
415 09-11-2008 13:38:02 10.3 C 8.24 g/m*3 10.3 C 0 km/h
416 09-11-2008 13:50:02 9.8 C 7.61 g/m*3 9.8 C 0 km/h
417 09-11-2008 14:02:02 9.5 C 7.1 g/m*3 9.5 C 0 km/h
418 09-11-2008 14:14:02 9.7 C 7.19 g/m*3 9.7 C 0 km/h
419 09-11-2008 14:26:01 9.5 C 7.28 g/m*3 9.5 C 0 km/h
420 09-11-2008 14:38:02 9.6 C 7.51 g/m*3 9.6 C 0 km/h
421 09-11-2008 14:50:01 9.7 C 7.56 g/m*3 9.7 C 0 km/h
422 09-11-2008 15:02:01 9.8 C 7.24 g/m*3 9.8 C 0 km/h
423 09-11-2008 15:14:01 10.1 C 6.9 g/m*3 10.1 C 0 km/h
424 09-11-2008 15:26:02 10 C 6.95 g/m*3 10 C 0 km/h
425 09-11-2008 15:38:02 10.1 C 6.9 g/m*3 10.1 C 0 km/h
Sensor: Nr:Datum:Temp:Abs-Feuchte:Windchill:Wind:
Aussen-T/F 426 09-11-2008 15:50:01 9.9 C 7 g/m*3 9.9 C 0 km/h
427 09-11-2008 16:02:03 9.8 C 7.14 g/m*3 9.8 C 0 km/h
428 09-11-2008 16:14:03 9.6 C 7.15 g/m*3 9.6 C 0 km/h
429 09-11-2008 16:26:01 9.4 C 7.15 g/m*3 9.4 C 0 km/h
430 09-11-2008 16:38:02 9.2 C 7.23 g/m*3 9.2 C 0 km/h
431 09-11-2008 16:50:02 9.1 C 7.19 g/m*3 9.1 C 0 km/h
432 09-11-2008 17:02:02 9.1 C 7.19 g/m*3 9.1 C 0 km/h
433 09-11-2008 17:14:02 9 C 7.14 g/m*3 9 C 0 km/h
434 09-11-2008 17:26:02 8.8 C 7.22 g/m*3 8.8 C 0 km/h
435 09-11-2008 17:38:03 8.7 C 7.26 g/m*3 8.7 C 0 km/h
436 09-11-2008 17:50:02 8.7 C 7.26 g/m*3 8.7 C 0 km/h
437 09-11-2008 18:02:02 8.6 C 7.22 g/m*3 8.6 C 0 km/h
438 09-11-2008 18:14:02 8.5 C 7 g/m*3 8.5 C 0 km/h
439 09-11-2008 18:26:02 8.1 C 6.82 g/m*3 8.1 C 0 km/h
440 09-11-2008 18:38:02 7.9 C 6.82 g/m*3 7.9 C 0 km/h
441 09-11-2008 18:50:01 7.8 C 6.77 g/m*3 7.8 C 0 km/h
442 09-11-2008 19:02:02 7.6 C 6.69 g/m*3 7.6 C 0 km/h
443 09-11-2008 19:14:02 7.4 C 6.68 g/m*3 7.4 C 0 km/h
444 09-11-2008 19:26:03 7.4 C 6.76 g/m*3 7.4 C 0 km/h
445 09-11-2008 19:38:03 7.3 C 6.72 g/m*3 7.3 C 0 km/h
446 09-11-2008 19:50:02 7.4 C 6.84 g/m*3 7.4 C 0 km/h
447 09-11-2008 20:02:02 7.5 C 6.8 g/m*3 7.5 C 0 km/h
448 09-11-2008 20:14:02 7.4 C 6.76 g/m*3 7.4 C 0 km/h
449 09-11-2008 20:26:01 7.6 C 6.93 g/m*3 7.6 C 0 km/h
450 09-11-2008 20:38:02 7.4 C 6.76 g/m*3 7.4 C 0 km/h
Sensor: Nr:Datum:Temp:Abs-Feuchte:Windchill:Wind:
Aussen-T/F 451 09-11-2008 20:50:02 7.4 C 6.92 g/m*3 7.4 C 0 km/h
452 09-11-2008 21:02:01 7.6 C 7.01 g/m*3 7.6 C 0 km/h
453 09-11-2008 21:14:01 7.7 C 7.14 g/m*3 7.7 C 0 km/h
454 09-11-2008 21:26:02 7.9 C 7.23 g/m*3 7.9 C 0 km/h
455 09-11-2008 21:38:01 7.9 C 7.23 g/m*3 7.9 C 0 km/h
456 09-11-2008 21:50:02 7.9 C 7.31 g/m*3 7.9 C 0 km/h
457 09-11-2008 22:02:01 7.9 C 7.31 g/m*3 7.9 C 0 km/h
458 09-11-2008 22:14:01 7.8 C 7.35 g/m*3 7.8 C 0 km/h
459 09-11-2008 22:26:02 8 C 7.44 g/m*3 8 C 0 km/h
460 09-11-2008 22:38:01 8.3 C 7.67 g/m*3 8.3 C 0 km/h
461 09-11-2008 22:50:01 8.5 C 7.77 g/m*3 8.5 C 0 km/h
462 09-11-2008 23:02:01 8.5 C 7.77 g/m*3 8.5 C 0 km/h
463 09-11-2008 23:14:01 8.9 C 8.06 g/m*3 8.9 C 0 km/h
464 09-11-2008 23:26:01 9.3 C 8.27 g/m*3 9.3 C 0 km/h
465 09-11-2008 23:38:01 10.1 C 8.7 g/m*3 10.1 C 0 km/h
466 09-11-2008 23:50:01 11.4 C 9.34 g/m*3 11.4 C 0 km/h
467 10-11-2008 00:02:02 12 C 8.95 g/m*3 12 C 0 km/h
468 10-11-2008 00:14:02 12.1 C 8.69 g/m*3 12.1 C 0 km/h
469 10-11-2008 00:26:02 12.3 C 8.58 g/m*3 12.3 C 0 km/h
470 10-11-2008 00:38:02 12.3 C 8.58 g/m*3 12.3 C 0 km/h
471 10-11-2008 00:50:01 12.6 C 8.41 g/m*3 12.6 C 0 km/h
472 10-11-2008 01:02:02 12.9 C 8.34 g/m*3 12.9 C 0 km/h
473 10-11-2008 01:14:02 13 C 8.05 g/m*3 13 C 0 km/h
474 10-11-2008 01:26:01 13 C 7.94 g/m*3 13 C 0 km/h
475 10-11-2008 01:38:02 13 C 7.83 g/m*3 13 C 0 km/h
Sensor: Nr:Datum:Temp:Abs-Feuchte:Windchill:Wind:
Aussen-T/F 476 10-11-2008 01:50:02 13.1 C 7.53 g/m*3 13.1 C 0 km/h
477 10-11-2008 02:02:01 13 C 7.48 g/m*3 13 C 0 km/h
478 10-11-2008 02:14:01 13 C 7.48 g/m*3 13 C 0 km/h
479 10-11-2008 02:26:02 12.9 C 7.55 g/m*3 12.9 C 0 km/h
480 10-11-2008 02:38:01 12.5 C 7.81 g/m*3 12.5 C 0 km/h
481 10-11-2008 02:51:05 12 C 7.99 g/m*3 12 C 0 km/h
482 10-11-2008 03:03:05 11.8 C 8.21 g/m*3 11.8 C 0 km/h
483 10-11-2008 03:15:05 11.2 C 8.51 g/m*3 11.2 C 0 km/h
484 10-11-2008 03:27:05 11.1 C 8.66 g/m*3 11.1 C 0 km/h
485 10-11-2008 03:39:02 11.3 C 8.67 g/m*3 11.3 C 0 km/h
486 10-11-2008 03:51:02 11.6 C 8.52 g/m*3 11.6 C 0 km/h
487 10-11-2008 04:03:03 11.8 C 8.31 g/m*3 11.8 C 0 km/h
488 10-11-2008 04:15:02 11.9 C 8.26 g/m*3 11.9 C 0 km/h
489 10-11-2008 04:27:02 12 C 8.21 g/m*3 12 C 0 km/h
490 10-11-2008 04:39:03 12.3 C 8.25 g/m*3 12.3 C 0 km/h
491 10-11-2008 04:51:02 12.5 C 8.14 g/m*3 12.5 C 0 km/h
492 10-11-2008 05:03:02 12.5 C 8.14 g/m*3 12.5 C 0 km/h
493 10-11-2008 05:15:02 12.6 C 8.08 g/m*3 12.6 C 0 km/h
494 10-11-2008 05:27:02 12.8 C 8.06 g/m*3 12.8 C 0 km/h
495 10-11-2008 05:39:02 12.9 C 8 g/m*3 12.9 C 0 km/h
496 10-11-2008 05:51:01 13 C 7.83 g/m*3 13 C 0 km/h
497 10-11-2008 06:03:02 13 C 7.83 g/m*3 13 C 0 km/h
498 10-11-2008 06:15:02 13 C 7.83 g/m*3 13 C 0 km/h
499 10-11-2008 06:27:02 13 C 7.83 g/m*3 13 C 0 km/h
500 10-11-2008 06:39:02 13.1 C 7.76 g/m*3 13.1 C 0 km/h
Sensor: Nr:Datum:Temp:Abs-Feuchte:Windchill:Wind:
Aussen-T/F 501 10-11-2008 06:51:02 13 C 7.71 g/m*3 13 C 0 km/h
502 10-11-2008 07:03:02 13.1 C 7.76 g/m*3 13.1 C 0 km/h
503 10-11-2008 07:15:02 13.3 C 7.74 g/m*3 13.3 C 0 km/h
504 10-11-2008 07:27:02 13.2 C 7.69 g/m*3 13.2 C 0 km/h
505 10-11-2008 07:39:02 13.1 C 7.87 g/m*3 13.1 C 0 km/h
506 10-11-2008 07:51:02 12.8 C 8.18 g/m*3 12.8 C 0 km/h
507 10-11-2008 08:03:03 12.7 C 8.24 g/m*3 12.7 C 0 km/h
508 10-11-2008 08:15:02 13 C 8.28 g/m*3 13 C 0 km/h
509 10-11-2008 08:27:02 13 C 8.28 g/m*3 13 C 0 km/h
510 10-11-2008 08:39:03 12.8 C 8.4 g/m*3 12.8 C 0 km/h
511 10-11-2008 08:51:02 13 C 8.39 g/m*3 13 C 0 km/h
512 10-11-2008 09:03:01 13 C 8.28 g/m*3 13 C 0 km/h
513 10-11-2008 09:15:02 13 C 8.28 g/m*3 13 C 0 km/h
514 10-11-2008 09:27:03 13.2 C 8.27 g/m*3 13.2 C 0 km/h
515 10-11-2008 09:39:01 13.4 C 8.14 g/m*3 13.4 C 0 km/h
516 10-11-2008 09:51:02 13.5 C 8.07 g/m*3 13.5 C 0 km/h
517 10-11-2008 10:03:01 13.7 C 8.05 g/m*3 13.7 C 0 km/h
518 10-11-2008 10:15:02 13.7 C 7.93 g/m*3 13.7 C 0 km/h
519 10-11-2008 10:27:02 13.7 C 7.93 g/m*3 13.7 C 0 km/h
520 10-11-2008 10:39:01 13.8 C 7.98 g/m*3 13.8 C 0 km/h
521 10-11-2008 10:51:01 14 C 7.96 g/m*3 14 C 0 km/h
522 10-11-2008 11:03:01 14 C 8.08 g/m*3 14 C 0 km/h
523 10-11-2008 11:15:01 13.8 C 8.22 g/m*3 13.8 C 0 km/h
524 10-11-2008 11:27:01 14 C 8.2 g/m*3 14 C 0 km/h
525 10-11-2008 11:39:01 14.2 C 8.06 g/m*3 14.2 C 0 km/h
Sensor: Nr:Datum:Temp:Abs-Feuchte:Windchill:Wind:
Aussen-T/F 526 10-11-2008 11:51:01 14.4 C 8.03 g/m*3 14.4 C 0 km/h
527 10-11-2008 12:03:02 14.7 C 7.93 g/m*3 14.7 C 0 km/h
528 10-11-2008 12:15:02 15.2 C 7.92 g/m*3 15.2 C 0 km/h
529 10-11-2008 12:27:02 15 C 7.82 g/m*3 15 C 0 km/h
530 10-11-2008 12:39:02 15.1 C 7.87 g/m*3 15.1 C 0 km/h
531 10-11-2008 12:51:02 14.9 C 7.9 g/m*3 14.9 C 0 km/h
532 10-11-2008 13:03:01 14.9 C 7.77 g/m*3 14.9 C 0 km/h
533 10-11-2008 13:15:02 15 C 7.69 g/m*3 15 C 0 km/h
534 10-11-2008 13:27:02 14.7 C 7.81 g/m*3 14.7 C 0 km/h
535 10-11-2008 13:39:02 14.8 C 7.85 g/m*3 14.8 C 0 km/h
536 10-11-2008 13:51:02 14.9 C 7.77 g/m*3 14.9 C 0 km/h
537 10-11-2008 14:03:02 15.3 C 7.84 g/m*3 15.3 C 0 km/h
538 10-11-2008 14:15:02 15.3 C 7.57 g/m*3 15.3 C 0 km/h
539 10-11-2008 14:27:02 15.1 C 7.74 g/m*3 15.1 C 0 km/h
540 10-11-2008 14:39:02 15 C 7.82 g/m*3 15 C 0 km/h
541 10-11-2008 14:51:02 14.8 C 7.85 g/m*3 14.8 C 0 km/h
542 10-11-2008 15:03:01 14.8 C 7.73 g/m*3 14.8 C 0 km/h
543 10-11-2008 15:15:02 14.8 C 7.73 g/m*3 14.8 C 0 km/h
544 10-11-2008 15:27:03 14.8 C 7.73 g/m*3 14.8 C 0 km/h
545 10-11-2008 15:39:01 14.9 C 7.77 g/m*3 14.9 C 0 km/h
546 10-11-2008 15:51:03 14.8 C 7.73 g/m*3 14.8 C 0 km/h
547 10-11-2008 16:03:02 14.8 C 7.73 g/m*3 14.8 C 0 km/h
548 10-11-2008 16:15:03 14.8 C 7.73 g/m*3 14.8 C 0 km/h
549 10-11-2008 16:27:03 14.7 C 7.81 g/m*3 14.7 C 0 km/h
550 10-11-2008 16:39:02 14.6 C 7.76 g/m*3 14.6 C 0 km/h
Sensor: Nr:Datum:Temp:Abs-Feuchte:Windchill:Wind:
Aussen-T/F 551 10-11-2008 16:51:02 14.5 C 7.84 g/m*3 14.5 C 0 km/h
552 10-11-2008 17:03:02 14.5 C 7.71 g/m*3 14.5 C 0 km/h
553 10-11-2008 17:15:02 14.6 C 7.63 g/m*3 14.6 C 0 km/h
554 10-11-2008 17:27:02 14.7 C 7.55 g/m*3 14.7 C 0 km/h
555 10-11-2008 17:39:02 14.7 C 7.55 g/m*3 14.7 C 0 km/h
556 10-11-2008 17:51:01 14.9 C 7.65 g/m*3 14.9 C 0 km/h
557 10-11-2008 18:03:02 15.1 C 7.48 g/m*3 15.1 C 0 km/h
558 10-11-2008 18:15:01 15.2 C 7.4 g/m*3 15.2 C 0 km/h
559 10-11-2008 18:27:01 15.2 C 7.4 g/m*3 15.2 C 0 km/h
560 10-11-2008 18:39:02 14.9 C 7.39 g/m*3 14.9 C 0 km/h
561 10-11-2008 18:51:02 15.1 C 7.22 g/m*3 15.1 C 0 km/h
562 10-11-2008 19:03:03 15.1 C 7.1 g/m*3 15.1 C 0 km/h
563 10-11-2008 19:15:02 15.2 C 7.14 g/m*3 15.2 C 0 km/h
564 10-11-2008 19:27:02 15 C 7.05 g/m*3 15 C 0 km/h
565 10-11-2008 19:39:03 15.1 C 7.1 g/m*3 15.1 C 0 km/h
566 10-11-2008 19:51:02 15.2 C 7.14 g/m*3 15.2 C 0 km/h
567 10-11-2008 20:03:02 15.1 C 7.22 g/m*3 15.1 C 0 km/h
568 10-11-2008 20:15:02 15.3 C 7.31 g/m*3 15.3 C 0 km/h
569 10-11-2008 20:27:02 15.3 C 7.31 g/m*3 15.3 C 0 km/h
570 10-11-2008 20:39:02 15.3 C 7.31 g/m*3 15.3 C 0 km/h
571 10-11-2008 20:51:02 15.4 C 7.36 g/m*3 15.4 C 0 km/h
572 10-11-2008 21:03:02 15.5 C 7.53 g/m*3 15.5 C 0 km/h
573 10-11-2008 21:15:02 15.5 C 7.53 g/m*3 15.5 C 0 km/h
574 10-11-2008 21:27:02 15.6 C 7.58 g/m*3 15.6 C 0 km/h
575 10-11-2008 21:39:02 15.4 C 7.75 g/m*3 15.4 C 0 km/h
Sensor: Nr:Datum:Temp:Abs-Feuchte:Windchill:Wind:
Aussen-T/F 576 10-11-2008 21:51:01 15.2 C 8.05 g/m*3 15.2 C 0 km/h
577 10-11-2008 22:03:02 15.3 C 7.97 g/m*3 15.3 C 0 km/h
578 10-11-2008 22:15:02 15.2 C 8.05 g/m*3 15.2 C 0 km/h
579 10-11-2008 22:27:02 15.5 C 7.93 g/m*3 15.5 C 0 km/h
580 10-11-2008 22:39:02 15.7 C 7.63 g/m*3 15.7 C 0 km/h
581 10-11-2008 22:52:02 15.8 C 7.67 g/m*3 15.8 C 0 km/h
582 10-11-2008 23:04:02 15.8 C 7.54 g/m*3 15.8 C 0 km/h
583 10-11-2008 23:16:02 15.9 C 7.58 g/m*3 15.9 C 0 km/h
584 10-11-2008 23:28:02 15.8 C 7.54 g/m*3 15.8 C 0 km/h
585 10-11-2008 23:40:02 15.8 C 7.54 g/m*3 15.8 C 0 km/h
586 10-11-2008 23:52:02 16 C 7.49 g/m*3 16 C 0 km/h
587 11-11-2008 00:04:02 16 C 7.49 g/m*3 16 C 0 km/h
588 11-11-2008 00:16:02 16 C 7.49 g/m*3 16 C 0 km/h
589 11-11-2008 00:28:02 15.8 C 7.67 g/m*3 15.8 C 0 km/h
590 11-11-2008 00:40:02 15.9 C 7.58 g/m*3 15.9 C 0 km/h
591 11-11-2008 00:52:02 16 C 7.49 g/m*3 16 C 0 km/h
592 11-11-2008 01:04:02 16.1 C 7.4 g/m*3 16.1 C 0 km/h
593 11-11-2008 01:16:02 16.1 C 7.4 g/m*3 16.1 C 0 km/h
594 11-11-2008 01:28:02 15.9 C 7.45 g/m*3 15.9 C 0 km/h
595 11-11-2008 01:40:02 15.7 C 7.49 g/m*3 15.7 C 0 km/h
596 11-11-2008 01:52:02 15.7 C 7.49 g/m*3 15.7 C 0 km/h
597 11-11-2008 02:04:02 15.4 C 7.36 g/m*3 15.4 C 0 km/h
598 11-11-2008 02:16:02 15.2 C 7.4 g/m*3 15.2 C 0 km/h
599 11-11-2008 02:28:02 15.2 C 7.4 g/m*3 15.2 C 0 km/h
600 11-11-2008 02:40:03 15.3 C 7.31 g/m*3 15.3 C 0 km/h
Sensor: Nr:Datum:Temp:Abs-Feuchte:Windchill:Wind:
Aussen-T/F 601 11-11-2008 02:52:03 15.2 C 7.27 g/m*3 15.2 C 0 km/h
602 11-11-2008 03:04:03 15.3 C 7.18 g/m*3 15.3 C 0 km/h
603 11-11-2008 03:16:03 15.1 C 7.1 g/m*3 15.1 C 0 km/h
604 11-11-2008 03:28:03 14.9 C 7.14 g/m*3 14.9 C 0 km/h
605 11-11-2008 03:40:03 14.7 C 7.05 g/m*3 14.7 C 0 km/h
606 11-11-2008 03:52:03 14.6 C 7.01 g/m*3 14.6 C 0 km/h
607 11-11-2008 04:04:03 14.4 C 6.92 g/m*3 14.4 C 0 km/h
608 11-11-2008 04:16:03 14.1 C 6.92 g/m*3 14.1 C 0 km/h
609 11-11-2008 04:28:03 14.1 C 6.92 g/m*3 14.1 C 0 km/h
610 11-11-2008 04:40:03 14 C 6.88 g/m*3 14 C 0 km/h
611 11-11-2008 04:52:03 13.6 C 6.94 g/m*3 13.6 C 0 km/h
612 11-11-2008 05:04:03 13.4 C 6.86 g/m*3 13.4 C 0 km/h
613 11-11-2008 05:16:03 13.3 C 6.93 g/m*3 13.3 C 0 km/h
614 11-11-2008 05:28:03 13.4 C 6.97 g/m*3 13.4 C 0 km/h
615 11-11-2008 05:40:03 13.5 C 6.9 g/m*3 13.5 C 0 km/h
616 11-11-2008 05:52:03 13.5 C 6.9 g/m*3 13.5 C 0 km/h
617 11-11-2008 06:04:03 13.4 C 7.09 g/m*3 13.4 C 0 km/h
618 11-11-2008 06:16:03 13.3 C 7.16 g/m*3 13.3 C 0 km/h
619 11-11-2008 06:28:03 13 C 7.37 g/m*3 13 C 0 km/h
620 11-11-2008 06:40:04 12.7 C 7.57 g/m*3 12.7 C 0 km/h
621 11-11-2008 06:52:04 12.2 C 7.66 g/m*3 12.2 C 0 km/h
622 11-11-2008 07:04:02 12 C 8.1 g/m*3 12 C 0 km/h
623 11-11-2008 07:16:02 12 C 8.21 g/m*3 12 C 0 km/h
624 11-11-2008 07:28:02 12.1 C 8.26 g/m*3 12.1 C 0 km/h
625 11-11-2008 07:40:03 13 C 8.17 g/m*3 13 C 0 km/h
Sensor: Nr:Datum:Temp:Abs-Feuchte:Windchill:Wind:
Aussen-T/F 626 11-11-2008 07:52:02 13.3 C 8.09 g/m*3 13.3 C 0 km/h
627 11-11-2008 08:04:01 13.2 C 8.04 g/m*3 13.2 C 0 km/h
628 11-11-2008 08:16:02 13.7 C 7.93 g/m*3 13.7 C 0 km/h
629 11-11-2008 08:28:03 14 C 7.72 g/m*3 14 C 0 km/h
630 11-11-2008 08:40:01 13.7 C 7.82 g/m*3 13.7 C 0 km/h
631 11-11-2008 08:52:02 13.8 C 7.98 g/m*3 13.8 C 0 km/h
632 11-11-2008 09:04:01 13.9 C 8.15 g/m*3 13.9 C 0 km/h
633 11-11-2008 09:16:02 13.5 C 8.19 g/m*3 13.5 C 0 km/h
634 11-11-2008 09:28:02 13.5 C 8.42 g/m*3 13.5 C 0 km/h
635 11-11-2008 09:40:01 13.4 C 8.49 g/m*3 13.4 C 0 km/h
636 11-11-2008 09:52:02 13.7 C 8.41 g/m*3 13.7 C 0 km/h
637 11-11-2008 10:04:01 13.8 C 8.22 g/m*3 13.8 C 0 km/h
638 11-11-2008 10:16:02 13.4 C 7.9 g/m*3 13.4 C 0 km/h
639 11-11-2008 10:28:02 13.4 C 7.79 g/m*3 13.4 C 0 km/h
640 11-11-2008 10:40:01 13.4 C 7.56 g/m*3 13.4 C 0 km/h
641 11-11-2008 10:52:02 13.5 C 7.6 g/m*3 13.5 C 0 km/h
642 11-11-2008 11:04:01 13.2 C 6.54 g/m*3 13.2 C 0 km/h
643 11-11-2008 11:16:02 12 C 6.5 g/m*3 12 C 0 km/h
644 11-11-2008 11:28:02 11.8 C 6.63 g/m*3 11.8 C 0 km/h
645 11-11-2008 11:40:02 11.6 C 6.55 g/m*3 11.6 C 0 km/h
646 11-11-2008 11:52:02 11.8 C 6.31 g/m*3 11.8 C 0 km/h
647 11-11-2008 12:04:01 11.8 C 6.31 g/m*3 11.8 C 0 km/h
648 11-11-2008 12:16:02 12 C 6.07 g/m*3 12 C 0 km/h
649 11-11-2008 12:28:02 12.3 C 5.86 g/m*3 12.3 C 0 km/h
650 11-11-2008 12:40:01 12.7 C 6.01 g/m*3 12.7 C 0 km/h
Sensor: Nr:Datum:Temp:Abs-Feuchte:Windchill:Wind:
Aussen-T/F 651 11-11-2008 12:52:01 13.1 C 5.93 g/m*3 13.1 C 0 km/h
652 11-11-2008 13:04:01 13 C 5.56 g/m*3 13 C 0 km/h
653 11-11-2008 13:16:01 12.9 C 5.75 g/m*3 12.9 C 0 km/h
654 11-11-2008 13:28:01 13.4 C 5.23 g/m*3 13.4 C 0 km/h
655 11-11-2008 13:40:01 13.5 C 5.03 g/m*3 13.5 C 0 km/h
656 11-11-2008 13:52:01 14.1 C 4.73 g/m*3 14.1 C 0 km/h
657 11-11-2008 14:04:02 13.8 C 4.89 g/m*3 13.8 C 0 km/h
658 11-11-2008 14:16:01 14.1 C 4.85 g/m*3 14.1 C 0 km/h
659 11-11-2008 14:28:01 14 C 4.95 g/m*3 14 C 0 km/h
660 11-11-2008 14:40:02 13.5 C 4.68 g/m*3 13.5 C 0 km/h
661 11-11-2008 14:52:02 13.1 C 4.56 g/m*3 13.1 C 0 km/h
662 11-11-2008 15:04:02 13 C 4.54 g/m*3 13 C 0 km/h
663 11-11-2008 15:16:02 12.8 C 4.7 g/m*3 12.8 C 0 km/h
664 11-11-2008 15:28:02 12.5 C 4.73 g/m*3 12.5 C 0 km/h
665 11-11-2008 15:40:02 12.2 C 4.96 g/m*3 12.2 C 0 km/h
666 11-11-2008 15:52:02 12.1 C 4.93 g/m*3 12.1 C 0 km/h
667 11-11-2008 16:04:01 12.1 C 4.93 g/m*3 12.1 C 0 km/h
668 11-11-2008 16:16:02 12.1 C 4.93 g/m*3 12.1 C 0 km/h
669 11-11-2008 16:28:03 12.1 C 5.15 g/m*3 12.1 C 0 km/h
670 11-11-2008 16:40:01 12 C 5.12 g/m*3 12 C 0 km/h
671 11-11-2008 16:52:01 11.9 C 5.08 g/m*3 11.9 C 0 km/h
672 11-11-2008 17:04:02 11.9 C 4.98 g/m*3 11.9 C 0 km/h
673 11-11-2008 17:16:02 11.9 C 4.87 g/m*3 11.9 C 0 km/h
674 11-11-2008 17:28:03 11.9 C 4.87 g/m*3 11.9 C 0 km/h
675 11-11-2008 17:40:01 11.7 C 4.92 g/m*3 11.7 C 0 km/h
Sensor: Nr:Datum:Temp:Abs-Feuchte:Windchill:Wind:
Aussen-T/F 676 11-11-2008 17:52:02 11.3 C 4.79 g/m*3 11.3 C 0 km/h
677 11-11-2008 18:04:01 11.1 C 4.83 g/m*3 11.1 C 0 km/h
678 11-11-2008 18:16:02 11.3 C 4.79 g/m*3 11.3 C 0 km/h
679 11-11-2008 18:28:02 11.4 C 4.82 g/m*3 11.4 C 0 km/h
680 11-11-2008 18:40:01 11.1 C 4.83 g/m*3 11.1 C 0 km/h
681 11-11-2008 18:52:01 11.2 C 4.87 g/m*3 11.2 C 0 km/h
682 11-11-2008 19:04:02 11.1 C 4.94 g/m*3 11.1 C 0 km/h
683 11-11-2008 19:16:01 11.1 C 5.04 g/m*3 11.1 C 0 km/h
684 11-11-2008 19:28:01 11.1 C 5.14 g/m*3 11.1 C 0 km/h
685 11-11-2008 19:40:01 11.1 C 5.14 g/m*3 11.1 C 0 km/h
686 11-11-2008 19:52:01 11.1 C 5.24 g/m*3 11.1 C 0 km/h
687 11-11-2008 20:04:02 11.1 C 5.24 g/m*3 11.1 C 0 km/h
688 11-11-2008 20:16:01 11.1 C 5.24 g/m*3 11.1 C 0 km/h
689 11-11-2008 20:28:01 11 C 5.31 g/m*3 11 C 0 km/h
690 11-11-2008 20:40:02 11 C 5.41 g/m*3 11 C 0 km/h
691 11-11-2008 20:52:02 11 C 5.51 g/m*3 11 C 0 km/h
692 11-11-2008 21:04:02 10.9 C 5.67 g/m*3 10.9 C 0 km/h
693 11-11-2008 21:16:02 10.8 C 5.63 g/m*3 10.8 C 0 km/h
694 11-11-2008 21:28:02 10.8 C 5.73 g/m*3 10.8 C 0 km/h
695 11-11-2008 21:40:02 10.8 C 5.73 g/m*3 10.8 C 0 km/h
696 11-11-2008 21:52:02 10.8 C 5.73 g/m*3 10.8 C 0 km/h
697 11-11-2008 22:04:01 10.7 C 5.8 g/m*3 10.7 C 0 km/h
698 11-11-2008 22:16:02 10.7 C 5.89 g/m*3 10.7 C 0 km/h
699 11-11-2008 22:28:02 9.5 C 6.64 g/m*3 9.5 C 0 km/h
700 11-11-2008 22:40:02 8.9 C 7.1 g/m*3 8.9 C 0 km/h
Sensor: Nr:Datum:Temp:Abs-Feuchte:Windchill:Wind:
Aussen-T/F 701 11-11-2008 22:52:02 8.7 C 7.26 g/m*3 8.7 C 0 km/h
702 11-11-2008 23:04:01 8.5 C 7.26 g/m*3 8.5 C 0 km/h
703 11-11-2008 23:16:02 8.4 C 7.21 g/m*3 8.4 C 0 km/h
704 11-11-2008 23:28:02 8.3 C 7.25 g/m*3 8.3 C 0 km/h
705 11-11-2008 23:40:01 8.3 C 7.33 g/m*3 8.3 C 0 km/h
706 11-11-2008 23:52:02 8.3 C 7.33 g/m*3 8.3 C 0 km/h
707 12-11-2008 00:04:02 8.3 C 7.33 g/m*3 8.3 C 0 km/h
708 12-11-2008 00:16:03 8.2 C 7.37 g/m*3 8.2 C 0 km/h
709 12-11-2008 00:28:03 8.1 C 7.32 g/m*3 8.1 C 0 km/h
710 12-11-2008 00:40:02 8.2 C 7.45 g/m*3 8.2 C 0 km/h
711 12-11-2008 00:52:01 8.1 C 7.41 g/m*3 8.1 C 0 km/h
712 12-11-2008 01:04:02 8.3 C 7.5 g/m*3 8.3 C 0 km/h
713 12-11-2008 01:16:01 8.3 C 7.5 g/m*3 8.3 C 0 km/h
714 12-11-2008 01:28:01 8.4 C 7.55 g/m*3 8.4 C 0 km/h
715 12-11-2008 01:40:02 8.5 C 7.51 g/m*3 8.5 C 0 km/h
716 12-11-2008 01:52:02 8.5 C 7.51 g/m*3 8.5 C 0 km/h
717 12-11-2008 02:04:02 8.2 C 7.2 g/m*3 8.2 C 0 km/h
718 12-11-2008 02:16:02 8.1 C 7.16 g/m*3 8.1 C 0 km/h
719 12-11-2008 02:28:02 8.1 C 7.16 g/m*3 8.1 C 0 km/h
720 12-11-2008 02:40:02 8 C 7.03 g/m*3 8 C 0 km/h
721 12-11-2008 02:53:03 8.1 C 6.99 g/m*3 8.1 C 0 km/h
722 12-11-2008 03:05:04 8 C 6.94 g/m*3 8 C 0 km/h
723 12-11-2008 03:17:03 7.6 C 6.85 g/m*3 7.6 C 0 km/h
724 12-11-2008 03:29:03 7.5 C 6.88 g/m*3 7.5 C 0 km/h
725 12-11-2008 03:41:01 7.3 C 6.79 g/m*3 7.3 C 0 km/h
Sensor: Nr:Datum:Temp:Abs-Feuchte:Windchill:Wind:
Aussen-T/F 726 12-11-2008 03:53:01 7.1 C 6.79 g/m*3 7.1 C 0 km/h
727 12-11-2008 04:05:02 7.3 C 6.95 g/m*3 7.3 C 0 km/h
728 12-11-2008 04:17:02 7.4 C 7 g/m*3 7.4 C 0 km/h
729 12-11-2008 04:29:02 7.2 C 6.91 g/m*3 7.2 C 0 km/h
730 12-11-2008 04:41:02 7.5 C 7.04 g/m*3 7.5 C 0 km/h
731 12-11-2008 04:53:02 7.7 C 7.14 g/m*3 7.7 C 0 km/h
732 12-11-2008 05:05:02 7.9 C 7.15 g/m*3 7.9 C 0 km/h
733 12-11-2008 05:17:01 7.9 C 7.15 g/m*3 7.9 C 0 km/h
734 12-11-2008 05:29:01 7.8 C 7.1 g/m*3 7.8 C 0 km/h
735 12-11-2008 05:41:02 7.6 C 7.01 g/m*3 7.6 C 0 km/h
736 12-11-2008 05:53:02 7.4 C 6.92 g/m*3 7.4 C 0 km/h
737 12-11-2008 06:05:02 7.4 C 6.92 g/m*3 7.4 C 0 km/h
738 12-11-2008 06:17:02 7.5 C 6.96 g/m*3 7.5 C 0 km/h
739 12-11-2008 06:29:02 7.8 C 6.94 g/m*3 7.8 C 0 km/h
740 12-11-2008 06:41:02 8 C 6.7 g/m*3 8 C 0 km/h
741 12-11-2008 06:53:01 8 C 6.7 g/m*3 8 C 0 km/h
742 12-11-2008 07:05:02 7.8 C 6.69 g/m*3 7.8 C 0 km/h
743 12-11-2008 07:17:01 7.5 C 6.56 g/m*3 7.5 C 0 km/h
744 12-11-2008 07:29:01 7.4 C 6.44 g/m*3 7.4 C 0 km/h
745 12-11-2008 07:41:01 7.2 C 6.44 g/m*3 7.2 C 0 km/h
746 12-11-2008 07:53:02 7.6 C 6.69 g/m*3 7.6 C 0 km/h
747 12-11-2008 08:05:02 7.8 C 6.61 g/m*3 7.8 C 0 km/h
748 12-11-2008 08:17:02 7.9 C 6.49 g/m*3 7.9 C 0 km/h
749 12-11-2008 08:29:02 8 C 6.45 g/m*3 8 C 0 km/h
750 12-11-2008 08:41:02 8.1 C 6.41 g/m*3 8.1 C 0 km/h
Sensor: Nr:Datum:Temp:Abs-Feuchte:Windchill:Wind:
Aussen-T/F 751 12-11-2008 08:53:02 7.9 C 6.49 g/m*3 7.9 C 0 km/h
752 12-11-2008 09:05:02 7.8 C 6.45 g/m*3 7.8 C 0 km/h
753 12-11-2008 09:17:02 7.6 C 6.44 g/m*3 7.6 C 0 km/h
754 12-11-2008 09:29:02 7.7 C 6.57 g/m*3 7.7 C 0 km/h
755 12-11-2008 09:41:02 8.2 C 6.7 g/m*3 8.2 C 0 km/h
756 12-11-2008 09:53:02 8.2 C 6.53 g/m*3 8.2 C 0 km/h
757 12-11-2008 10:05:01 8.2 C 6.53 g/m*3 8.2 C 0 km/h
758 12-11-2008 10:17:02 8.9 C 6.57 g/m*3 8.9 C 0 km/h
759 12-11-2008 10:29:02 9.3 C 6.38 g/m*3 9.3 C 0 km/h
760 12-11-2008 10:41:01 9.4 C 6.15 g/m*3 9.4 C 0 km/h
761 12-11-2008 10:53:02 9.6 C 6.32 g/m*3 9.6 C 0 km/h
762 12-11-2008 11:05:01 9.8 C 6.31 g/m*3 9.8 C 0 km/h
763 12-11-2008 11:17:02 10.2 C 6.38 g/m*3 10.2 C 0 km/h
764 12-11-2008 11:29:02 10.7 C 6.48 g/m*3 10.7 C 0 km/h
765 12-11-2008 11:41:01 10.6 C 6.44 g/m*3 10.6 C 0 km/h
766 12-11-2008 11:53:01 9.9 C 6.63 g/m*3 9.9 C 0 km/h
767 12-11-2008 12:05:01 10.4 C 6.84 g/m*3 10.4 C 0 km/h
768 12-11-2008 12:17:02 10.5 C 6.89 g/m*3 10.5 C 0 km/h
769 12-11-2008 12:29:02 10.4 C 6.65 g/m*3 10.4 C 0 km/h
770 12-11-2008 12:41:01 10.9 C 6.76 g/m*3 10.9 C 0 km/h
771 12-11-2008 12:53:01 11.2 C 6.39 g/m*3 11.2 C 0 km/h
772 12-11-2008 13:05:01 11.8 C 6.31 g/m*3 11.8 C 0 km/h
773 12-11-2008 13:17:01 11.7 C 6.38 g/m*3 11.7 C 0 km/h
774 12-11-2008 13:29:01 11.1 C 6.04 g/m*3 11.1 C 0 km/h
775 12-11-2008 13:41:01 11.5 C 6.09 g/m*3 11.5 C 0 km/h
Sensor: Nr:Datum:Temp:Abs-Feuchte:Windchill:Wind:
Aussen-T/F 776 12-11-2008 13:53:01 11.5 C 5.89 g/m*3 11.5 C 0 km/h
777 12-11-2008 14:05:02 11.2 C 5.88 g/m*3 11.2 C 0 km/h
778 12-11-2008 14:17:01 11.9 C 5.93 g/m*3 11.9 C 0 km/h
779 12-11-2008 14:29:01 11.7 C 5.75 g/m*3 11.7 C 0 km/h
780 12-11-2008 14:41:02 11.2 C 5.78 g/m*3 11.2 C 0 km/h
781 12-11-2008 14:53:02 10.9 C 5.97 g/m*3 10.9 C 0 km/h
782 12-11-2008 15:05:02 12 C 5.97 g/m*3 12 C 0 km/h
783 12-11-2008 15:17:01 12.3 C 5.86 g/m*3 12.3 C 0 km/h
784 12-11-2008 15:29:01 11.8 C 5.79 g/m*3 11.8 C 0 km/h
785 12-11-2008 15:41:02 11.1 C 5.84 g/m*3 11.1 C 0 km/h
786 12-11-2008 15:53:02 10.7 C 5.89 g/m*3 10.7 C 0 km/h
787 12-11-2008 16:05:02 10.8 C 5.93 g/m*3 10.8 C 0 km/h
788 12-11-2008 16:17:02 10.8 C 5.93 g/m*3 10.8 C 0 km/h
789 12-11-2008 16:29:02 10.4 C 5.88 g/m*3 10.4 C 0 km/h
790 12-11-2008 16:41:02 9.9 C 5.98 g/m*3 9.9 C 0 km/h
791 12-11-2008 16:53:02 9.6 C 5.95 g/m*3 9.6 C 0 km/h
792 12-11-2008 17:05:01 9.5 C 6.01 g/m*3 9.5 C 0 km/h
793 12-11-2008 17:17:02 9.2 C 6.07 g/m*3 9.2 C 0 km/h
794 12-11-2008 17:29:02 8.7 C 6.05 g/m*3 8.7 C 0 km/h
795 12-11-2008 17:41:01 8.3 C 5.98 g/m*3 8.3 C 0 km/h
796 12-11-2008 17:53:03 8.1 C 6.07 g/m*3 8.1 C 0 km/h
797 12-11-2008 18:05:02 7.8 C 6.04 g/m*3 7.8 C 0 km/h
798 12-11-2008 18:17:02 7.8 C 6.2 g/m*3 7.8 C 0 km/h
799 12-11-2008 18:29:02 7.6 C 6.2 g/m*3 7.6 C 0 km/h
800 12-11-2008 18:41:02 7.6 C 6.2 g/m*3 7.6 C 0 km/h
Sensor: Nr:Datum:Temp:Abs-Feuchte:Windchill:Wind:
Aussen-T/F 801 12-11-2008 18:53:03 7.8 C 6.28 g/m*3 7.8 C 0 km/h
802 12-11-2008 19:05:02 7.7 C 6.24 g/m*3 7.7 C 0 km/h
803 12-11-2008 19:17:02 7.6 C 6.2 g/m*3 7.6 C 0 km/h
804 12-11-2008 19:29:02 7.8 C 6.37 g/m*3 7.8 C 0 km/h
805 12-11-2008 19:41:02 7.7 C 6.32 g/m*3 7.7 C 0 km/h
806 12-11-2008 19:53:02 7.8 C 6.45 g/m*3 7.8 C 0 km/h
807 12-11-2008 20:05:01 7.9 C 6.41 g/m*3 7.9 C 0 km/h
808 12-11-2008 20:17:02 7.9 C 6.41 g/m*3 7.9 C 0 km/h
809 12-11-2008 20:29:02 7.8 C 6.45 g/m*3 7.8 C 0 km/h
810 12-11-2008 20:41:01 7.7 C 6.41 g/m*3 7.7 C 0 km/h
811 12-11-2008 20:53:02 7.4 C 6.28 g/m*3 7.4 C 0 km/h
812 12-11-2008 21:05:01 7.1 C 6.24 g/m*3 7.1 C 0 km/h
813 12-11-2008 21:17:02 7.1 C 6.32 g/m*3 7.1 C 0 km/h
814 12-11-2008 21:29:02 7.1 C 6.32 g/m*3 7.1 C 0 km/h
815 12-11-2008 21:41:01 7.1 C 6.32 g/m*3 7.1 C 0 km/h
816 12-11-2008 21:53:01 7.1 C 6.4 g/m*3 7.1 C 0 km/h
817 12-11-2008 22:05:02 7.2 C 6.44 g/m*3 7.2 C 0 km/h
818 12-11-2008 22:17:02 7.1 C 6.32 g/m*3 7.1 C 0 km/h
819 12-11-2008 22:29:02 6.8 C 6.27 g/m*3 6.8 C 0 km/h
820 12-11-2008 22:41:01 6.3 C 6.14 g/m*3 6.3 C 0 km/h
821 12-11-2008 22:53:01 6.2 C 6.18 g/m*3 6.2 C 0 km/h
822 12-11-2008 23:05:02 6 C 6.1 g/m*3 6 C 0 km/h
823 12-11-2008 23:17:01 5.7 C 6.05 g/m*3 5.7 C 0 km/h
824 12-11-2008 23:29:01 5.5 C 6.04 g/m*3 5.5 C 0 km/h
825 12-11-2008 23:41:02 5.2 C 5.92 g/m*3 5.2 C 0 km/h
Sensor: Nr:Datum:Temp:Abs-Feuchte:Windchill:Wind:
Aussen-T/F 826 12-11-2008 23:53:02 5 C 5.84 g/m*3 5 C 0 km/h
827 13-11-2008 00:05:02 5 C 5.91 g/m*3 5 C 0 km/h
828 13-11-2008 00:17:02 4.8 C 5.9 g/m*3 4.8 C 0 km/h
829 13-11-2008 00:29:02 4.7 C 5.93 g/m*3 4.7 C 0 km/h
830 13-11-2008 00:41:02 4.8 C 6.04 g/m*3 4.8 C 0 km/h
831 13-11-2008 00:53:02 4.8 C 6.04 g/m*3 4.8 C 0 km/h
832 13-11-2008 01:05:02 4.7 C 6.06 g/m*3 4.7 C 0 km/h
833 13-11-2008 01:17:02 4.9 C 6.21 g/m*3 4.9 C 0 km/h
834 13-11-2008 01:29:02 4.8 C 6.17 g/m*3 4.8 C 0 km/h
835 13-11-2008 01:41:02 4.7 C 6.06 g/m*3 4.7 C 0 km/h
836 13-11-2008 01:53:02 4.5 C 5.98 g/m*3 4.5 C 0 km/h
837 13-11-2008 02:05:03 4.2 C 5.86 g/m*3 4.2 C 0 km/h
838 13-11-2008 02:17:02 4 C 5.79 g/m*3 4 C 0 km/h
839 13-11-2008 02:29:02 3.7 C 5.8 g/m*3 3.7 C 0 km/h
840 13-11-2008 02:41:03 3.7 C 5.8 g/m*3 3.7 C 0 km/h
841 13-11-2008 02:53:01 3.6 C 5.82 g/m*3 3.6 C 0 km/h
842 13-11-2008 03:05:01 3.6 C 5.82 g/m*3 3.6 C 0 km/h
843 13-11-2008 03:17:02 3.6 C 5.88 g/m*3 3.6 C 0 km/h
844 13-11-2008 03:29:02 3.7 C 5.92 g/m*3 3.7 C 0 km/h
845 13-11-2008 03:41:02 3.6 C 5.88 g/m*3 3.6 C 0 km/h
846 13-11-2008 03:53:02 3.5 C 5.84 g/m*3 3.5 C 0 km/h
847 13-11-2008 04:05:01 3.8 C 5.96 g/m*3 3.8 C 0 km/h
848 13-11-2008 04:17:02 3.9 C 6 g/m*3 3.9 C 0 km/h
849 13-11-2008 04:29:02 3.8 C 5.96 g/m*3 3.8 C 0 km/h
850 13-11-2008 04:41:01 4 C 6.04 g/m*3 4 C 0 km/h
Sensor: Nr:Datum:Temp:Abs-Feuchte:Windchill:Wind:
Aussen-T/F 851 13-11-2008 04:53:02 4.2 C 6.06 g/m*3 4.2 C 0 km/h
852 13-11-2008 05:05:01 4.3 C 6.1 g/m*3 4.3 C 0 km/h
853 13-11-2008 05:17:02 4.5 C 6.18 g/m*3 4.5 C 0 km/h
854 13-11-2008 05:29:02 4.5 C 6.11 g/m*3 4.5 C 0 km/h
855 13-11-2008 05:41:01 4.6 C 6.15 g/m*3 4.6 C 0 km/h
856 13-11-2008 05:53:02 4.8 C 6.17 g/m*3 4.8 C 0 km/h
857 13-11-2008 06:05:01 4.7 C 6.13 g/m*3 4.7 C 0 km/h
858 13-11-2008 06:17:02 4.7 C 6.13 g/m*3 4.7 C 0 km/h
859 13-11-2008 06:29:02 4.8 C 6.17 g/m*3 4.8 C 0 km/h
860 13-11-2008 06:41:01 4.8 C 6.17 g/m*3 4.8 C 0 km/h
861 13-11-2008 06:53:01 4.8 C 6.17 g/m*3 4.8 C 0 km/h
862 13-11-2008 07:05:01 4.8 C 6.1 g/m*3 4.8 C 0 km/h
863 13-11-2008 07:17:02 4.8 C 6.1 g/m*3 4.8 C 0 km/h
864 13-11-2008 07:29:02 5 C 6.18 g/m*3 5 C 0 km/h
865 13-11-2008 07:41:01 5.1 C 6.22 g/m*3 5.1 C 0 km/h
866 13-11-2008 07:53:01 5.1 C 6.16 g/m*3 5.1 C 0 km/h
867 13-11-2008 08:05:05 5 C 6.12 g/m*3 5 C 0 km/h
868 13-11-2008 08:17:02 5.1 C 6.16 g/m*3 5.1 C 0 km/h
869 13-11-2008 08:29:02 5.3 C 6.24 g/m*3 5.3 C 0 km/h
870 13-11-2008 08:41:01 5.4 C 6.28 g/m*3 5.4 C 0 km/h
871 13-11-2008 08:53:01 5.6 C 6.36 g/m*3 5.6 C 0 km/h
872 13-11-2008 09:05:01 5.7 C 6.33 g/m*3 5.7 C 0 km/h
873 13-11-2008 09:17:02 5.8 C 6.3 g/m*3 5.8 C 0 km/h
874 13-11-2008 09:29:02 6 C 6.31 g/m*3 6 C 0 km/h
875 13-11-2008 09:41:01 6.3 C 6.37 g/m*3 6.3 C 0 km/h
Sensor: Nr:Datum:Temp:Abs-Feuchte:Windchill:Wind:
Aussen-T/F 876 13-11-2008 09:53:01 6.6 C 6.49 g/m*3 6.6 C 0 km/h
877 13-11-2008 10:05:02 6.9 C 6.54 g/m*3 6.9 C 0 km/h
878 13-11-2008 10:17:01 7 C 6.35 g/m*3 7 C 0 km/h
879 13-11-2008 10:29:01 7.2 C 6.2 g/m*3 7.2 C 0 km/h
880 13-11-2008 10:41:02 7.3 C 6.24 g/m*3 7.3 C 0 km/h
881 13-11-2008 10:53:01 7.1 C 6.16 g/m*3 7.1 C 0 km/h
882 13-11-2008 11:05:02 7 C 6.12 g/m*3 7 C 0 km/h
883 13-11-2008 11:17:01 7.5 C 6.32 g/m*3 7.5 C 0 km/h
884 13-11-2008 11:29:01 8.1 C 6.24 g/m*3 8.1 C 0 km/h
885 13-11-2008 11:41:02 8.3 C 6.15 g/m*3 8.3 C 0 km/h
886 13-11-2008 11:53:01 8.7 C 6.23 g/m*3 8.7 C 0 km/h
887 13-11-2008 12:05:02 8.6 C 6.1 g/m*3 8.6 C 0 km/h
888 13-11-2008 12:17:02 8.8 C 6.18 g/m*3 8.8 C 0 km/h
889 13-11-2008 12:29:02 9 C 6.08 g/m*3 9 C 0 km/h
890 13-11-2008 12:41:02 9.2 C 6.07 g/m*3 9.2 C 0 km/h
891 13-11-2008 12:53:01 9.3 C 6.02 g/m*3 9.3 C 0 km/h
892 13-11-2008 13:05:02 9.4 C 5.97 g/m*3 9.4 C 0 km/h
893 13-11-2008 13:17:01 9.5 C 5.92 g/m*3 9.5 C 0 km/h
894 13-11-2008 13:29:01 9.6 C 5.95 g/m*3 9.6 C 0 km/h
895 13-11-2008 13:41:02 9.6 C 5.86 g/m*3 9.6 C 0 km/h
896 13-11-2008 13:53:01 9.8 C 5.85 g/m*3 9.8 C 0 km/h
897 13-11-2008 14:05:02 9.9 C 5.79 g/m*3 9.9 C 0 km/h
898 13-11-2008 14:17:01 9.9 C 5.79 g/m*3 9.9 C 0 km/h
899 13-11-2008 14:29:01 10 C 5.83 g/m*3 10 C 0 km/h
900 13-11-2008 14:41:02 10 C 5.83 g/m*3 10 C 0 km/h
Sensor: Nr:Datum:Temp:Abs-Feuchte:Windchill:Wind:
Aussen-T/F 901 13-11-2008 14:53:01 10 C 5.83 g/m*3 10 C 0 km/h
902 13-11-2008 15:05:01 9.8 C 5.85 g/m*3 9.8 C 0 km/h
903 13-11-2008 15:17:01 9.8 C 5.94 g/m*3 9.8 C 0 km/h
904 13-11-2008 15:29:01 9.8 C 5.94 g/m*3 9.8 C 0 km/h
905 13-11-2008 15:41:02 9.7 C 5.9 g/m*3 9.7 C 0 km/h
906 13-11-2008 15:53:02 9.6 C 5.95 g/m*3 9.6 C 0 km/h
907 13-11-2008 16:05:01 9.5 C 5.92 g/m*3 9.5 C 0 km/h
908 13-11-2008 16:17:02 9.4 C 6.06 g/m*3 9.4 C 0 km/h
909 13-11-2008 16:29:02 9.2 C 6.16 g/m*3 9.2 C 0 km/h
910 13-11-2008 16:41:01 8.9 C 6.22 g/m*3 8.9 C 0 km/h
911 13-11-2008 16:53:01 8.7 C 6.23 g/m*3 8.7 C 0 km/h
912 13-11-2008 17:05:01 8.5 C 6.23 g/m*3 8.5 C 0 km/h
913 13-11-2008 17:17:01 8.4 C 6.28 g/m*3 8.4 C 0 km/h
914 13-11-2008 17:29:01 8.2 C 6.28 g/m*3 8.2 C 0 km/h
915 13-11-2008 17:41:01 8.2 C 6.2 g/m*3 8.2 C 0 km/h
916 13-11-2008 17:53:01 8.1 C 6.16 g/m*3 8.1 C 0 km/h
917 13-11-2008 18:05:02 8.1 C 6.16 g/m*3 8.1 C 0 km/h
918 13-11-2008 18:17:01 7.9 C 6.08 g/m*3 7.9 C 0 km/h
919 13-11-2008 18:29:01 7.7 C 6 g/m*3 7.7 C 0 km/h
920 13-11-2008 18:41:02 7.7 C 6 g/m*3 7.7 C 0 km/h
921 13-11-2008 18:53:01 7.6 C 6.04 g/m*3 7.6 C 0 km/h
922 13-11-2008 19:05:02 7.7 C 6.08 g/m*3 7.7 C 0 km/h
923 13-11-2008 19:17:01 7.6 C 6.04 g/m*3 7.6 C 0 km/h
924 13-11-2008 19:29:01 7.5 C 6 g/m*3 7.5 C 0 km/h
925 13-11-2008 19:41:02 7.3 C 5.93 g/m*3 7.3 C 0 km/h
Sensor: Nr:Datum:Temp:Abs-Feuchte:Windchill:Wind:
Aussen-T/F 926 13-11-2008 19:53:02 7.3 C 6 g/m*3 7.3 C 0 km/h
927 13-11-2008 20:05:01 7.1 C 5.93 g/m*3 7.1 C 0 km/h
928 13-11-2008 20:17:01 7.1 C 6.01 g/m*3 7.1 C 0 km/h
929 13-11-2008 20:29:01 7 C 5.97 g/m*3 7 C 0 km/h
930 13-11-2008 20:41:01 6.9 C 6 g/m*3 6.9 C 0 km/h
931 13-11-2008 20:53:02 6.5 C 5.85 g/m*3 6.5 C 0 km/h
932 13-11-2008 21:05:01 6.1 C 5.7 g/m*3 6.1 C 0 km/h
933 13-11-2008 21:17:02 5.9 C 5.77 g/m*3 5.9 C 0 km/h
934 13-11-2008 21:29:02 5.8 C 5.73 g/m*3 5.8 C 0 km/h
935 13-11-2008 21:41:01 5.6 C 5.73 g/m*3 5.6 C 0 km/h
936 13-11-2008 21:53:01 5.4 C 5.65 g/m*3 5.4 C 0 km/h
937 13-11-2008 22:05:02 5.1 C 5.61 g/m*3 5.1 C 0 km/h
938 13-11-2008 22:17:01 4.8 C 5.63 g/m*3 4.8 C 0 km/h
939 13-11-2008 22:29:01 4.6 C 5.56 g/m*3 4.6 C 0 km/h
940 13-11-2008 22:41:02 4.4 C 5.55 g/m*3 4.4 C 0 km/h
941 13-11-2008 22:53:01 4.3 C 5.51 g/m*3 4.3 C 0 km/h
942 13-11-2008 23:05:01 4.4 C 5.62 g/m*3 4.4 C 0 km/h
943 13-11-2008 23:17:02 4.2 C 5.61 g/m*3 4.2 C 0 km/h
944 13-11-2008 23:29:02 3.8 C 5.46 g/m*3 3.8 C 0 km/h
945 13-11-2008 23:41:02 3.7 C 5.48 g/m*3 3.7 C 0 km/h
946 13-11-2008 23:53:01 3.5 C 5.41 g/m*3 3.5 C 0 km/h
947 14-11-2008 00:05:02 3.5 C 5.47 g/m*3 3.5 C 0 km/h
948 14-11-2008 00:17:02 3.5 C 5.47 g/m*3 3.5 C 0 km/h
949 14-11-2008 00:29:02 3.6 C 5.57 g/m*3 3.6 C 0 km/h
950 14-11-2008 00:41:02 3.6 C 5.57 g/m*3 3.6 C 0 km/h
Sensor: Nr:Datum:Temp:Abs-Feuchte:Windchill:Wind:
Aussen-T/F 951 14-11-2008 00:53:02 3.4 C 5.5 g/m*3 3.4 C 0 km/h
952 14-11-2008 01:05:02 3.1 C 5.39 g/m*3 3.1 C 0 km/h
953 14-11-2008 01:17:02 2.7 C 5.24 g/m*3 2.7 C 0 km/h
954 14-11-2008 01:29:02 2.6 C 5.27 g/m*3 2.6 C 0 km/h
955 14-11-2008 01:41:01 2.6 C 5.27 g/m*3 2.6 C 0 km/h
956 14-11-2008 01:53:01 2.5 C 5.23 g/m*3 2.5 C 0 km/h
957 14-11-2008 02:05:01 2.2 C 5.13 g/m*3 2.2 C 0 km/h
958 14-11-2008 02:17:01 2.2 C 5.13 g/m*3 2.2 C 0 km/h
959 14-11-2008 02:29:01 2.1 C 5.09 g/m*3 2.1 C 0 km/h
960 14-11-2008 02:41:01 2.5 C 5.29 g/m*3 2.5 C 0 km/h
961 14-11-2008 02:54:06 2.3 C 5.22 g/m*3 2.3 C 0 km/h
962 14-11-2008 03:06:06 2.5 C 5.29 g/m*3 2.5 C 0 km/h
963 14-11-2008 03:18:07 2.3 C 5.22 g/m*3 2.3 C 0 km/h
964 14-11-2008 03:30:07 2 C 5.11 g/m*3 2 C 0 km/h
965 14-11-2008 03:42:02 1.9 C 5.13 g/m*3 1.9 C 0 km/h
966 14-11-2008 03:54:02 1.7 C 5.06 g/m*3 1.7 C 0 km/h
967 14-11-2008 04:06:02 1.9 C 5.19 g/m*3 1.9 C 0 km/h
968 14-11-2008 04:18:02 1.8 C 5.15 g/m*3 1.8 C 0 km/h
969 14-11-2008 04:30:02 1.9 C 5.19 g/m*3 1.9 C 0 km/h
970 14-11-2008 04:42:02 2 C 5.22 g/m*3 2 C 0 km/h
971 14-11-2008 04:54:02 2 C 5.22 g/m*3 2 C 0 km/h
972 14-11-2008 05:06:02 2 C 5.28 g/m*3 2 C 0 km/h
973 14-11-2008 05:18:02 2.1 C 5.31 g/m*3 2.1 C 0 km/h
974 14-11-2008 05:30:02 2.2 C 5.35 g/m*3 2.2 C 0 km/h
975 14-11-2008 05:42:02 2.2 C 5.35 g/m*3 2.2 C 0 km/h
Sensor: Nr:Datum:Temp:Abs-Feuchte:Windchill:Wind:
Aussen-T/F 976 14-11-2008 05:54:01 2.2 C 5.35 g/m*3 2.2 C 0 km/h
977 14-11-2008 06:06:02 2.3 C 5.39 g/m*3 2.3 C 0 km/h
978 14-11-2008 06:18:02 2.2 C 5.29 g/m*3 2.2 C 0 km/h
979 14-11-2008 06:30:02 2.1 C 5.26 g/m*3 2.1 C 0 km/h
980 14-11-2008 06:42:01 2 C 5.22 g/m*3 2 C 0 km/h
981 14-11-2008 06:54:01 1.8 C 5.15 g/m*3 1.8 C 0 km/h
982 14-11-2008 07:06:02 1.7 C 5.06 g/m*3 1.7 C 0 km/h
983 14-11-2008 07:18:02 1.5 C 4.99 g/m*3 1.5 C 0 km/h
984 14-11-2008 07:30:02 1.4 C 4.91 g/m*3 1.4 C 0 km/h
985 14-11-2008 07:42:02 1.6 C 5.03 g/m*3 1.6 C 0 km/h
986 14-11-2008 07:54:02 1.9 C 5.13 g/m*3 1.9 C 0 km/h
987 14-11-2008 08:06:02 2 C 5.11 g/m*3 2 C 0 km/h
988 14-11-2008 08:18:01 2.2 C 5.18 g/m*3 2.2 C 0 km/h
989 14-11-2008 08:30:01 2.1 C 5.09 g/m*3 2.1 C 0 km/h
990 14-11-2008 08:42:02 2.2 C 5.13 g/m*3 2.2 C 0 km/h
991 14-11-2008 08:54:02 2.5 C 5.17 g/m*3 2.5 C 0 km/h
992 14-11-2008 09:06:02 2.9 C 5.26 g/m*3 2.9 C 0 km/h
993 14-11-2008 09:18:02 3.3 C 5.34 g/m*3 3.3 C 0 km/h
994 14-11-2008 09:30:02 3.6 C 5.45 g/m*3 3.6 C 0 km/h
995 14-11-2008 09:42:02 3.9 C 5.49 g/m*3 3.9 C 0 km/h
996 14-11-2008 09:54:02 4.2 C 5.48 g/m*3 4.2 C 0 km/h
997 14-11-2008 10:06:01 4.5 C 5.52 g/m*3 4.5 C 0 km/h
998 14-11-2008 10:18:02 4.7 C 5.53 g/m*3 4.7 C 0 km/h
999 14-11-2008 10:30:02 4.6 C 5.29 g/m*3 4.6 C 0 km/h
1000 14-11-2008 10:42:01 5.1 C 5.27 g/m*3 5.1 C 0 km/h
Sensor: Nr:Datum:Temp:Abs-Feuchte:Windchill:Wind:
Aussen-T/F 1001 14-11-2008 10:54:03 5.6 C 5.16 g/m*3 5.6 C 0 km/h
1002 14-11-2008 11:06:02 5.7 C 5.12 g/m*3 5.7 C 0 km/h
1003 14-11-2008 11:18:02 6 C 5.23 g/m*3 6 C 0 km/h
1004 14-11-2008 11:30:02 6.8 C 4.97 g/m*3 6.8 C 0 km/h
1005 14-11-2008 11:42:02 7.5 C 4.72 g/m*3 7.5 C 0 km/h
1006 14-11-2008 11:54:02 8.2 C 4.61 g/m*3 8.2 C 0 km/h
1007 14-11-2008 12:06:02 8.8 C 4.44 g/m*3 8.8 C 0 km/h
1008 14-11-2008 12:18:02 9 C 4.32 g/m*3 9 C 0 km/h
1009 14-11-2008 12:30:02 9 C 4.32 g/m*3 9 C 0 km/h
1010 14-11-2008 12:42:02 8.9 C 4.38 g/m*3 8.9 C 0 km/h
1011 14-11-2008 12:54:02 9 C 4.41 g/m*3 9 C 0 km/h
1012 14-11-2008 13:06:02 8.9 C 4.38 g/m*3 8.9 C 0 km/h
1013 14-11-2008 13:18:02 9.1 C 4.35 g/m*3 9.1 C 0 km/h
1014 14-11-2008 13:30:02 9.1 C 4.35 g/m*3 9.1 C 0 km/h
1015 14-11-2008 13:42:02 8.9 C 4.38 g/m*3 8.9 C 0 km/h
1016 14-11-2008 13:54:01 8.8 C 4.44 g/m*3 8.8 C 0 km/h
1017 14-11-2008 14:06:02 8.8 C 4.61 g/m*3 8.8 C 0 km/h
1018 14-11-2008 14:18:02 8.7 C 4.84 g/m*3 8.7 C 0 km/h
1019 14-11-2008 14:30:02 8.6 C 4.81 g/m*3 8.6 C 0 km/h
1020 14-11-2008 14:42:02 8.5 C 4.87 g/m*3 8.5 C 0 km/h
1021 14-11-2008 14:54:02 8.5 C 4.95 g/m*3 8.5 C 0 km/h
1022 14-11-2008 15:06:02 8.2 C 5.19 g/m*3 8.2 C 0 km/h
1023 14-11-2008 15:18:01 7.9 C 5.5 g/m*3 7.9 C 0 km/h
1024 14-11-2008 15:30:01 7.8 C 5.63 g/m*3 7.8 C 0 km/h
1025 14-11-2008 15:42:02 7.6 C 5.64 g/m*3 7.6 C 0 km/h
Sensor: Nr:Datum:Temp:Abs-Feuchte:Windchill:Wind:
Aussen-T/F 1026 14-11-2008 15:54:02 7.5 C 5.76 g/m*3 7.5 C 0 km/h
1027 14-11-2008 16:06:02 7.8 C 5.79 g/m*3 7.8 C 0 km/h
1028 14-11-2008 16:18:02 7.9 C 5.83 g/m*3 7.9 C 0 km/h
1029 14-11-2008 16:30:02 8 C 5.87 g/m*3 8 C 0 km/h
1030 14-11-2008 16:42:02 8.1 C 5.82 g/m*3 8.1 C 0 km/h
1031 14-11-2008 16:54:02 8.1 C 5.74 g/m*3 8.1 C 0 km/h
1032 14-11-2008 17:06:02 8.1 C 5.82 g/m*3 8.1 C 0 km/h
1033 14-11-2008 17:18:01 8.1 C 5.82 g/m*3 8.1 C 0 km/h
1034 14-11-2008 17:30:01 8.1 C 5.82 g/m*3 8.1 C 0 km/h
1035 14-11-2008 17:42:02 8.1 C 5.74 g/m*3 8.1 C 0 km/h
1036 14-11-2008 17:54:02 8.1 C 5.82 g/m*3 8.1 C 0 km/h
1037 14-11-2008 18:06:02 8.1 C 5.82 g/m*3 8.1 C 0 km/h
1038 14-11-2008 18:18:02 8.1 C 5.74 g/m*3 8.1 C 0 km/h
1039 14-11-2008 18:30:02 8.1 C 5.74 g/m*3 8.1 C 0 km/h
1040 14-11-2008 18:42:02 8.1 C 5.74 g/m*3 8.1 C 0 km/h
1041 14-11-2008 18:54:02 8.1 C 5.74 g/m*3 8.1 C 0 km/h
1042 14-11-2008 19:06:02 8.2 C 5.86 g/m*3 8.2 C 0 km/h
1043 14-11-2008 19:18:02 8.1 C 5.74 g/m*3 8.1 C 0 km/h
1044 14-11-2008 19:30:03 8.1 C 5.82 g/m*3 8.1 C 0 km/h
1045 14-11-2008 19:42:02 8.1 C 5.82 g/m*3 8.1 C 0 km/h
1046 14-11-2008 19:54:01 8.1 C 5.82 g/m*3 8.1 C 0 km/h
1047 14-11-2008 20:06:02 8.1 C 5.82 g/m*3 8.1 C 0 km/h
1048 14-11-2008 20:18:01 8.1 C 5.91 g/m*3 8.1 C 0 km/h
1049 14-11-2008 20:30:01 8 C 5.95 g/m*3 8 C 0 km/h
1050 14-11-2008 20:42:02 8 C 5.95 g/m*3 8 C 0 km/h
Sensor: Nr:Datum:Temp:Abs-Feuchte:Windchill:Wind:
Aussen-T/F 1051 14-11-2008 20:54:02 8 C 5.95 g/m*3 8 C 0 km/h
1052 14-11-2008 21:06:02 8 C 5.95 g/m*3 8 C 0 km/h
1053 14-11-2008 21:18:02 8 C 5.95 g/m*3 8 C 0 km/h
1054 14-11-2008 21:30:02 8 C 5.95 g/m*3 8 C 0 km/h
1055 14-11-2008 21:42:02 7.9 C 6 g/m*3 7.9 C 0 km/h
1056 14-11-2008 21:54:02 7.9 C 6 g/m*3 7.9 C 0 km/h
1057 14-11-2008 22:06:01 8 C 5.95 g/m*3 8 C 0 km/h
1058 14-11-2008 22:18:02 8 C 5.95 g/m*3 8 C 0 km/h
1059 14-11-2008 22:30:02 8 C 5.95 g/m*3 8 C 0 km/h
1060 14-11-2008 22:43:01 8 C 6.04 g/m*3 8 C 0 km/h
1061 14-11-2008 22:55:01 8 C 6.12 g/m*3 8 C 0 km/h
1062 14-11-2008 23:07:01 8.1 C 6.16 g/m*3 8.1 C 0 km/h
1063 14-11-2008 23:19:01 8.2 C 6.28 g/m*3 8.2 C 0 km/h
1064 14-11-2008 23:31:01 8.2 C 6.28 g/m*3 8.2 C 0 km/h
1065 14-11-2008 23:43:01 8.1 C 6.24 g/m*3 8.1 C 0 km/h
1066 14-11-2008 23:55:01 8.1 C 6.32 g/m*3 8.1 C 0 km/h
1067 15-11-2008 00:07:01 8.1 C 6.32 g/m*3 8.1 C 0 km/h
1068 15-11-2008 00:19:01 8.1 C 6.32 g/m*3 8.1 C 0 km/h
1069 15-11-2008 00:31:01 8.1 C 6.41 g/m*3 8.1 C 0 km/h
1070 15-11-2008 00:43:02 8.1 C 6.41 g/m*3 8.1 C 0 km/h
1071 15-11-2008 00:55:02 8.1 C 6.49 g/m*3 8.1 C 0 km/h
1072 15-11-2008 01:07:02 8.1 C 6.49 g/m*3 8.1 C 0 km/h
1073 15-11-2008 01:19:02 8 C 6.45 g/m*3 8 C 0 km/h
1074 15-11-2008 01:31:02 8 C 6.53 g/m*3 8 C 0 km/h
1075 15-11-2008 01:43:02 8.1 C 6.57 g/m*3 8.1 C 0 km/h
Sensor: Nr:Datum:Temp:Abs-Feuchte:Windchill:Wind:
Aussen-T/F 1076 15-11-2008 01:55:02 8.1 C 6.57 g/m*3 8.1 C 0 km/h
1077 15-11-2008 02:07:02 8.2 C 6.62 g/m*3 8.2 C 0 km/h
1078 15-11-2008 02:19:02 8.2 C 6.62 g/m*3 8.2 C 0 km/h
1079 15-11-2008 02:31:02 8.2 C 6.62 g/m*3 8.2 C 0 km/h
1080 15-11-2008 02:43:02 8.2 C 6.62 g/m*3 8.2 C 0 km/h
1081 15-11-2008 02:55:02 8.2 C 6.62 g/m*3 8.2 C 0 km/h
1082 15-11-2008 03:07:02 8.2 C 6.62 g/m*3 8.2 C 0 km/h
1083 15-11-2008 03:19:02 8.2 C 6.62 g/m*3 8.2 C 0 km/h
1084 15-11-2008 03:31:02 8.2 C 6.62 g/m*3 8.2 C 0 km/h
1085 15-11-2008 03:43:02 8.2 C 6.7 g/m*3 8.2 C 0 km/h
1086 15-11-2008 03:55:02 8.2 C 6.7 g/m*3 8.2 C 0 km/h
1087 15-11-2008 04:07:02 8.2 C 6.7 g/m*3 8.2 C 0 km/h
1088 15-11-2008 04:19:02 8.2 C 6.7 g/m*3 8.2 C 0 km/h
1089 15-11-2008 04:31:03 8.3 C 6.83 g/m*3 8.3 C 0 km/h
1090 15-11-2008 04:43:03 8.4 C 6.87 g/m*3 8.4 C 0 km/h
1091 15-11-2008 04:55:03 8.5 C 6.92 g/m*3 8.5 C 0 km/h
1092 15-11-2008 05:07:03 8.5 C 6.92 g/m*3 8.5 C 0 km/h
1093 15-11-2008 05:19:03 8.6 C 6.96 g/m*3 8.6 C 0 km/h
1094 15-11-2008 05:31:03 8.7 C 7.01 g/m*3 8.7 C 0 km/h
1095 15-11-2008 05:43:03 8.8 C 6.96 g/m*3 8.8 C 0 km/h
1096 15-11-2008 05:55:03 8.8 C 6.96 g/m*3 8.8 C 0 km/h
1097 15-11-2008 06:07:03 8.8 C 6.96 g/m*3 8.8 C 0 km/h
1098 15-11-2008 06:19:03 8.8 C 6.96 g/m*3 8.8 C 0 km/h
1099 15-11-2008 06:31:03 8.8 C 6.96 g/m*3 8.8 C 0 km/h
1100 15-11-2008 06:43:03 8.9 C 7.01 g/m*3 8.9 C 0 km/h
Sensor: Nr:Datum:Temp:Abs-Feuchte:Windchill:Wind:
Aussen-T/F 1101 15-11-2008 06:55:03 8.9 C 7.01 g/m*3 8.9 C 0 km/h
1102 15-11-2008 07:07:03 9 C 6.96 g/m*3 9 C 0 km/h
1103 15-11-2008 07:19:03 9 C 6.96 g/m*3 9 C 0 km/h
1104 15-11-2008 07:31:03 9 C 6.96 g/m*3 9 C 0 km/h
1105 15-11-2008 07:43:03 9 C 7.05 g/m*3 9 C 0 km/h
1106 15-11-2008 07:55:03 9.4 C 7.15 g/m*3 9.4 C 0 km/h
1107 15-11-2008 08:07:03 9.1 C 7.01 g/m*3 9.1 C 0 km/h
1108 15-11-2008 08:19:01 9.3 C 7.1 g/m*3 9.3 C 0 km/h
1109 15-11-2008 08:31:01 9.3 C 7.1 g/m*3 9.3 C 0 km/h
1110 15-11-2008 08:43:01 9.3 C 7.01 g/m*3 9.3 C 0 km/h
1111 15-11-2008 08:55:02 9.3 C 7.01 g/m*3 9.3 C 0 km/h
1112 15-11-2008 09:07:02 9.4 C 7.05 g/m*3 9.4 C 0 km/h
1113 15-11-2008 09:19:03 9.5 C 7.1 g/m*3 9.5 C 0 km/h
1114 15-11-2008 09:31:02 9.5 C 7.01 g/m*3 9.5 C 0 km/h
1115 15-11-2008 09:43:02 9.6 C 7.05 g/m*3 9.6 C 0 km/h
1116 15-11-2008 09:55:02 9.6 C 7.05 g/m*3 9.6 C 0 km/h
1117 15-11-2008 10:07:02 9.6 C 7.05 g/m*3 9.6 C 0 km/h
1118 15-11-2008 10:19:02 9.7 C 7.01 g/m*3 9.7 C 0 km/h
1119 15-11-2008 10:31:02 9.7 C 7.01 g/m*3 9.7 C 0 km/h
1120 15-11-2008 10:43:03 9.8 C 7.05 g/m*3 9.8 C 0 km/h
1121 15-11-2008 10:55:01 9.8 C 7.05 g/m*3 9.8 C 0 km/h
1122 15-11-2008 11:07:02 9.8 C 7.05 g/m*3 9.8 C 0 km/h
1123 15-11-2008 11:19:01 9.9 C 7.1 g/m*3 9.9 C 0 km/h
1124 15-11-2008 11:31:02 10.1 C 7.09 g/m*3 10.1 C 0 km/h
1125 15-11-2008 11:43:02 10.2 C 7.04 g/m*3 10.2 C 0 km/h
Sensor: Nr:Datum:Temp:Abs-Feuchte:Windchill:Wind:
Aussen-T/F 1126 15-11-2008 11:55:02 10.4 C 7.13 g/m*3 10.4 C 0 km/h
1127 15-11-2008 12:07:02 10.4 C 7.04 g/m*3 10.4 C 0 km/h
1128 15-11-2008 12:19:02 10.6 C 7.03 g/m*3 10.6 C 0 km/h
1129 15-11-2008 12:31:02 10.6 C 7.03 g/m*3 10.6 C 0 km/h
1130 15-11-2008 12:43:02 10.7 C 7.07 g/m*3 10.7 C 0 km/h
1131 15-11-2008 12:55:02 10.8 C 7.02 g/m*3 10.8 C 0 km/h
1132 15-11-2008 13:07:01 11 C 6.91 g/m*3 11 C 0 km/h
1133 15-11-2008 13:19:02 11 C 6.81 g/m*3 11 C 0 km/h
1134 15-11-2008 13:31:02 11.1 C 6.85 g/m*3 11.1 C 0 km/h
1135 15-11-2008 13:43:02 11.2 C 6.79 g/m*3 11.2 C 0 km/h
1136 15-11-2008 13:55:02 11.3 C 6.83 g/m*3 11.3 C 0 km/h
1137 15-11-2008 14:07:02 11.3 C 6.83 g/m*3 11.3 C 0 km/h
1138 15-11-2008 14:19:02 11.3 C 6.83 g/m*3 11.3 C 0 km/h
1139 15-11-2008 14:31:02 11.4 C 6.88 g/m*3 11.4 C 0 km/h
1140 15-11-2008 14:43:02 11.4 C 6.88 g/m*3 11.4 C 0 km/h
1141 15-11-2008 14:55:02 11.4 C 6.88 g/m*3 11.4 C 0 km/h
1142 15-11-2008 15:07:02 11.3 C 6.94 g/m*3 11.3 C 0 km/h
1143 15-11-2008 15:19:02 11.3 C 6.94 g/m*3 11.3 C 0 km/h
1144 15-11-2008 15:31:02 11.3 C 6.94 g/m*3 11.3 C 0 km/h
1145 15-11-2008 15:43:02 11.2 C 6.99 g/m*3 11.2 C 0 km/h
1146 15-11-2008 15:55:02 11.2 C 6.99 g/m*3 11.2 C 0 km/h
1147 15-11-2008 16:07:02 11.1 C 7.05 g/m*3 11.1 C 0 km/h
1148 15-11-2008 16:19:02 11 C 7.01 g/m*3 11 C 0 km/h
1149 15-11-2008 16:31:02 11 C 7.11 g/m*3 11 C 0 km/h
1150 15-11-2008 16:43:02 11 C 7.11 g/m*3 11 C 0 km/h
Sensor: Nr:Datum:Temp:Abs-Feuchte:Windchill:Wind:
Aussen-T/F 1151 15-11-2008 16:55:01 11 C 7.11 g/m*3 11 C 0 km/h
1152 15-11-2008 17:07:02 10.9 C 7.16 g/m*3 10.9 C 0 km/h
1153 15-11-2008 17:19:02 10.9 C 7.26 g/m*3 10.9 C 0 km/h
1154 15-11-2008 17:31:02 10.9 C 7.26 g/m*3 10.9 C 0 km/h
1155 15-11-2008 17:43:02 10.8 C 7.22 g/m*3 10.8 C 0 km/h
1156 15-11-2008 17:55:02 10.8 C 7.31 g/m*3 10.8 C 0 km/h
1157 15-11-2008 18:07:03 10.8 C 7.31 g/m*3 10.8 C 0 km/h
1158 15-11-2008 18:19:02 10.7 C 7.27 g/m*3 10.7 C 0 km/h
1159 15-11-2008 18:31:03 10.8 C 7.31 g/m*3 10.8 C 0 km/h
1160 15-11-2008 18:43:03 10.7 C 7.27 g/m*3 10.7 C 0 km/h
1161 15-11-2008 18:55:02 10.7 C 7.27 g/m*3 10.7 C 0 km/h
1162 15-11-2008 19:07:02 10.7 C 7.27 g/m*3 10.7 C 0 km/h
1163 15-11-2008 19:19:02 10.7 C 7.27 g/m*3 10.7 C 0 km/h
1164 15-11-2008 19:31:02 10.7 C 7.27 g/m*3 10.7 C 0 km/h
1165 15-11-2008 19:43:02 10.7 C 7.27 g/m*3 10.7 C 0 km/h
1166 15-11-2008 19:55:01 10.7 C 7.37 g/m*3 10.7 C 0 km/h
1167 15-11-2008 20:07:02 10.7 C 7.37 g/m*3 10.7 C 0 km/h
1168 15-11-2008 20:19:01 10.6 C 7.32 g/m*3 10.6 C 0 km/h
1169 15-11-2008 20:31:01 10.6 C 7.32 g/m*3 10.6 C 0 km/h
1170 15-11-2008 20:43:01 10.6 C 7.42 g/m*3 10.6 C 0 km/h
1171 15-11-2008 20:55:02 10.6 C 7.42 g/m*3 10.6 C 0 km/h
1172 15-11-2008 21:07:02 10.5 C 7.47 g/m*3 10.5 C 0 km/h
1173 15-11-2008 21:19:02 10.5 C 7.47 g/m*3 10.5 C 0 km/h
1174 15-11-2008 21:31:02 10.5 C 7.47 g/m*3 10.5 C 0 km/h
1175 15-11-2008 21:43:02 10.5 C 7.57 g/m*3 10.5 C 0 km/h
Sensor: Nr:Datum:Temp:Abs-Feuchte:Windchill:Wind:
Aussen-T/F 1176 15-11-2008 21:55:02 10.5 C 7.57 g/m*3 10.5 C 0 km/h
1177 15-11-2008 22:07:01 10.5 C 7.57 g/m*3 10.5 C 0 km/h
1178 15-11-2008 22:19:02 10.5 C 7.57 g/m*3 10.5 C 0 km/h
1179 15-11-2008 22:31:01 10.5 C 7.57 g/m*3 10.5 C 0 km/h
1180 15-11-2008 22:43:01 10.4 C 7.52 g/m*3 10.4 C 0 km/h
1181 15-11-2008 22:55:02 10.4 C 7.61 g/m*3 10.4 C 0 km/h
1182 15-11-2008 23:07:01 10.4 C 7.61 g/m*3 10.4 C 0 km/h
1183 15-11-2008 23:20:02 10.4 C 7.61 g/m*3 10.4 C 0 km/h
1184 15-11-2008 23:32:02 10.4 C 7.61 g/m*3 10.4 C 0 km/h
1185 15-11-2008 23:44:02 10.4 C 7.61 g/m*3 10.4 C 0 km/h
1186 15-11-2008 23:56:03 10.3 C 7.66 g/m*3 10.3 C 0 km/h
1187 16-11-2008 00:08:03 10.2 C 7.71 g/m*3 10.2 C 0 km/h
1188 16-11-2008 00:20:03 10.1 C 7.85 g/m*3 10.1 C 0 km/h
1189 16-11-2008 00:32:03 10 C 7.8 g/m*3 10 C 0 km/h
1190 16-11-2008 00:44:03 10.1 C 7.94 g/m*3 10.1 C 0 km/h
1191 16-11-2008 00:56:03 10 C 7.89 g/m*3 10 C 0 km/h
1192 16-11-2008 01:08:03 10.1 C 7.94 g/m*3 10.1 C 0 km/h
1193 16-11-2008 01:20:03 10.1 C 7.94 g/m*3 10.1 C 0 km/h
1194 16-11-2008 01:32:03 10.1 C 7.94 g/m*3 10.1 C 0 km/h
1195 16-11-2008 01:44:03 10.1 C 7.94 g/m*3 10.1 C 0 km/h
1196 16-11-2008 01:56:03 10 C 7.99 g/m*3 10 C 0 km/h
1197 16-11-2008 02:08:03 9.9 C 8.12 g/m*3 9.9 C 0 km/h
1198 16-11-2008 02:20:03 10 C 8.08 g/m*3 10 C 0 km/h
1199 16-11-2008 02:32:03 10.1 C 8.13 g/m*3 10.1 C 0 km/h
1200 16-11-2008 02:44:03 10.2 C 8.18 g/m*3 10.2 C 0 km/h
Sensor: Nr:Datum:Temp:Abs-Feuchte:Windchill:Wind:
Aussen-T/F 1201 16-11-2008 02:56:03 10.3 C 8.14 g/m*3 10.3 C 0 km/h
1202 16-11-2008 03:08:03 10.3 C 8.04 g/m*3 10.3 C 0 km/h
1203 16-11-2008 03:20:03 10.4 C 8 g/m*3 10.4 C 0 km/h
1204 16-11-2008 03:32:03 10.4 C 8 g/m*3 10.4 C 0 km/h
1205 16-11-2008 03:44:04 10.4 C 7.9 g/m*3 10.4 C 0 km/h
1206 16-11-2008 03:56:04 10.4 C 7.9 g/m*3 10.4 C 0 km/h
1207 16-11-2008 04:08:04 10.4 C 7.9 g/m*3 10.4 C 0 km/h
1208 16-11-2008 04:20:04 10.5 C 7.95 g/m*3 10.5 C 0 km/h
1209 16-11-2008 04:32:04 10.4 C 7.9 g/m*3 10.4 C 0 km/h
1210 16-11-2008 04:44:04 10.5 C 7.95 g/m*3 10.5 C 0 km/h
1211 16-11-2008 04:56:04 10.6 C 7.91 g/m*3 10.6 C 0 km/h
1212 16-11-2008 05:08:04 10.7 C 7.86 g/m*3 10.7 C 0 km/h
1213 16-11-2008 05:20:04 10.7 C 7.86 g/m*3 10.7 C 0 km/h
1214 16-11-2008 05:32:04 10.7 C 7.86 g/m*3 10.7 C 0 km/h
1215 16-11-2008 05:44:04 10.8 C 7.91 g/m*3 10.8 C 0 km/h
1216 16-11-2008 05:56:04 10.8 C 7.81 g/m*3 10.8 C 0 km/h
1217 16-11-2008 06:08:04 10.7 C 7.86 g/m*3 10.7 C 0 km/h
1218 16-11-2008 06:20:04 10.5 C 7.86 g/m*3 10.5 C 0 km/h
1219 16-11-2008 06:32:04 10.2 C 7.99 g/m*3 10.2 C 0 km/h
1220 16-11-2008 06:44:04 10.3 C 8.14 g/m*3 10.3 C 0 km/h
1221 16-11-2008 06:56:04 10.4 C 8.1 g/m*3 10.4 C 0 km/h
1222 16-11-2008 07:08:04 10.5 C 8.15 g/m*3 10.5 C 0 km/h
1223 16-11-2008 07:20:04 10.6 C 8.1 g/m*3 10.6 C 0 km/h
1224 16-11-2008 07:32:04 10.7 C 8.05 g/m*3 10.7 C 0 km/h
1225 16-11-2008 07:44:05 10.7 C 8.05 g/m*3 10.7 C 0 km/h
Sensor: Nr:Datum:Temp:Abs-Feuchte:Windchill:Wind:
Aussen-T/F 1226 16-11-2008 07:56:05 10.8 C 8.11 g/m*3 10.8 C 0 km/h
1227 16-11-2008 08:08:05 10.9 C 8.06 g/m*3 10.9 C 0 km/h
1228 16-11-2008 08:20:01 11 C 8.01 g/m*3 11 C 0 km/h
1229 16-11-2008 08:32:01 11.1 C 8.06 g/m*3 11.1 C 0 km/h
1230 16-11-2008 08:44:01 11.2 C 8.01 g/m*3 11.2 C 0 km/h
1231 16-11-2008 08:56:01 11.2 C 8.01 g/m*3 11.2 C 0 km/h
1232 16-11-2008 09:08:01 11.2 C 8.01 g/m*3 11.2 C 0 km/h
1233 16-11-2008 09:20:01 11.4 C 8.01 g/m*3 11.4 C 0 km/h
1234 16-11-2008 09:32:01 11.7 C 8.16 g/m*3 11.7 C 0 km/h
1235 16-11-2008 09:44:01 11.6 C 8.11 g/m*3 11.6 C 0 km/h
1236 16-11-2008 09:56:02 11.6 C 8.21 g/m*3 11.6 C 0 km/h
1237 16-11-2008 10:08:02 11.4 C 8.21 g/m*3 11.4 C 0 km/h
1238 16-11-2008 10:20:02 11.2 C 8.21 g/m*3 11.2 C 0 km/h
1239 16-11-2008 10:32:02 10.9 C 8.45 g/m*3 10.9 C 0 km/h
1240 16-11-2008 10:44:02 10.7 C 8.64 g/m*3 10.7 C 0 km/h
1241 16-11-2008 10:56:03 10.7 C 8.74 g/m*3 10.7 C 0 km/h
1242 16-11-2008 11:08:03 10.8 C 8.9 g/m*3 10.8 C 0 km/h
1243 16-11-2008 11:20:02 10.9 C 8.95 g/m*3 10.9 C 0 km/h
1244 16-11-2008 11:32:02 11.1 C 9.07 g/m*3 11.1 C 0 km/h
1245 16-11-2008 11:44:02 11.6 C 9.46 g/m*3 11.6 C 0 km/h
1246 16-11-2008 11:56:02 12.2 C 9.71 g/m*3 12.2 C 0 km/h
1247 16-11-2008 12:08:02 12.4 C 9.62 g/m*3 12.4 C 0 km/h
1248 16-11-2008 12:20:02 12.5 C 9.46 g/m*3 12.5 C 0 km/h
1249 16-11-2008 12:32:02 12.7 C 9.35 g/m*3 12.7 C 0 km/h
1250 16-11-2008 12:44:02 12.7 C 9.35 g/m*3 12.7 C 0 km/h
Sensor: Nr:Datum:Temp:Abs-Feuchte:Windchill:Wind:
Aussen-T/F 1251 16-11-2008 12:56:01 12.7 C 9.24 g/m*3 12.7 C 0 km/h
1252 16-11-2008 13:08:02 12.7 C 9.13 g/m*3 12.7 C 0 km/h
1253 16-11-2008 13:20:01 12.7 C 9.02 g/m*3 12.7 C 0 km/h
1254 16-11-2008 13:32:02 12.4 C 8.85 g/m*3 12.4 C 0 km/h
1255 16-11-2008 13:44:02 12.3 C 8.8 g/m*3 12.3 C 0 km/h
1256 16-11-2008 13:56:01 12.1 C 8.79 g/m*3 12.1 C 0 km/h
1257 16-11-2008 14:08:02 11.5 C 8.88 g/m*3 11.5 C 0 km/h
1258 16-11-2008 14:20:01 10.9 C 8.65 g/m*3 10.9 C 0 km/h
1259 16-11-2008 14:32:01 10.7 C 8.64 g/m*3 10.7 C 0 km/h
1260 16-11-2008 14:44:01 10.4 C 8.58 g/m*3 10.4 C 0 km/h
1261 16-11-2008 14:56:01 10.4 C 8.58 g/m*3 10.4 C 0 km/h
1262 16-11-2008 15:08:02 10.3 C 8.62 g/m*3 10.3 C 0 km/h
1263 16-11-2008 15:20:01 10.1 C 8.51 g/m*3 10.1 C 0 km/h
1264 16-11-2008 15:32:02 10.1 C 8.61 g/m*3 10.1 C 0 km/h
1265 16-11-2008 15:44:02 10 C 8.55 g/m*3 10 C 0 km/h
1266 16-11-2008 15:56:02 9.9 C 8.68 g/m*3 9.9 C 0 km/h
1267 16-11-2008 16:08:02 9.7 C 8.57 g/m*3 9.7 C 0 km/h
1268 16-11-2008 16:20:02 9.6 C 8.43 g/m*3 9.6 C 0 km/h
1269 16-11-2008 16:32:02 9.6 C 8.52 g/m*3 9.6 C 0 km/h
1270 16-11-2008 16:44:02 9.5 C 8.37 g/m*3 9.5 C 0 km/h
1271 16-11-2008 16:56:02 9.4 C 8.32 g/m*3 9.4 C 0 km/h
1272 16-11-2008 17:08:02 9.1 C 7.99 g/m*3 9.1 C 0 km/h
1273 16-11-2008 17:20:02 9.2 C 8.04 g/m*3 9.2 C 0 km/h
1274 16-11-2008 17:32:02 9.2 C 7.95 g/m*3 9.2 C 0 km/h
1275 16-11-2008 17:44:02 9.3 C 7.91 g/m*3 9.3 C 0 km/h
Sensor: Nr:Datum:Temp:Abs-Feuchte:Windchill:Wind:
Aussen-T/F 1276 16-11-2008 17:56:02 9.1 C 7.72 g/m*3 9.1 C 0 km/h
1277 16-11-2008 18:08:02 8.9 C 7.62 g/m*3 8.9 C 0 km/h
1278 16-11-2008 18:20:02 8.8 C 7.66 g/m*3 8.8 C 0 km/h
1279 16-11-2008 18:32:02 8.9 C 7.71 g/m*3 8.9 C 0 km/h
1280 16-11-2008 18:44:02 8.9 C 7.71 g/m*3 8.9 C 0 km/h
1281 16-11-2008 18:56:02 8.8 C 7.66 g/m*3 8.8 C 0 km/h
1282 16-11-2008 19:08:03 8.5 C 7.43 g/m*3 8.5 C 0 km/h
1283 16-11-2008 19:20:02 8.3 C 7.25 g/m*3 8.3 C 0 km/h
1284 16-11-2008 19:32:02 8.2 C 7.29 g/m*3 8.2 C 0 km/h
1285 16-11-2008 19:44:02 8.3 C 7.42 g/m*3 8.3 C 0 km/h
1286 16-11-2008 19:56:02 8.6 C 7.39 g/m*3 8.6 C 0 km/h
1287 16-11-2008 20:08:01 8.8 C 7.22 g/m*3 8.8 C 0 km/h
1288 16-11-2008 20:20:02 8.9 C 7.01 g/m*3 8.9 C 0 km/h
1289 16-11-2008 20:32:02 8.7 C 6.92 g/m*3 8.7 C 0 km/h
1290 16-11-2008 20:44:02 8.7 C 6.83 g/m*3 8.7 C 0 km/h
1291 16-11-2008 20:56:02 8.8 C 6.88 g/m*3 8.8 C 0 km/h
1292 16-11-2008 21:08:02 8.8 C 6.79 g/m*3 8.8 C 0 km/h
1293 16-11-2008 21:20:02 8.1 C 5.91 g/m*3 8.1 C 0 km/h
1294 16-11-2008 21:32:02 7.6 C 5.8 g/m*3 7.6 C 0 km/h
1295 16-11-2008 21:44:03 7.3 C 5.77 g/m*3 7.3 C 0 km/h
1296 16-11-2008 21:56:02 7 C 5.81 g/m*3 7 C 0 km/h
1297 16-11-2008 22:08:01 6.8 C 5.81 g/m*3 6.8 C 0 km/h
1298 16-11-2008 22:20:01 6.7 C 5.77 g/m*3 6.7 C 0 km/h
1299 16-11-2008 22:32:01 6.5 C 5.7 g/m*3 6.5 C 0 km/h
1300 16-11-2008 22:44:01 6.3 C 5.7 g/m*3 6.3 C 0 km/h
Sensor: Nr:Datum:Temp:Abs-Feuchte:Windchill:Wind:
Aussen-T/F 1301 16-11-2008 22:56:01 6.1 C 5.63 g/m*3 6.1 C 0 km/h
1302 16-11-2008 23:08:01 5.8 C 5.73 g/m*3 5.8 C 0 km/h
1303 16-11-2008 23:20:01 5.8 C 5.73 g/m*3 5.8 C 0 km/h
1304 16-11-2008 23:32:01 5.9 C 5.7 g/m*3 5.9 C 0 km/h
1305 16-11-2008 23:44:01 5.8 C 5.66 g/m*3 5.8 C 0 km/h
1306 16-11-2008 23:56:01 5.6 C 5.59 g/m*3 5.6 C 0 km/h
1307 17-11-2008 00:08:02 5.5 C 5.55 g/m*3 5.5 C 0 km/h
1308 17-11-2008 00:20:02 5.1 C 5.47 g/m*3 5.1 C 0 km/h
1309 17-11-2008 00:32:02 4.9 C 5.54 g/m*3 4.9 C 0 km/h
1310 17-11-2008 00:44:02 5 C 5.57 g/m*3 5 C 0 km/h
1311 17-11-2008 00:56:02 4.9 C 5.6 g/m*3 4.9 C 0 km/h
1312 17-11-2008 01:08:02 4.7 C 5.66 g/m*3 4.7 C 0 km/h
1313 17-11-2008 01:20:02 4.6 C 5.62 g/m*3 4.6 C 0 km/h
1314 17-11-2008 01:32:02 4.3 C 5.58 g/m*3 4.3 C 0 km/h
1315 17-11-2008 01:44:02 4.1 C 5.5 g/m*3 4.1 C 0 km/h
1316 17-11-2008 01:56:02 3.9 C 5.56 g/m*3 3.9 C 0 km/h
1317 17-11-2008 02:08:02 3.7 C 5.48 g/m*3 3.7 C 0 km/h
1318 17-11-2008 02:20:02 3.5 C 5.41 g/m*3 3.5 C 0 km/h
1319 17-11-2008 02:32:02 3.3 C 5.4 g/m*3 3.3 C 0 km/h
1320 17-11-2008 02:44:02 3 C 5.29 g/m*3 3 C 0 km/h
1321 17-11-2008 02:56:02 3 C 5.35 g/m*3 3 C 0 km/h
1322 17-11-2008 03:08:02 2.7 C 5.3 g/m*3 2.7 C 0 km/h
1323 17-11-2008 03:20:02 2.6 C 5.27 g/m*3 2.6 C 0 km/h
1324 17-11-2008 03:32:02 2.4 C 5.2 g/m*3 2.4 C 0 km/h
1325 17-11-2008 03:44:02 2.2 C 5.18 g/m*3 2.2 C 0 km/h
Sensor: Nr:Datum:Temp:Abs-Feuchte:Windchill:Wind:
Aussen-T/F 1326 17-11-2008 03:56:03 2.3 C 5.22 g/m*3 2.3 C 0 km/h
1327 17-11-2008 04:08:03 2.2 C 5.18 g/m*3 2.2 C 0 km/h
1328 17-11-2008 04:20:03 2.2 C 5.18 g/m*3 2.2 C 0 km/h
1329 17-11-2008 04:32:03 2.1 C 5.15 g/m*3 2.1 C 0 km/h
1330 17-11-2008 04:44:03 1.9 C 5.13 g/m*3 1.9 C 0 km/h
1331 17-11-2008 04:56:03 1.7 C 5.06 g/m*3 1.7 C 0 km/h
1332 17-11-2008 05:08:03 1.5 C 4.99 g/m*3 1.5 C 0 km/h
1333 17-11-2008 05:20:03 1.6 C 5.03 g/m*3 1.6 C 0 km/h
1334 17-11-2008 05:32:03 1.4 C 4.96 g/m*3 1.4 C 0 km/h
1335 17-11-2008 05:44:03 1.4 C 5.01 g/m*3 1.4 C 0 km/h
1336 17-11-2008 05:56:03 1.5 C 5.05 g/m*3 1.5 C 0 km/h
1337 17-11-2008 06:08:03 1.5 C 5.1 g/m*3 1.5 C 0 km/h
1338 17-11-2008 06:20:03 1.5 C 5.1 g/m*3 1.5 C 0 km/h
1339 17-11-2008 06:32:03 1.5 C 5.1 g/m*3 1.5 C 0 km/h
1340 17-11-2008 06:44:03 1.4 C 5.07 g/m*3 1.4 C 0 km/h
1341 17-11-2008 06:56:03 1.3 C 5.03 g/m*3 1.3 C 0 km/h
1342 17-11-2008 07:08:02 1.1 C 4.96 g/m*3 1.1 C 0 km/h
1343 17-11-2008 07:20:02 1.3 C 5.03 g/m*3 1.3 C 0 km/h
1344 17-11-2008 07:32:01 1.4 C 5.07 g/m*3 1.4 C 0 km/h
1345 17-11-2008 07:44:01 1.4 C 5.07 g/m*3 1.4 C 0 km/h
1346 17-11-2008 07:56:01 1.4 C 5.07 g/m*3 1.4 C 0 km/h
1347 17-11-2008 08:08:02 1.4 C 5.07 g/m*3 1.4 C 0 km/h
1348 17-11-2008 08:20:02 1.5 C 5.1 g/m*3 1.5 C 0 km/h
1349 17-11-2008 08:32:02 1.4 C 5.07 g/m*3 1.4 C 0 km/h
1350 17-11-2008 08:44:02 1.5 C 5.1 g/m*3 1.5 C 0 km/h
Sensor: Nr:Datum:Temp:Abs-Feuchte:Windchill:Wind:
Aussen-T/F 1351 17-11-2008 08:56:01 1.6 C 5.14 g/m*3 1.6 C 0 km/h
1352 17-11-2008 09:08:01 1.7 C 5.17 g/m*3 1.7 C 0 km/h
1353 17-11-2008 09:20:02 1.8 C 5.21 g/m*3 1.8 C 0 km/h
1354 17-11-2008 09:32:01 1.9 C 5.24 g/m*3 1.9 C 0 km/h
1355 17-11-2008 09:44:01 2 C 5.28 g/m*3 2 C 0 km/h
1356 17-11-2008 09:56:02 2 C 5.28 g/m*3 2 C 0 km/h
1357 17-11-2008 10:08:01 1.9 C 5.24 g/m*3 1.9 C 0 km/h
1358 17-11-2008 10:20:02 2 C 5.28 g/m*3 2 C 0 km/h
1359 17-11-2008 10:32:01 2.2 C 5.35 g/m*3 2.2 C 0 km/h
1360 17-11-2008 10:44:01 2.5 C 5.46 g/m*3 2.5 C 0 km/h
1361 17-11-2008 10:56:01 2.4 C 5.42 g/m*3 2.4 C 0 km/h
1362 17-11-2008 11:08:01 2.5 C 5.46 g/m*3 2.5 C 0 km/h
1363 17-11-2008 11:20:02 2.7 C 5.54 g/m*3 2.7 C 0 km/h
1364 17-11-2008 11:32:01 3.1 C 5.69 g/m*3 3.1 C 0 km/h
1365 17-11-2008 11:44:01 3.5 C 5.84 g/m*3 3.5 C 0 km/h
1366 17-11-2008 11:56:01 4 C 6.04 g/m*3 4 C 0 km/h
1367 17-11-2008 12:08:01 4.8 C 6.37 g/m*3 4.8 C 0 km/h
1368 17-11-2008 12:20:01 6.1 C 6.79 g/m*3 6.1 C 0 km/h
1369 17-11-2008 12:32:01 7 C 6.43 g/m*3 7 C 0 km/h
1370 17-11-2008 12:44:01 7.6 C 5.96 g/m*3 7.6 C 0 km/h
1371 17-11-2008 12:56:01 8 C 5.95 g/m*3 8 C 0 km/h
1372 17-11-2008 13:08:02 8.1 C 5.66 g/m*3 8.1 C 0 km/h
1373 17-11-2008 13:20:01 8.7 C 5.97 g/m*3 8.7 C 0 km/h
1374 17-11-2008 13:32:01 8.5 C 5.89 g/m*3 8.5 C 0 km/h
1375 17-11-2008 13:44:01 8.7 C 5.88 g/m*3 8.7 C 0 km/h
Sensor: Nr:Datum:Temp:Abs-Feuchte:Windchill:Wind:
Aussen-T/F 1376 17-11-2008 13:56:01 8.7 C 5.62 g/m*3 8.7 C 0 km/h
1377 17-11-2008 14:08:02 8.9 C 5.69 g/m*3 8.9 C 0 km/h
1378 17-11-2008 14:20:01 8.9 C 5.69 g/m*3 8.9 C 0 km/h
1379 17-11-2008 14:32:02 8.9 C 5.69 g/m*3 8.9 C 0 km/h
1380 17-11-2008 14:44:02 8.7 C 5.53 g/m*3 8.7 C 0 km/h
1381 17-11-2008 14:56:01 8.5 C 5.55 g/m*3 8.5 C 0 km/h
1382 17-11-2008 15:08:02 8.4 C 5.43 g/m*3 8.4 C 0 km/h
1383 17-11-2008 15:20:01 8.3 C 5.48 g/m*3 8.3 C 0 km/h
1384 17-11-2008 15:32:02 8.1 C 5.49 g/m*3 8.1 C 0 km/h
1385 17-11-2008 15:44:02 8 C 5.54 g/m*3 8 C 0 km/h
1386 17-11-2008 15:56:01 7.8 C 5.55 g/m*3 7.8 C 0 km/h
1387 17-11-2008 16:08:02 7.4 C 5.49 g/m*3 7.4 C 0 km/h
1388 17-11-2008 16:20:01 7 C 5.5 g/m*3 7 C 0 km/h
1389 17-11-2008 16:32:02 6.6 C 5.59 g/m*3 6.6 C 0 km/h
1390 17-11-2008 16:44:02 6.3 C 5.55 g/m*3 6.3 C 0 km/h
1391 17-11-2008 16:56:01 6.2 C 5.66 g/m*3 6.2 C 0 km/h
1392 17-11-2008 17:08:01 6.1 C 5.7 g/m*3 6.1 C 0 km/h
1393 17-11-2008 17:20:01 6 C 5.73 g/m*3 6 C 0 km/h
1394 17-11-2008 17:32:02 6 C 5.73 g/m*3 6 C 0 km/h
1395 17-11-2008 17:44:02 5.9 C 5.7 g/m*3 5.9 C 0 km/h
1396 17-11-2008 17:56:01 5.8 C 5.66 g/m*3 5.8 C 0 km/h
1397 17-11-2008 18:08:02 5.6 C 5.51 g/m*3 5.6 C 0 km/h
1398 17-11-2008 18:20:01 5.3 C 5.41 g/m*3 5.3 C 0 km/h
1399 17-11-2008 18:32:02 4.9 C 5.4 g/m*3 4.9 C 0 km/h
1400 17-11-2008 18:44:02 4.6 C 5.36 g/m*3 4.6 C 0 km/h
Sensor: Nr:Datum:Temp:Abs-Feuchte:Windchill:Wind:
Aussen-T/F 1401 17-11-2008 18:56:01 4.5 C 5.39 g/m*3 4.5 C 0 km/h
1402 17-11-2008 19:08:01 4.3 C 5.38 g/m*3 4.3 C 0 km/h
1403 17-11-2008 19:20:01 4.1 C 5.31 g/m*3 4.1 C 0 km/h
1404 17-11-2008 19:32:02 4 C 5.28 g/m*3 4 C 0 km/h
1405 17-11-2008 19:44:02 3.9 C 5.37 g/m*3 3.9 C 0 km/h
1406 17-11-2008 19:56:02 3.8 C 5.4 g/m*3 3.8 C 0 km/h
1407 17-11-2008 20:08:01 3.6 C 5.32 g/m*3 3.6 C 0 km/h
1408 17-11-2008 20:20:02 3.6 C 5.39 g/m*3 3.6 C 0 km/h
1409 17-11-2008 20:32:01 3.3 C 5.28 g/m*3 3.3 C 0 km/h
1410 17-11-2008 20:44:01 3.1 C 5.21 g/m*3 3.1 C 0 km/h
1411 17-11-2008 20:56:01 3.1 C 5.27 g/m*3 3.1 C 0 km/h
1412 17-11-2008 21:08:02 3 C 5.23 g/m*3 3 C 0 km/h
1413 17-11-2008 21:20:01 3 C 5.29 g/m*3 3 C 0 km/h
1414 17-11-2008 21:32:02 3.1 C 5.33 g/m*3 3.1 C 0 km/h
1415 17-11-2008 21:44:02 3.2 C 5.42 g/m*3 3.2 C 0 km/h
1416 17-11-2008 21:56:01 3.4 C 5.5 g/m*3 3.4 C 0 km/h
1417 17-11-2008 22:08:02 3.3 C 5.46 g/m*3 3.3 C 0 km/h
1418 17-11-2008 22:20:01 3.3 C 5.46 g/m*3 3.3 C 0 km/h
1419 17-11-2008 22:32:02 3.3 C 5.4 g/m*3 3.3 C 0 km/h
1420 17-11-2008 22:44:02 3.3 C 5.4 g/m*3 3.3 C 0 km/h
1421 17-11-2008 22:57:03 3.2 C 5.36 g/m*3 3.2 C 0 km/h
1422 17-11-2008 23:09:03 3.2 C 5.36 g/m*3 3.2 C 0 km/h
1423 17-11-2008 23:21:03 3.1 C 5.33 g/m*3 3.1 C 0 km/h
1424 17-11-2008 23:33:03 3.1 C 5.33 g/m*3 3.1 C 0 km/h
1425 17-11-2008 23:45:03 3 C 5.29 g/m*3 3 C 0 km/h
Sensor: Nr:Datum:Temp:Abs-Feuchte:Windchill:Wind:
Aussen-T/F 1426 17-11-2008 23:57:03 3 C 5.29 g/m*3 3 C 0 km/h
1427 18-11-2008 00:09:03 3 C 5.29 g/m*3 3 C 0 km/h
1428 18-11-2008 00:21:03 2.8 C 5.22 g/m*3 2.8 C 0 km/h
1429 18-11-2008 00:33:03 2.7 C 5.19 g/m*3 2.7 C 0 km/h
1430 18-11-2008 00:45:03 2.6 C 5.15 g/m*3 2.6 C 0 km/h
1431 18-11-2008 00:57:03 2.6 C 5.15 g/m*3 2.6 C 0 km/h
1432 18-11-2008 01:09:03 2.8 C 5.22 g/m*3 2.8 C 0 km/h
1433 18-11-2008 01:21:03 2.7 C 5.13 g/m*3 2.7 C 0 km/h
1434 18-11-2008 01:33:03 2.6 C 5.03 g/m*3 2.6 C 0 km/h
1435 18-11-2008 01:45:03 2.6 C 5.03 g/m*3 2.6 C 0 km/h
1436 18-11-2008 01:57:03 2.7 C 5.07 g/m*3 2.7 C 0 km/h
1437 18-11-2008 02:09:03 2.7 C 5.07 g/m*3 2.7 C 0 km/h
1438 18-11-2008 02:21:03 2.7 C 5.07 g/m*3 2.7 C 0 km/h
1439 18-11-2008 02:33:03 2.7 C 5.07 g/m*3 2.7 C 0 km/h
1440 18-11-2008 02:45:03 2.7 C 5.07 g/m*3 2.7 C 0 km/h
1441 18-11-2008 02:57:04 2.7 C 5.07 g/m*3 2.7 C 0 km/h
1442 18-11-2008 03:09:04 2.5 C 5 g/m*3 2.5 C 0 km/h
1443 18-11-2008 03:21:04 2.3 C 4.93 g/m*3 2.3 C 0 km/h
1444 18-11-2008 03:33:04 2.2 C 4.9 g/m*3 2.2 C 0 km/h
1445 18-11-2008 03:45:04 2.2 C 4.9 g/m*3 2.2 C 0 km/h
1446 18-11-2008 03:57:04 2.1 C 4.92 g/m*3 2.1 C 0 km/h
1447 18-11-2008 04:09:04 1.9 C 4.86 g/m*3 1.9 C 0 km/h
1448 18-11-2008 04:21:04 1.9 C 4.91 g/m*3 1.9 C 0 km/h
1449 18-11-2008 04:33:04 1.7 C 4.85 g/m*3 1.7 C 0 km/h
1450 18-11-2008 04:45:04 1.6 C 4.81 g/m*3 1.6 C 0 km/h
Sensor: Nr:Datum:Temp:Abs-Feuchte:Windchill:Wind:
Aussen-T/F 1451 18-11-2008 04:57:04 1.5 C 4.78 g/m*3 1.5 C 0 km/h
1452 18-11-2008 05:09:04 1.5 C 4.78 g/m*3 1.5 C 0 km/h
1453 18-11-2008 05:21:04 1.4 C 4.75 g/m*3 1.4 C 0 km/h
1454 18-11-2008 05:33:04 1.4 C 4.8 g/m*3 1.4 C 0 km/h
1455 18-11-2008 05:45:04 1.5 C 4.83 g/m*3 1.5 C 0 km/h
1456 18-11-2008 05:57:04 1.4 C 4.8 g/m*3 1.4 C 0 km/h
1457 18-11-2008 06:09:04 1.4 C 4.8 g/m*3 1.4 C 0 km/h
1458 18-11-2008 06:21:04 1.6 C 4.92 g/m*3 1.6 C 0 km/h
1459 18-11-2008 06:33:04 1.8 C 4.99 g/m*3 1.8 C 0 km/h
1460 18-11-2008 06:45:05 2 C 5.06 g/m*3 2 C 0 km/h
1461 18-11-2008 06:57:05 2 C 5.06 g/m*3 2 C 0 km/h
1462 18-11-2008 07:09:02 2 C 5 g/m*3 2 C 0 km/h
1463 18-11-2008 07:21:02 2.2 C 5.07 g/m*3 2.2 C 0 km/h
1464 18-11-2008 07:33:02 2.2 C 5.07 g/m*3 2.2 C 0 km/h
1465 18-11-2008 07:45:01 2.2 C 5.07 g/m*3 2.2 C 0 km/h
1466 18-11-2008 07:57:01 2.3 C 5.1 g/m*3 2.3 C 0 km/h
1467 18-11-2008 08:09:02 2.4 C 5.14 g/m*3 2.4 C 0 km/h
1468 18-11-2008 08:21:02 2.5 C 5.17 g/m*3 2.5 C 0 km/h
1469 18-11-2008 08:33:01 2.5 C 5.12 g/m*3 2.5 C 0 km/h
1470 18-11-2008 08:45:01 2.6 C 5.15 g/m*3 2.6 C 0 km/h
1471 18-11-2008 08:57:01 3 C 5.23 g/m*3 3 C 0 km/h
1472 18-11-2008 09:09:02 3.2 C 5.24 g/m*3 3.2 C 0 km/h
1473 18-11-2008 09:21:01 3.9 C 5.24 g/m*3 3.9 C 0 km/h
1474 18-11-2008 09:33:02 4.2 C 5.03 g/m*3 4.2 C 0 km/h
1475 18-11-2008 09:45:02 4.5 C 4.93 g/m*3 4.5 C 0 km/h
Sensor: Nr:Datum:Temp:Abs-Feuchte:Windchill:Wind:
Aussen-T/F 1476 18-11-2008 09:57:02 4.8 C 4.9 g/m*3 4.8 C 0 km/h
1477 18-11-2008 10:09:02 5 C 4.82 g/m*3 5 C 0 km/h
1478 18-11-2008 10:21:01 5.1 C 4.79 g/m*3 5.1 C 0 km/h
1479 18-11-2008 10:33:02 5.1 C 4.79 g/m*3 5.1 C 0 km/h
1480 18-11-2008 10:45:02 5 C 4.69 g/m*3 5 C 0 km/h
1481 18-11-2008 10:57:02 5 C 4.76 g/m*3 5 C 0 km/h
1482 18-11-2008 11:09:02 5.1 C 4.86 g/m*3 5.1 C 0 km/h
1483 18-11-2008 11:21:02 4.8 C 5.03 g/m*3 4.8 C 0 km/h
1484 18-11-2008 11:33:02 4.8 C 5.23 g/m*3 4.8 C 0 km/h
1485 18-11-2008 11:45:02 4.9 C 5.33 g/m*3 4.9 C 0 km/h
1486 18-11-2008 11:57:02 5.3 C 5.27 g/m*3 5.3 C 0 km/h
1487 18-11-2008 12:09:03 5.5 C 5.34 g/m*3 5.5 C 0 km/h
1488 18-11-2008 12:21:01 5.7 C 5.34 g/m*3 5.7 C 0 km/h
1489 18-11-2008 12:33:02 5.9 C 5.41 g/m*3 5.9 C 0 km/h
1490 18-11-2008 12:45:02 5.9 C 5.41 g/m*3 5.9 C 0 km/h
1491 18-11-2008 12:57:02 5.9 C 5.41 g/m*3 5.9 C 0 km/h
1492 18-11-2008 13:09:03 6.1 C 5.41 g/m*3 6.1 C 0 km/h
1493 18-11-2008 13:21:02 6.3 C 5.4 g/m*3 6.3 C 0 km/h
1494 18-11-2008 13:33:02 6.4 C 5.44 g/m*3 6.4 C 0 km/h
1495 18-11-2008 13:45:03 6.7 C 5.55 g/m*3 6.7 C 0 km/h
1496 18-11-2008 13:57:03 7.3 C 5.61 g/m*3 7.3 C 0 km/h
1497 18-11-2008 14:09:02 7.6 C 5.72 g/m*3 7.6 C 0 km/h
1498 18-11-2008 14:21:02 8.1 C 5.57 g/m*3 8.1 C 0 km/h
1499 18-11-2008 14:33:02 7.6 C 5.64 g/m*3 7.6 C 0 km/h
1500 18-11-2008 14:45:02 7.3 C 5.61 g/m*3 7.3 C 0 km/h
Sensor: Nr:Datum:Temp:Abs-Feuchte:Windchill:Wind:
Aussen-T/F 1501 18-11-2008 14:57:02 7.3 C 5.77 g/m*3 7.3 C 0 km/h
1502 18-11-2008 15:09:02 7.3 C 5.77 g/m*3 7.3 C 0 km/h
1503 18-11-2008 15:21:02 7.2 C 5.73 g/m*3 7.2 C 0 km/h
1504 18-11-2008 15:33:02 7.1 C 5.77 g/m*3 7.1 C 0 km/h
1505 18-11-2008 15:45:02 7 C 5.81 g/m*3 7 C 0 km/h
1506 18-11-2008 15:57:02 6.9 C 5.93 g/m*3 6.9 C 0 km/h
1507 18-11-2008 16:09:02 6.9 C 5.85 g/m*3 6.9 C 0 km/h
1508 18-11-2008 16:21:02 6.8 C 5.81 g/m*3 6.8 C 0 km/h
1509 18-11-2008 16:33:02 6.8 C 5.89 g/m*3 6.8 C 0 km/h
1510 18-11-2008 16:45:01 6.8 C 5.89 g/m*3 6.8 C 0 km/h
1511 18-11-2008 16:57:01 6.8 C 5.89 g/m*3 6.8 C 0 km/h
1512 18-11-2008 17:09:02 6.8 C 5.97 g/m*3 6.8 C 0 km/h
1513 18-11-2008 17:21:01 6.8 C 5.97 g/m*3 6.8 C 0 km/h
1514 18-11-2008 17:33:02 6.9 C 6 g/m*3 6.9 C 0 km/h
1515 18-11-2008 17:45:03 6.8 C 5.97 g/m*3 6.8 C 0 km/h
1516 18-11-2008 17:57:03 6.4 C 6.04 g/m*3 6.4 C 0 km/h
1517 18-11-2008 18:09:02 6.3 C 6.14 g/m*3 6.3 C 0 km/h
1518 18-11-2008 18:21:02 6.3 C 6.29 g/m*3 6.3 C 0 km/h
1519 18-11-2008 18:33:02 6.2 C 6.32 g/m*3 6.2 C 0 km/h
1520 18-11-2008 18:45:02 6.2 C 6.4 g/m*3 6.2 C 0 km/h
1521 18-11-2008 18:57:02 6.2 C 6.4 g/m*3 6.2 C 0 km/h
1522 18-11-2008 19:09:02 6.2 C 6.47 g/m*3 6.2 C 0 km/h
1523 18-11-2008 19:21:02 6.4 C 6.48 g/m*3 6.4 C 0 km/h
1524 18-11-2008 19:33:02 6.4 C 6.48 g/m*3 6.4 C 0 km/h
1525 18-11-2008 19:45:01 6.3 C 6.51 g/m*3 6.3 C 0 km/h
Sensor: Nr:Datum:Temp:Abs-Feuchte:Windchill:Wind:
Aussen-T/F 1526 18-11-2008 19:57:01 6.4 C 6.56 g/m*3 6.4 C 0 km/h
1527 18-11-2008 20:09:02 6.5 C 6.6 g/m*3 6.5 C 0 km/h
1528 18-11-2008 20:21:01 6.5 C 6.6 g/m*3 6.5 C 0 km/h
1529 18-11-2008 20:33:02 6.5 C 6.6 g/m*3 6.5 C 0 km/h
1530 18-11-2008 20:45:02 6.6 C 6.64 g/m*3 6.6 C 0 km/h
1531 18-11-2008 20:57:02 6.8 C 6.65 g/m*3 6.8 C 0 km/h
1532 18-11-2008 21:09:02 7 C 6.59 g/m*3 7 C 0 km/h
1533 18-11-2008 21:21:03 6.8 C 6.65 g/m*3 6.8 C 0 km/h
1534 18-11-2008 21:33:02 6.7 C 6.69 g/m*3 6.7 C 0 km/h
1535 18-11-2008 21:45:01 6.6 C 6.79 g/m*3 6.6 C 0 km/h
1536 18-11-2008 21:57:01 6.5 C 6.82 g/m*3 6.5 C 0 km/h
1537 18-11-2008 22:09:02 6.5 C 6.9 g/m*3 6.5 C 0 km/h
1538 18-11-2008 22:21:01 6.6 C 6.95 g/m*3 6.6 C 0 km/h
1539 18-11-2008 22:33:02 6.6 C 6.95 g/m*3 6.6 C 0 km/h
1540 18-11-2008 22:45:02 6.8 C 7.11 g/m*3 6.8 C 0 km/h
1541 18-11-2008 22:57:02 6.7 C 7.07 g/m*3 6.7 C 0 km/h
1542 18-11-2008 23:09:02 6.7 C 7.07 g/m*3 6.7 C 0 km/h
1543 18-11-2008 23:21:02 6.9 C 7.16 g/m*3 6.9 C 0 km/h
1544 18-11-2008 23:33:02 7.2 C 7.22 g/m*3 7.2 C 0 km/h
1545 18-11-2008 23:45:02 7 C 7.13 g/m*3 7 C 0 km/h
1546 18-11-2008 23:57:02 7.3 C 7.27 g/m*3 7.3 C 0 km/h
1547 19-11-2008 00:09:03 7.3 C 7.27 g/m*3 7.3 C 0 km/h
1548 19-11-2008 00:21:02 7.3 C 7.27 g/m*3 7.3 C 0 km/h
1549 19-11-2008 00:33:02 7.2 C 7.14 g/m*3 7.2 C 0 km/h
1550 19-11-2008 00:45:01 7 C 7.05 g/m*3 7 C 0 km/h
Sensor: Nr:Datum:Temp:Abs-Feuchte:Windchill:Wind:
Aussen-T/F 1551 19-11-2008 00:57:01 7.3 C 7.19 g/m*3 7.3 C 0 km/h
1552 19-11-2008 01:09:02 7.2 C 6.99 g/m*3 7.2 C 0 km/h
1553 19-11-2008 01:21:01 7 C 6.9 g/m*3 7 C 0 km/h
1554 19-11-2008 01:33:02 7.5 C 7.04 g/m*3 7.5 C 0 km/h
1555 19-11-2008 01:45:02 7.6 C 6.85 g/m*3 7.6 C 0 km/h
1556 19-11-2008 01:57:02 7.9 C 6.82 g/m*3 7.9 C 0 km/h
1557 19-11-2008 02:09:02 7.6 C 6.44 g/m*3 7.6 C 0 km/h
1558 19-11-2008 02:21:02 7.5 C 6.4 g/m*3 7.5 C 0 km/h
1559 19-11-2008 02:33:02 7.3 C 6.4 g/m*3 7.3 C 0 km/h
1560 19-11-2008 02:45:01 7.1 C 6.4 g/m*3 7.1 C 0 km/h
1561 19-11-2008 02:57:01 6.7 C 6.38 g/m*3 6.7 C 0 km/h
1562 19-11-2008 03:09:01 6.4 C 6.41 g/m*3 6.4 C 0 km/h
1563 19-11-2008 03:21:01 6 C 6.24 g/m*3 6 C 0 km/h
1564 19-11-2008 03:33:02 5.8 C 6.3 g/m*3 5.8 C 0 km/h
1565 19-11-2008 03:45:02 5.6 C 6.22 g/m*3 5.6 C 0 km/h
1566 19-11-2008 03:57:02 5.7 C 6.33 g/m*3 5.7 C 0 km/h
1567 19-11-2008 04:09:01 5.6 C 6.29 g/m*3 5.6 C 0 km/h
1568 19-11-2008 04:21:02 5.5 C 6.32 g/m*3 5.5 C 0 km/h
1569 19-11-2008 04:33:01 5.1 C 6.09 g/m*3 5.1 C 0 km/h
1570 19-11-2008 04:45:01 4.8 C 6.04 g/m*3 4.8 C 0 km/h
1571 19-11-2008 04:57:01 4.6 C 6.02 g/m*3 4.6 C 0 km/h
1572 19-11-2008 05:09:01 4.4 C 5.94 g/m*3 4.4 C 0 km/h
1573 19-11-2008 05:21:02 4.3 C 5.9 g/m*3 4.3 C 0 km/h
1574 19-11-2008 05:33:01 4.4 C 6.01 g/m*3 4.4 C 0 km/h
1575 19-11-2008 05:45:01 4.5 C 6.05 g/m*3 4.5 C 0 km/h
Sensor: Nr:Datum:Temp:Abs-Feuchte:Windchill:Wind:
Aussen-T/F 1576 19-11-2008 05:57:01 4.8 C 6.17 g/m*3 4.8 C 0 km/h
1577 19-11-2008 06:09:01 4.8 C 6.17 g/m*3 4.8 C 0 km/h
1578 19-11-2008 06:21:01 4.7 C 6.06 g/m*3 4.7 C 0 km/h
1579 19-11-2008 06:33:01 4.7 C 6 g/m*3 4.7 C 0 km/h
1580 19-11-2008 06:45:01 5 C 5.98 g/m*3 5 C 0 km/h
1581 19-11-2008 06:57:01 5.3 C 5.82 g/m*3 5.3 C 0 km/h
1582 19-11-2008 07:09:02 5.2 C 5.65 g/m*3 5.2 C 0 km/h
1583 19-11-2008 07:21:02 5.3 C 5.68 g/m*3 5.3 C 0 km/h
1584 19-11-2008 07:33:01 5.6 C 5.66 g/m*3 5.6 C 0 km/h
1585 19-11-2008 07:45:01 5.6 C 5.66 g/m*3 5.6 C 0 km/h
1586 19-11-2008 07:57:01 5.6 C 5.66 g/m*3 5.6 C 0 km/h
1587 19-11-2008 08:09:01 5.6 C 5.73 g/m*3 5.6 C 0 km/h
1588 19-11-2008 08:21:01 5.8 C 5.8 g/m*3 5.8 C 0 km/h
1589 19-11-2008 08:33:01 5.9 C 5.77 g/m*3 5.9 C 0 km/h
1590 19-11-2008 08:45:01 6.1 C 5.7 g/m*3 6.1 C 0 km/h
1591 19-11-2008 08:57:01 6.3 C 5.7 g/m*3 6.3 C 0 km/h
1592 19-11-2008 09:09:02 6.7 C 5.7 g/m*3 6.7 C 0 km/h
1593 19-11-2008 09:21:01 6.8 C 5.74 g/m*3 6.8 C 0 km/h
1594 19-11-2008 09:33:01 6.8 C 5.74 g/m*3 6.8 C 0 km/h
1595 19-11-2008 09:45:01 7 C 5.66 g/m*3 7 C 0 km/h
1596 19-11-2008 09:57:01 7.2 C 5.81 g/m*3 7.2 C 0 km/h
1597 19-11-2008 10:09:02 7.4 C 5.73 g/m*3 7.4 C 0 km/h
1598 19-11-2008 10:21:01 7.4 C 5.81 g/m*3 7.4 C 0 km/h
1599 19-11-2008 10:33:02 7.5 C 5.84 g/m*3 7.5 C 0 km/h
1600 19-11-2008 10:45:01 7.6 C 5.88 g/m*3 7.6 C 0 km/h
Sensor: Nr:Datum:Temp:Abs-Feuchte:Windchill:Wind:
Aussen-T/F 1601 19-11-2008 10:57:01 7.8 C 6.04 g/m*3 7.8 C 0 km/h
1602 19-11-2008 11:09:02 7.8 C 5.96 g/m*3 7.8 C 0 km/h
1603 19-11-2008 11:21:01 7.9 C 6 g/m*3 7.9 C 0 km/h
1604 19-11-2008 11:33:02 8.1 C 5.99 g/m*3 8.1 C 0 km/h
1605 19-11-2008 11:45:02 8.5 C 6.06 g/m*3 8.5 C 0 km/h
1606 19-11-2008 11:57:02 8.9 C 6.13 g/m*3 8.9 C 0 km/h
1607 19-11-2008 12:09:01 9.1 C 6.12 g/m*3 9.1 C 0 km/h
1608 19-11-2008 12:21:01 9 C 6.08 g/m*3 9 C 0 km/h
1609 19-11-2008 12:33:01 9.1 C 6.12 g/m*3 9.1 C 0 km/h
1610 19-11-2008 12:45:01 9.6 C 6.32 g/m*3 9.6 C 0 km/h
1611 19-11-2008 12:57:01 9.8 C 6.22 g/m*3 9.8 C 0 km/h
1612 19-11-2008 13:09:02 9.9 C 6.26 g/m*3 9.9 C 0 km/h
1613 19-11-2008 13:21:01 9.9 C 6.16 g/m*3 9.9 C 0 km/h
1614 19-11-2008 13:33:02 10 C 6.01 g/m*3 10 C 0 km/h
1615 19-11-2008 13:45:01 9.9 C 5.98 g/m*3 9.9 C 0 km/h
1616 19-11-2008 13:57:01 10 C 5.92 g/m*3 10 C 0 km/h
1617 19-11-2008 14:09:02 10.2 C 5.9 g/m*3 10.2 C 0 km/h
1618 19-11-2008 14:21:01 10 C 5.83 g/m*3 10 C 0 km/h
1619 19-11-2008 14:33:02 10.2 C 6 g/m*3 10.2 C 0 km/h
1620 19-11-2008 14:45:01 10.2 C 5.8 g/m*3 10.2 C 0 km/h
1621 19-11-2008 14:57:01 10.2 C 5.71 g/m*3 10.2 C 0 km/h
1622 19-11-2008 15:09:02 10.1 C 5.58 g/m*3 10.1 C 0 km/h
1623 19-11-2008 15:21:01 10 C 5.45 g/m*3 10 C 0 km/h
1624 19-11-2008 15:33:02 9.8 C 5.38 g/m*3 9.8 C 0 km/h
1625 19-11-2008 15:45:01 9.7 C 5.53 g/m*3 9.7 C 0 km/h
Sensor: Nr:Datum:Temp:Abs-Feuchte:Windchill:Wind:
Aussen-T/F 1626 19-11-2008 15:57:01 9.7 C 5.44 g/m*3 9.7 C 0 km/h
1627 19-11-2008 16:09:01 9.7 C 5.53 g/m*3 9.7 C 0 km/h
1628 19-11-2008 16:21:01 9.6 C 5.5 g/m*3 9.6 C 0 km/h
1629 19-11-2008 16:33:02 9.5 C 5.55 g/m*3 9.5 C 0 km/h
1630 19-11-2008 16:45:01 9.5 C 5.55 g/m*3 9.5 C 0 km/h
1631 19-11-2008 16:57:02 9.5 C 5.64 g/m*3 9.5 C 0 km/h
1632 19-11-2008 17:09:01 9.3 C 5.66 g/m*3 9.3 C 0 km/h
1633 19-11-2008 17:21:01 9.3 C 5.66 g/m*3 9.3 C 0 km/h
1634 19-11-2008 17:33:01 9.3 C 5.66 g/m*3 9.3 C 0 km/h
1635 19-11-2008 17:45:02 9.3 C 5.66 g/m*3 9.3 C 0 km/h
1636 19-11-2008 17:57:02 9.2 C 5.71 g/m*3 9.2 C 0 km/h
1637 19-11-2008 18:09:01 9.1 C 5.68 g/m*3 9.1 C 0 km/h
1638 19-11-2008 18:21:02 9.1 C 5.77 g/m*3 9.1 C 0 km/h
1639 19-11-2008 18:33:01 9 C 5.73 g/m*3 9 C 0 km/h
1640 19-11-2008 18:45:01 9 C 5.73 g/m*3 9 C 0 km/h
1641 19-11-2008 18:57:01 9 C 5.73 g/m*3 9 C 0 km/h
1642 19-11-2008 19:09:01 8.9 C 5.87 g/m*3 8.9 C 0 km/h
1643 19-11-2008 19:21:01 8.9 C 5.96 g/m*3 8.9 C 0 km/h
1644 19-11-2008 19:33:01 8.8 C 5.92 g/m*3 8.8 C 0 km/h
1645 19-11-2008 19:45:01 8.8 C 6.01 g/m*3 8.8 C 0 km/h
1646 19-11-2008 19:57:01 8.7 C 5.97 g/m*3 8.7 C 0 km/h
1647 19-11-2008 20:09:01 8.7 C 6.05 g/m*3 8.7 C 0 km/h
1648 19-11-2008 20:21:01 8.8 C 6.09 g/m*3 8.8 C 0 km/h
1649 19-11-2008 20:33:01 8.8 C 6.09 g/m*3 8.8 C 0 km/h
1650 19-11-2008 20:45:01 8.7 C 6.05 g/m*3 8.7 C 0 km/h
Sensor: Nr:Datum:Temp:Abs-Feuchte:Windchill:Wind:
Aussen-T/F 1651 19-11-2008 20:57:01 8.8 C 6.18 g/m*3 8.8 C 0 km/h
1652 19-11-2008 21:09:02 8.8 C 6.18 g/m*3 8.8 C 0 km/h
1653 19-11-2008 21:21:01 8.8 C 6.18 g/m*3 8.8 C 0 km/h
1654 19-11-2008 21:33:01 8.8 C 6.27 g/m*3 8.8 C 0 km/h
1655 19-11-2008 21:45:01 8.7 C 6.23 g/m*3 8.7 C 0 km/h
1656 19-11-2008 21:57:01 8.6 C 6.27 g/m*3 8.6 C 0 km/h
1657 19-11-2008 22:09:02 8.6 C 6.27 g/m*3 8.6 C 0 km/h
1658 19-11-2008 22:21:01 8.5 C 6.23 g/m*3 8.5 C 0 km/h
1659 19-11-2008 22:33:01 8.2 C 6.2 g/m*3 8.2 C 0 km/h
1660 19-11-2008 22:45:02 8.5 C 6.23 g/m*3 8.5 C 0 km/h
1661 19-11-2008 22:57:02 8.6 C 6.19 g/m*3 8.6 C 0 km/h
1662 19-11-2008 23:09:01 8.4 C 6.02 g/m*3 8.4 C 0 km/h
1663 19-11-2008 23:21:02 8.2 C 5.95 g/m*3 8.2 C 0 km/h
1664 19-11-2008 23:33:01 8.2 C 5.95 g/m*3 8.2 C 0 km/h
1665 19-11-2008 23:45:02 8.4 C 6.02 g/m*3 8.4 C 0 km/h
1666 19-11-2008 23:57:02 8.4 C 5.94 g/m*3 8.4 C 0 km/h
1667 20-11-2008 00:09:01 8.5 C 5.98 g/m*3 8.5 C 0 km/h
1668 20-11-2008 00:21:02 8.5 C 5.98 g/m*3 8.5 C 0 km/h
1669 20-11-2008 00:33:01 8.4 C 6.02 g/m*3 8.4 C 0 km/h
1670 20-11-2008 00:45:01 8.3 C 6.07 g/m*3 8.3 C 0 km/h
1671 20-11-2008 00:57:01 8.5 C 6.06 g/m*3 8.5 C 0 km/h
1672 20-11-2008 01:09:02 8.5 C 5.98 g/m*3 8.5 C 0 km/h
1673 20-11-2008 01:21:01 8.2 C 5.95 g/m*3 8.2 C 0 km/h
1674 20-11-2008 01:33:01 8.4 C 6.02 g/m*3 8.4 C 0 km/h
1675 20-11-2008 01:45:01 8.5 C 5.98 g/m*3 8.5 C 0 km/h
Sensor: Nr:Datum:Temp:Abs-Feuchte:Windchill:Wind:
Aussen-T/F 1676 20-11-2008 01:57:01 8.5 C 5.89 g/m*3 8.5 C 0 km/h
1677 20-11-2008 02:09:02 8.5 C 5.89 g/m*3 8.5 C 0 km/h
1678 20-11-2008 02:21:01 8.2 C 5.95 g/m*3 8.2 C 0 km/h
1679 20-11-2008 02:33:02 8.3 C 6.07 g/m*3 8.3 C 0 km/h
1680 20-11-2008 02:46:05 8.5 C 6.06 g/m*3 8.5 C 0 km/h
1681 20-11-2008 02:58:05 8.7 C 6.14 g/m*3 8.7 C 0 km/h
1682 20-11-2008 03:10:05 8.9 C 6.13 g/m*3 8.9 C 0 km/h
1683 20-11-2008 03:22:05 8.9 C 6.13 g/m*3 8.9 C 0 km/h
1684 20-11-2008 03:34:02 9.2 C 6.16 g/m*3 9.2 C 0 km/h
1685 20-11-2008 03:46:02 9.1 C 6.12 g/m*3 9.1 C 0 km/h
1686 20-11-2008 03:58:02 9.2 C 6.07 g/m*3 9.2 C 0 km/h
1687 20-11-2008 04:10:02 9.2 C 6.07 g/m*3 9.2 C 0 km/h
1688 20-11-2008 04:22:02 9.2 C 6.16 g/m*3 9.2 C 0 km/h
1689 20-11-2008 04:34:02 9.2 C 6.25 g/m*3 9.2 C 0 km/h
1690 20-11-2008 04:46:01 9.3 C 6.29 g/m*3 9.3 C 0 km/h
1691 20-11-2008 04:58:01 9.3 C 6.29 g/m*3 9.3 C 0 km/h
1692 20-11-2008 05:10:02 9.3 C 6.29 g/m*3 9.3 C 0 km/h
1693 20-11-2008 05:22:02 9.4 C 6.33 g/m*3 9.4 C 0 km/h
1694 20-11-2008 05:34:02 9.4 C 6.33 g/m*3 9.4 C 0 km/h
1695 20-11-2008 05:46:01 9.4 C 6.33 g/m*3 9.4 C 0 km/h
1696 20-11-2008 05:58:01 9.4 C 6.42 g/m*3 9.4 C 0 km/h
1697 20-11-2008 06:10:02 9.4 C 6.42 g/m*3 9.4 C 0 km/h
1698 20-11-2008 06:22:01 9.4 C 6.42 g/m*3 9.4 C 0 km/h
1699 20-11-2008 06:34:02 9.3 C 6.38 g/m*3 9.3 C 0 km/h
1700 20-11-2008 06:46:01 9.4 C 6.42 g/m*3 9.4 C 0 km/h
Sensor: Nr:Datum:Temp:Abs-Feuchte:Windchill:Wind:
Aussen-T/F 1701 20-11-2008 06:58:01 9.6 C 6.5 g/m*3 9.6 C 0 km/h
1702 20-11-2008 07:10:02 9.7 C 6.45 g/m*3 9.7 C 0 km/h
1703 20-11-2008 07:22:02 9.8 C 6.49 g/m*3 9.8 C 0 km/h
1704 20-11-2008 07:34:03 9.8 C 6.49 g/m*3 9.8 C 0 km/h
1705 20-11-2008 07:46:02 9.4 C 6.6 g/m*3 9.4 C 0 km/h
1706 20-11-2008 07:58:02 9.6 C 6.69 g/m*3 9.6 C 0 km/h
1707 20-11-2008 08:10:03 9.7 C 6.64 g/m*3 9.7 C 0 km/h
1708 20-11-2008 08:22:02 9.8 C 6.59 g/m*3 9.8 C 0 km/h
1709 20-11-2008 08:34:02 9.9 C 6.54 g/m*3 9.9 C 0 km/h
1710 20-11-2008 08:46:02 9.9 C 6.54 g/m*3 9.9 C 0 km/h
1711 20-11-2008 08:58:02 9.9 C 6.54 g/m*3 9.9 C 0 km/h
1712 20-11-2008 09:10:01 10 C 6.39 g/m*3 10 C 0 km/h
1713 20-11-2008 09:22:02 10.1 C 6.52 g/m*3 10.1 C 0 km/h
1714 20-11-2008 09:34:02 10.2 C 6.57 g/m*3 10.2 C 0 km/h
1715 20-11-2008 09:46:02 10.2 C 6.66 g/m*3 10.2 C 0 km/h
1716 20-11-2008 09:58:02 10.1 C 6.71 g/m*3 10.1 C 0 km/h
1717 20-11-2008 10:10:02 10 C 6.77 g/m*3 10 C 0 km/h
1718 20-11-2008 10:22:02 10 C 6.86 g/m*3 10 C 0 km/h
1719 20-11-2008 10:34:02 10.2 C 6.95 g/m*3 10.2 C 0 km/h
1720 20-11-2008 10:46:02 10.2 C 6.95 g/m*3 10.2 C 0 km/h
1721 20-11-2008 10:58:02 10.2 C 6.95 g/m*3 10.2 C 0 km/h
1722 20-11-2008 11:10:02 10.1 C 7 g/m*3 10.1 C 0 km/h
1723 20-11-2008 11:22:02 9.9 C 7.28 g/m*3 9.9 C 0 km/h
1724 20-11-2008 11:34:01 10 C 7.24 g/m*3 10 C 0 km/h
1725 20-11-2008 11:46:02 9.9 C 7.38 g/m*3 9.9 C 0 km/h
Sensor: Nr:Datum:Temp:Abs-Feuchte:Windchill:Wind:
Aussen-T/F 1726 20-11-2008 11:58:02 9.8 C 7.42 g/m*3 9.8 C 0 km/h
1727 20-11-2008 12:10:02 10 C 7.33 g/m*3 10 C 0 km/h
1728 20-11-2008 12:22:01 10 C 7.24 g/m*3 10 C 0 km/h
1729 20-11-2008 12:34:01 10.1 C 7.19 g/m*3 10.1 C 0 km/h
1730 20-11-2008 12:46:01 10.1 C 7.19 g/m*3 10.1 C 0 km/h
1731 20-11-2008 12:58:01 9.6 C 7.42 g/m*3 9.6 C 0 km/h
1732 20-11-2008 13:10:02 9.5 C 7.65 g/m*3 9.5 C 0 km/h
1733 20-11-2008 13:22:01 9.5 C 7.74 g/m*3 9.5 C 0 km/h
1734 20-11-2008 13:34:02 9.6 C 7.79 g/m*3 9.6 C 0 km/h
1735 20-11-2008 13:46:02 9.8 C 7.7 g/m*3 9.8 C 0 km/h
1736 20-11-2008 13:58:02 10 C 7.52 g/m*3 10 C 0 km/h
1737 20-11-2008 14:10:02 10.1 C 7.56 g/m*3 10.1 C 0 km/h
1738 20-11-2008 14:22:02 10 C 7.52 g/m*3 10 C 0 km/h
1739 20-11-2008 14:34:02 10 C 7.52 g/m*3 10 C 0 km/h
1740 20-11-2008 14:46:02 10.2 C 7.61 g/m*3 10.2 C 0 km/h
1741 20-11-2008 14:58:02 10.5 C 7.37 g/m*3 10.5 C 0 km/h
1742 20-11-2008 15:10:03 10.8 C 7.22 g/m*3 10.8 C 0 km/h
1743 20-11-2008 15:22:02 11 C 6.91 g/m*3 11 C 0 km/h
1744 20-11-2008 15:34:03 11.1 C 6.45 g/m*3 11.1 C 0 km/h
1745 20-11-2008 15:46:02 11.3 C 6.22 g/m*3 11.3 C 0 km/h
1746 20-11-2008 15:58:02 11.3 C 6.02 g/m*3 11.3 C 0 km/h
1747 20-11-2008 16:10:01 11.3 C 5.92 g/m*3 11.3 C 0 km/h
1748 20-11-2008 16:22:02 11.2 C 5.98 g/m*3 11.2 C 0 km/h
1749 20-11-2008 16:34:02 11.1 C 6.04 g/m*3 11.1 C 0 km/h
1750 20-11-2008 16:46:02 10.9 C 6.37 g/m*3 10.9 C 0 km/h
Sensor: Nr:Datum:Temp:Abs-Feuchte:Windchill:Wind:
Aussen-T/F 1751 20-11-2008 16:58:02 10.8 C 6.62 g/m*3 10.8 C 0 km/h
1752 20-11-2008 17:10:02 10.7 C 6.68 g/m*3 10.7 C 0 km/h
1753 20-11-2008 17:22:02 10.6 C 6.83 g/m*3 10.6 C 0 km/h
1754 20-11-2008 17:34:02 10.4 C 6.94 g/m*3 10.4 C 0 km/h
1755 20-11-2008 17:46:02 10.3 C 6.99 g/m*3 10.3 C 0 km/h
1756 20-11-2008 17:58:02 10.3 C 6.99 g/m*3 10.3 C 0 km/h
1757 20-11-2008 18:10:02 10 C 7.05 g/m*3 10 C 0 km/h
1758 20-11-2008 18:22:02 9.6 C 7.42 g/m*3 9.6 C 0 km/h
1759 20-11-2008 18:34:02 9.3 C 7.64 g/m*3 9.3 C 0 km/h
1760 20-11-2008 18:46:01 9 C 7.49 g/m*3 9 C 0 km/h
1761 20-11-2008 18:58:01 8.9 C 7.62 g/m*3 8.9 C 0 km/h
1762 20-11-2008 19:10:02 8.7 C 7.7 g/m*3 8.7 C 0 km/h
1763 20-11-2008 19:22:02 8.6 C 7.39 g/m*3 8.6 C 0 km/h
1764 20-11-2008 19:34:02 9 C 6.88 g/m*3 9 C 0 km/h
1765 20-11-2008 19:46:02 9.1 C 6.74 g/m*3 9.1 C 0 km/h
1766 20-11-2008 19:58:02 9 C 6.7 g/m*3 9 C 0 km/h
1767 20-11-2008 20:10:02 9.2 C 6.43 g/m*3 9.2 C 0 km/h
1768 20-11-2008 20:22:01 9.2 C 6.16 g/m*3 9.2 C 0 km/h
1769 20-11-2008 20:34:02 9.3 C 6.2 g/m*3 9.3 C 0 km/h
1770 20-11-2008 20:46:02 9.3 C 6.11 g/m*3 9.3 C 0 km/h
1771 20-11-2008 20:58:02 9.3 C 6.11 g/m*3 9.3 C 0 km/h
1772 20-11-2008 21:10:02 9.3 C 6.02 g/m*3 9.3 C 0 km/h
1773 20-11-2008 21:22:02 9.4 C 5.97 g/m*3 9.4 C 0 km/h
1774 20-11-2008 21:34:02 9 C 6.17 g/m*3 9 C 0 km/h
1775 20-11-2008 21:46:02 8.7 C 6.31 g/m*3 8.7 C 0 km/h
Sensor: Nr:Datum:Temp:Abs-Feuchte:Windchill:Wind:
Aussen-T/F 1776 20-11-2008 21:58:02 8.8 C 6.35 g/m*3 8.8 C 0 km/h
1777 20-11-2008 22:10:03 9.1 C 5.94 g/m*3 9.1 C 0 km/h
1778 20-11-2008 22:23:02 9 C 6.08 g/m*3 9 C 0 km/h
1779 20-11-2008 22:35:02 9.1 C 6.03 g/m*3 9.1 C 0 km/h
1780 20-11-2008 22:47:02 8.9 C 6.13 g/m*3 8.9 C 0 km/h
1781 20-11-2008 22:59:02 8.9 C 6.04 g/m*3 8.9 C 0 km/h
1782 20-11-2008 23:11:02 9.1 C 5.94 g/m*3 9.1 C 0 km/h
1783 20-11-2008 23:23:02 8.9 C 5.96 g/m*3 8.9 C 0 km/h
1784 20-11-2008 23:35:02 8.9 C 5.96 g/m*3 8.9 C 0 km/h
1785 20-11-2008 23:47:02 8.8 C 5.92 g/m*3 8.8 C 0 km/h
1786 20-11-2008 23:59:02 8.9 C 6.04 g/m*3 8.9 C 0 km/h
1787 21-11-2008 00:11:02 8.8 C 6.01 g/m*3 8.8 C 0 km/h
1788 21-11-2008 00:23:02 8.9 C 5.96 g/m*3 8.9 C 0 km/h
1789 21-11-2008 00:35:02 8.9 C 5.78 g/m*3 8.9 C 0 km/h
1790 21-11-2008 00:47:02 8.6 C 5.76 g/m*3 8.6 C 0 km/h
1791 21-11-2008 00:59:02 8.8 C 5.83 g/m*3 8.8 C 0 km/h
1792 21-11-2008 01:11:02 8.9 C 5.87 g/m*3 8.9 C 0 km/h
1793 21-11-2008 01:23:02 9 C 5.82 g/m*3 9 C 0 km/h
1794 21-11-2008 01:35:02 8.9 C 5.96 g/m*3 8.9 C 0 km/h
1795 21-11-2008 01:47:02 8.9 C 5.96 g/m*3 8.9 C 0 km/h
1796 21-11-2008 01:59:02 8.9 C 5.96 g/m*3 8.9 C 0 km/h
1797 21-11-2008 02:11:02 8.9 C 5.87 g/m*3 8.9 C 0 km/h
1798 21-11-2008 02:23:02 8.9 C 5.78 g/m*3 8.9 C 0 km/h
1799 21-11-2008 02:35:03 8.9 C 5.69 g/m*3 8.9 C 0 km/h
1800 21-11-2008 02:47:03 9 C 5.64 g/m*3 9 C 0 km/h
Sensor: Nr:Datum:Temp:Abs-Feuchte:Windchill:Wind:
Aussen-T/F 1801 21-11-2008 02:59:03 8.8 C 5.83 g/m*3 8.8 C 0 km/h
1802 21-11-2008 03:11:03 8.7 C 5.88 g/m*3 8.7 C 0 km/h
1803 21-11-2008 03:23:03 8.6 C 5.84 g/m*3 8.6 C 0 km/h
1804 21-11-2008 03:35:03 8.5 C 5.89 g/m*3 8.5 C 0 km/h
1805 21-11-2008 03:47:03 8.6 C 5.84 g/m*3 8.6 C 0 km/h
1806 21-11-2008 03:59:03 8.3 C 6.07 g/m*3 8.3 C 0 km/h
1807 21-11-2008 04:11:03 7.8 C 6.28 g/m*3 7.8 C 0 km/h
1808 21-11-2008 04:23:03 7.5 C 6.32 g/m*3 7.5 C 0 km/h
1809 21-11-2008 04:35:03 7.9 C 6.24 g/m*3 7.9 C 0 km/h
1810 21-11-2008 04:47:03 8.1 C 6.07 g/m*3 8.1 C 0 km/h
1811 21-11-2008 04:59:03 8 C 6.2 g/m*3 8 C 0 km/h
1812 21-11-2008 05:11:03 8 C 6.12 g/m*3 8 C 0 km/h
1813 21-11-2008 05:23:03 8.1 C 6.24 g/m*3 8.1 C 0 km/h
1814 21-11-2008 05:35:03 7.8 C 6.45 g/m*3 7.8 C 0 km/h
1815 21-11-2008 05:47:03 7.6 C 6.53 g/m*3 7.6 C 0 km/h
1816 21-11-2008 05:59:03 7.5 C 6.56 g/m*3 7.5 C 0 km/h
1817 21-11-2008 06:11:03 7.4 C 6.6 g/m*3 7.4 C 0 km/h
1818 21-11-2008 06:23:03 7.5 C 6.64 g/m*3 7.5 C 0 km/h
1819 21-11-2008 06:35:04 7.5 C 6.56 g/m*3 7.5 C 0 km/h
1820 21-11-2008 06:47:04 7.5 C 6.56 g/m*3 7.5 C 0 km/h
1821 21-11-2008 06:59:04 7.5 C 6.56 g/m*3 7.5 C 0 km/h
1822 21-11-2008 07:11:03 7.6 C 6.53 g/m*3 7.6 C 0 km/h
1823 21-11-2008 07:23:03 7.8 C 6.53 g/m*3 7.8 C 0 km/h
1824 21-11-2008 07:35:02 8 C 6.37 g/m*3 8 C 0 km/h
1825 21-11-2008 07:47:02 8.1 C 6.24 g/m*3 8.1 C 0 km/h
Sensor: Nr:Datum:Temp:Abs-Feuchte:Windchill:Wind:
Aussen-T/F 1826 21-11-2008 07:59:02 8.2 C 6.11 g/m*3 8.2 C 0 km/h
1827 21-11-2008 08:11:02 8.5 C 6.06 g/m*3 8.5 C 0 km/h
1828 21-11-2008 08:23:02 8.7 C 5.88 g/m*3 8.7 C 0 km/h
1829 21-11-2008 08:35:02 8.7 C 5.79 g/m*3 8.7 C 0 km/h
1830 21-11-2008 08:47:01 6.4 C 5.81 g/m*3 6.4 C 0 km/h
1831 21-11-2008 08:59:01 6.5 C 6.07 g/m*3 6.5 C 0 km/h
1832 21-11-2008 09:11:02 6.9 C 6.16 g/m*3 6.9 C 0 km/h
1833 21-11-2008 09:23:01 7.5 C 6.16 g/m*3 7.5 C 0 km/h
1834 21-11-2008 09:35:01 7.4 C 5.65 g/m*3 7.4 C 0 km/h
1835 21-11-2008 09:47:01 5.8 C 5.73 g/m*3 5.8 C 0 km/h
1836 21-11-2008 09:59:01 5.7 C 5.91 g/m*3 5.7 C 0 km/h
1837 21-11-2008 10:11:02 6.3 C 6.14 g/m*3 6.3 C 0 km/h
1838 21-11-2008 10:23:01 6.6 C 6.19 g/m*3 6.6 C 0 km/h
1839 21-11-2008 10:35:02 4.9 C 5.67 g/m*3 4.9 C 0 km/h
1840 21-11-2008 10:47:02 4.6 C 5.76 g/m*3 4.6 C 0 km/h
1841 21-11-2008 10:59:02 4.8 C 5.9 g/m*3 4.8 C 0 km/h
1842 21-11-2008 11:11:02 5 C 5.84 g/m*3 5 C 0 km/h
1843 21-11-2008 11:23:02 5.2 C 5.85 g/m*3 5.2 C 0 km/h
1844 21-11-2008 11:35:02 5.2 C 5.78 g/m*3 5.2 C 0 km/h
1845 21-11-2008 11:47:01 5.2 C 5.78 g/m*3 5.2 C 0 km/h
1846 21-11-2008 11:59:01 5.4 C 5.44 g/m*3 5.4 C 0 km/h
1847 21-11-2008 12:11:02 5.4 C 4.81 g/m*3 5.4 C 0 km/h
1848 21-11-2008 12:23:01 5.9 C 4.83 g/m*3 5.9 C 0 km/h
1849 21-11-2008 12:35:02 6.6 C 4.91 g/m*3 6.6 C 0 km/h
1850 21-11-2008 12:47:02 7 C 4.49 g/m*3 7 C 0 km/h
Sensor: Nr:Datum:Temp:Abs-Feuchte:Windchill:Wind:
Aussen-T/F 1851 21-11-2008 12:59:02 6.6 C 4.38 g/m*3 6.6 C 0 km/h
1852 21-11-2008 13:11:01 5.9 C 4.61 g/m*3 5.9 C 0 km/h
1853 21-11-2008 13:23:02 6.3 C 4.37 g/m*3 6.3 C 0 km/h
1854 21-11-2008 13:35:02 6.6 C 3.93 g/m*3 6.6 C 0 km/h
1855 21-11-2008 13:47:01 5.3 C 4.37 g/m*3 5.3 C 0 km/h
1856 21-11-2008 13:59:02 5.1 C 4.31 g/m*3 5.1 C 0 km/h
1857 21-11-2008 14:11:01 5.5 C 4.07 g/m*3 5.5 C 0 km/h
1858 21-11-2008 14:23:01 5.7 C 3.77 g/m*3 5.7 C 0 km/h
1859 21-11-2008 14:35:02 5.4 C 3.77 g/m*3 5.4 C 0 km/h
1860 21-11-2008 14:47:02 5.3 C 3.74 g/m*3 5.3 C 0 km/h
1861 21-11-2008 14:59:02 5.1 C 3.69 g/m*3 5.1 C 0 km/h
1862 21-11-2008 15:11:02 5.1 C 3.76 g/m*3 5.1 C 0 km/h
1863 21-11-2008 15:23:02 2.6 C 4.34 g/m*3 2.6 C 0 km/h
1864 21-11-2008 15:35:02 2 C 4.56 g/m*3 2 C 0 km/h
1865 21-11-2008 15:47:02 2.1 C 4.87 g/m*3 2.1 C 0 km/h
1866 21-11-2008 15:59:02 2.1 C 4.92 g/m*3 2.1 C 0 km/h
1867 21-11-2008 16:11:02 2.2 C 5.01 g/m*3 2.2 C 0 km/h
1868 21-11-2008 16:23:02 2.4 C 5.08 g/m*3 2.4 C 0 km/h
1869 21-11-2008 16:35:03 2.2 C 4.9 g/m*3 2.2 C 0 km/h
1870 21-11-2008 16:47:02 2.3 C 4.76 g/m*3 2.3 C 0 km/h
1871 21-11-2008 16:59:02 2.5 C 4.66 g/m*3 2.5 C 0 km/h
1872 21-11-2008 17:11:02 2.3 C 4.48 g/m*3 2.3 C 0 km/h
1873 21-11-2008 17:23:02 2.6 C 4.57 g/m*3 2.6 C 0 km/h
1874 21-11-2008 17:35:02 2.6 C 4.57 g/m*3 2.6 C 0 km/h
1875 21-11-2008 17:47:02 2.1 C 4.53 g/m*3 2.1 C 0 km/h
Sensor: Nr:Datum:Temp:Abs-Feuchte:Windchill:Wind:
Aussen-T/F 1876 21-11-2008 17:59:02 2.4 C 4.68 g/m*3 2.4 C 0 km/h
1877 21-11-2008 18:11:02 2.2 C 4.39 g/m*3 2.2 C 0 km/h
1878 21-11-2008 18:23:02 2.3 C 4.37 g/m*3 2.3 C 0 km/h
1879 21-11-2008 18:35:02 2.2 C 4.39 g/m*3 2.2 C 0 km/h
1880 21-11-2008 18:47:02 2.1 C 4.53 g/m*3 2.1 C 0 km/h
1881 21-11-2008 18:59:02 1.7 C 4.46 g/m*3 1.7 C 0 km/h
1882 21-11-2008 19:11:01 1.3 C 4.56 g/m*3 1.3 C 0 km/h
1883 21-11-2008 19:23:02 1.3 C 4.61 g/m*3 1.3 C 0 km/h
1884 21-11-2008 19:35:02 1 C 4.52 g/m*3 1 C 0 km/h
1885 21-11-2008 19:47:02 0.7 C 4.47 g/m*3 0.7 C 0 km/h
1886 21-11-2008 19:59:02 0.7 C 4.53 g/m*3 0.7 C 0 km/h
1887 21-11-2008 20:11:02 1 C 4.67 g/m*3 1 C 0 km/h
1888 21-11-2008 20:23:02 1.1 C 4.76 g/m*3 1.1 C 0 km/h
1889 21-11-2008 20:35:02 1 C 4.72 g/m*3 1 C 0 km/h
1890 21-11-2008 20:47:02 0.9 C 4.74 g/m*3 0.9 C 0 km/h
1891 21-11-2008 20:59:02 1.1 C 4.6 g/m*3 1.1 C 0 km/h
1892 21-11-2008 21:11:02 1.1 C 4.39 g/m*3 1.1 C 0 km/h
1893 21-11-2008 21:23:02 1.2 C 4.21 g/m*3 1.2 C 0 km/h
1894 21-11-2008 21:35:02 1.2 C 4.1 g/m*3 1.2 C 0 km/h
1895 21-11-2008 21:47:02 1.3 C 4.08 g/m*3 1.3 C 0 km/h
1896 21-11-2008 21:59:02 1.4 C 4.05 g/m*3 1.4 C 0 km/h
1897 21-11-2008 22:11:03 1.4 C 4.11 g/m*3 1.4 C 0 km/h
1898 21-11-2008 22:23:02 1.6 C 4.16 g/m*3 1.6 C 0 km/h
1899 21-11-2008 22:35:03 1.5 C 4.24 g/m*3 1.5 C 0 km/h
1900 21-11-2008 22:47:02 1.5 C 4.3 g/m*3 1.5 C 0 km/h
Sensor: Nr:Datum:Temp:Abs-Feuchte:Windchill:Wind:
Aussen-T/F 1901 21-11-2008 22:59:02 1.5 C 4.3 g/m*3 1.5 C 0 km/h
1902 21-11-2008 23:11:02 1.7 C 4.3 g/m*3 1.7 C 0 km/h
1903 21-11-2008 23:23:01 1.8 C 4.33 g/m*3 1.8 C 0 km/h
1904 21-11-2008 23:35:02 1.8 C 4.33 g/m*3 1.8 C 0 km/h
1905 21-11-2008 23:47:02 2 C 4.28 g/m*3 2 C 0 km/h
1906 21-11-2008 23:59:02 2 C 4.22 g/m*3 2 C 0 km/h
1907 22-11-2008 00:11:01 2.2 C 4.11 g/m*3 2.2 C 0 km/h
1908 22-11-2008 00:23:01 2.1 C 4.2 g/m*3 2.1 C 0 km/h
1909 22-11-2008 00:35:01 1.6 C 4.33 g/m*3 1.6 C 0 km/h
1910 22-11-2008 00:48:03 1.2 C 4.42 g/m*3 1.2 C 0 km/h
1911 22-11-2008 01:00:03 0.6 C 4.39 g/m*3 0.6 C 0 km/h
1912 22-11-2008 01:12:03 0.4 C 4.43 g/m*3 0.4 C 0 km/h
1913 22-11-2008 01:24:03 0.3 C 4.45 g/m*3 0.3 C 0 km/h
1914 22-11-2008 01:36:03 0.1 C 4.44 g/m*3 0.1 C 0 km/h
1915 22-11-2008 01:48:03 0 C 4.41 g/m*3 0 C 0 km/h
1916 22-11-2008 02:00:03 0 C 4.41 g/m*3 0 C 0 km/h
1917 22-11-2008 02:12:03 0 C 4.41 g/m*3 0 C 0 km/h
1918 22-11-2008 02:24:03 -0.1 C 4.38 g/m*3 -0.1 C 0 km/h
1919 22-11-2008 02:36:04 0 C 4.41 g/m*3 0 C 0 km/h
1920 22-11-2008 02:48:04 0 C 4.41 g/m*3 0 C 0 km/h
1921 22-11-2008 03:00:04 0.1 C 4.39 g/m*3 0.1 C 0 km/h
1922 22-11-2008 03:12:04 0.2 C 4.37 g/m*3 0.2 C 0 km/h
1923 22-11-2008 03:24:04 0.2 C 4.32 g/m*3 0.2 C 0 km/h
1924 22-11-2008 03:36:04 0.4 C 4.28 g/m*3 0.4 C 0 km/h
1925 22-11-2008 03:48:04 0.3 C 4.16 g/m*3 0.3 C 0 km/h
Sensor: Nr:Datum:Temp:Abs-Feuchte:Windchill:Wind:
Aussen-T/F 1926 22-11-2008 04:00:04 0.3 C 4.16 g/m*3 0.3 C 0 km/h
1927 22-11-2008 04:12:04 0.4 C 4.18 g/m*3 0.4 C 0 km/h
1928 22-11-2008 04:24:04 0.5 C 4.16 g/m*3 0.5 C 0 km/h
1929 22-11-2008 04:36:04 0.6 C 4.04 g/m*3 0.6 C 0 km/h
1930 22-11-2008 04:48:04 0.5 C 3.96 g/m*3 0.5 C 0 km/h
1931 22-11-2008 05:00:04 0.4 C 3.93 g/m*3 0.4 C 0 km/h
1932 22-11-2008 05:12:04 0.5 C 3.86 g/m*3 0.5 C 0 km/h
1933 22-11-2008 05:24:04 0.6 C 3.89 g/m*3 0.6 C 0 km/h
1934 22-11-2008 05:36:04 0.7 C 4.02 g/m*3 0.7 C 0 km/h
1935 22-11-2008 05:48:04 0.3 C 4.11 g/m*3 0.3 C 0 km/h
1936 22-11-2008 06:00:04 -0.1 C 4.19 g/m*3 -0.1 C 0 km/h
1937 22-11-2008 06:12:04 -0.2 C 4.25 g/m*3 -0.2 C 0 km/h
1938 22-11-2008 06:24:04 -0.1 C 4.28 g/m*3 -0.1 C 0 km/h
1939 22-11-2008 06:36:05 0 C 4.26 g/m*3 0 C 0 km/h
1940 22-11-2008 06:48:05 0 C 4.22 g/m*3 0 C 0 km/h
1941 22-11-2008 07:00:05 0.1 C 4.1 g/m*3 0.1 C 0 km/h
1942 22-11-2008 07:12:05 0.1 C 4 g/m*3 0.1 C 0 km/h
1943 22-11-2008 07:24:05 0 C 3.92 g/m*3 0 C 0 km/h
1944 22-11-2008 07:36:05 0.3 C 3.81 g/m*3 0.3 C 0 km/h
1945 22-11-2008 07:48:05 0.2 C 3.78 g/m*3 0.2 C 0 km/h
1946 22-11-2008 08:00:05 0.4 C 3.79 g/m*3 0.4 C 0 km/h
1947 22-11-2008 08:12:05 -0.1 C 3.66 g/m*3 -0.1 C 0 km/h
1948 22-11-2008 08:24:05 -0.2 C 3.68 g/m*3 -0.2 C 0 km/h
1949 22-11-2008 08:36:05 0.2 C 3.73 g/m*3 0.2 C 0 km/h
1950 22-11-2008 08:48:05 0.4 C 3.64 g/m*3 0.4 C 0 km/h
Sensor: Nr:Datum:Temp:Abs-Feuchte:Windchill:Wind:
Aussen-T/F 1951 22-11-2008 09:00:05 0.5 C 3.61 g/m*3 0.5 C 0 km/h
1952 22-11-2008 09:12:03 0.6 C 3.64 g/m*3 0.6 C 0 km/h
1953 22-11-2008 09:24:03 0.8 C 3.74 g/m*3 0.8 C 0 km/h
1954 22-11-2008 09:36:03 0.9 C 3.71 g/m*3 0.9 C 0 km/h
1955 22-11-2008 09:48:02 0.7 C 3.71 g/m*3 0.7 C 0 km/h
1956 22-11-2008 10:00:02 0.7 C 3.71 g/m*3 0.7 C 0 km/h
1957 22-11-2008 10:12:03 0.8 C 3.74 g/m*3 0.8 C 0 km/h
1958 22-11-2008 10:24:02 1 C 3.63 g/m*3 1 C 0 km/h
1959 22-11-2008 10:36:03 1.2 C 3.63 g/m*3 1.2 C 0 km/h
1960 22-11-2008 10:48:02 1.5 C 3.65 g/m*3 1.5 C 0 km/h
1961 22-11-2008 11:00:02 1.6 C 3.62 g/m*3 1.6 C 0 km/h
1962 22-11-2008 11:12:02 1.5 C 3.6 g/m*3 1.5 C 0 km/h
1963 22-11-2008 11:24:02 1.5 C 3.65 g/m*3 1.5 C 0 km/h
1964 22-11-2008 11:36:01 1.9 C 3.7 g/m*3 1.9 C 0 km/h
1965 22-11-2008 11:48:02 2.1 C 3.64 g/m*3 2.1 C 0 km/h
1966 22-11-2008 12:00:02 1.7 C 3.81 g/m*3 1.7 C 0 km/h
1967 22-11-2008 12:12:01 1 C 4.1 g/m*3 1 C 0 km/h
1968 22-11-2008 12:24:02 1.7 C 4.03 g/m*3 1.7 C 0 km/h
1969 22-11-2008 12:36:01 1.9 C 3.86 g/m*3 1.9 C 0 km/h
1970 22-11-2008 12:48:02 2.2 C 3.72 g/m*3 2.2 C 0 km/h
1971 22-11-2008 13:00:02 2.2 C 3.72 g/m*3 2.2 C 0 km/h
1972 22-11-2008 13:12:01 2.3 C 3.69 g/m*3 2.3 C 0 km/h
1973 22-11-2008 13:24:02 2.2 C 3.72 g/m*3 2.2 C 0 km/h
1974 22-11-2008 13:36:01 2 C 3.67 g/m*3 2 C 0 km/h
1975 22-11-2008 13:48:01 2.2 C 3.72 g/m*3 2.2 C 0 km/h
Sensor: Nr:Datum:Temp:Abs-Feuchte:Windchill:Wind:
Aussen-T/F 1976 22-11-2008 14:00:01 2.2 C 3.72 g/m*3 2.2 C 0 km/h
1977 22-11-2008 14:12:02 2.3 C 3.63 g/m*3 2.3 C 0 km/h
1978 22-11-2008 14:24:02 2.5 C 3.74 g/m*3 2.5 C 0 km/h
1979 22-11-2008 14:36:01 2.6 C 3.59 g/m*3 2.6 C 0 km/h
1980 22-11-2008 14:48:02 2.5 C 3.39 g/m*3 2.5 C 0 km/h
1981 22-11-2008 15:00:02 2.6 C 3.47 g/m*3 2.6 C 0 km/h
1982 22-11-2008 15:12:02 2.5 C 3.33 g/m*3 2.5 C 0 km/h
1983 22-11-2008 15:24:01 2.5 C 3.28 g/m*3 2.5 C 0 km/h
1984 22-11-2008 15:36:02 2.2 C 3.27 g/m*3 2.2 C 0 km/h
1985 22-11-2008 15:48:02 2.2 C 3.27 g/m*3 2.2 C 0 km/h
1986 22-11-2008 16:00:02 2.4 C 3.2 g/m*3 2.4 C 0 km/h
1987 22-11-2008 16:12:02 2.3 C 3.23 g/m*3 2.3 C 0 km/h
1988 22-11-2008 16:24:02 2.1 C 3.3 g/m*3 2.1 C 0 km/h
1989 22-11-2008 16:36:03 1.8 C 3.4 g/m*3 1.8 C 0 km/h
1990 22-11-2008 16:48:02 1.6 C 3.46 g/m*3 1.6 C 0 km/h
1991 22-11-2008 17:00:02 1.3 C 3.44 g/m*3 1.3 C 0 km/h
1992 22-11-2008 17:12:03 1.3 C 3.5 g/m*3 1.3 C 0 km/h
1993 22-11-2008 17:24:02 1.5 C 3.54 g/m*3 1.5 C 0 km/h
1994 22-11-2008 17:36:03 1.5 C 3.54 g/m*3 1.5 C 0 km/h
1995 22-11-2008 17:48:02 1.5 C 3.54 g/m*3 1.5 C 0 km/h
1996 22-11-2008 18:00:02 1.6 C 3.57 g/m*3 1.6 C 0 km/h
1997 22-11-2008 18:12:02 1.7 C 3.54 g/m*3 1.7 C 0 km/h
1998 22-11-2008 18:24:02 1.6 C 3.57 g/m*3 1.6 C 0 km/h
1999 22-11-2008 18:36:02 1.7 C 3.59 g/m*3 1.7 C 0 km/h
2000 22-11-2008 18:48:02 1.6 C 3.62 g/m*3 1.6 C 0 km/h
Sensor: Nr:Datum:Temp:Abs-Feuchte:Windchill:Wind:
Aussen-T/F 2001 22-11-2008 19:00:02 1.7 C 3.54 g/m*3 1.7 C 0 km/h
2002 22-11-2008 19:12:01 1.7 C 3.59 g/m*3 1.7 C 0 km/h
2003 22-11-2008 19:24:02 1.4 C 3.57 g/m*3 1.4 C 0 km/h
2004 22-11-2008 19:36:01 1.4 C 3.63 g/m*3 1.4 C 0 km/h
2005 22-11-2008 19:48:02 1.1 C 3.5 g/m*3 1.1 C 0 km/h
2006 22-11-2008 20:00:02 0.7 C 3.56 g/m*3 0.7 C 0 km/h
2007 22-11-2008 20:12:01 0.9 C 3.61 g/m*3 0.9 C 0 km/h
2008 22-11-2008 20:24:02 1.1 C 3.55 g/m*3 1.1 C 0 km/h
2009 22-11-2008 20:36:01 1.3 C 3.55 g/m*3 1.3 C 0 km/h
2010 22-11-2008 20:48:01 1.3 C 3.6 g/m*3 1.3 C 0 km/h
2011 22-11-2008 21:00:01 1.3 C 3.6 g/m*3 1.3 C 0 km/h
2012 22-11-2008 21:12:02 1.2 C 3.58 g/m*3 1.2 C 0 km/h
2013 22-11-2008 21:24:01 1.1 C 3.55 g/m*3 1.1 C 0 km/h
2014 22-11-2008 21:36:01 1 C 3.53 g/m*3 1 C 0 km/h
2015 22-11-2008 21:48:01 0.9 C 3.56 g/m*3 0.9 C 0 km/h
2016 22-11-2008 22:00:01 0.7 C 3.51 g/m*3 0.7 C 0 km/h
2017 22-11-2008 22:12:02 0.8 C 3.58 g/m*3 0.8 C 0 km/h
2018 22-11-2008 22:24:01 0.8 C 3.58 g/m*3 0.8 C 0 km/h
2019 22-11-2008 22:36:02 1 C 3.53 g/m*3 1 C 0 km/h
2020 22-11-2008 22:48:02 1.1 C 3.5 g/m*3 1.1 C 0 km/h
2021 22-11-2008 23:00:02 1 C 3.53 g/m*3 1 C 0 km/h
2022 22-11-2008 23:12:03 1 C 3.53 g/m*3 1 C 0 km/h
2023 22-11-2008 23:24:02 1.1 C 3.5 g/m*3 1.1 C 0 km/h
2024 22-11-2008 23:36:02 1 C 3.53 g/m*3 1 C 0 km/h
2025 22-11-2008 23:48:02 0.9 C 3.61 g/m*3 0.9 C 0 km/h
Sensor: Nr:Datum:Temp:Abs-Feuchte:Windchill:Wind:
Aussen-T/F 2026 23-11-2008 00:00:02 0.8 C 3.58 g/m*3 0.8 C 0 km/h
2027 23-11-2008 00:12:02 0.9 C 3.61 g/m*3 0.9 C 0 km/h
2028 23-11-2008 00:24:02 0.9 C 3.66 g/m*3 0.9 C 0 km/h
2029 23-11-2008 00:36:02 0.8 C 3.74 g/m*3 0.8 C 0 km/h
2030 23-11-2008 00:48:02 0.6 C 3.84 g/m*3 0.6 C 0 km/h
2031 23-11-2008 01:00:02 0.5 C 3.91 g/m*3 0.5 C 0 km/h
2032 23-11-2008 01:12:02 0.4 C 3.93 g/m*3 0.4 C 0 km/h
2033 23-11-2008 01:24:02 0.4 C 3.98 g/m*3 0.4 C 0 km/h
2034 23-11-2008 01:36:02 0.3 C 4.01 g/m*3 0.3 C 0 km/h
2035 23-11-2008 01:48:02 0.1 C 4.05 g/m*3 0.1 C 0 km/h
2036 23-11-2008 02:00:02 0.1 C 4.1 g/m*3 0.1 C 0 km/h
2037 23-11-2008 02:12:03 0.2 C 4.18 g/m*3 0.2 C 0 km/h
2038 23-11-2008 02:24:02 0.2 C 4.22 g/m*3 0.2 C 0 km/h
2039 23-11-2008 02:36:03 0.1 C 4.24 g/m*3 0.1 C 0 km/h
2040 23-11-2008 02:48:01 0.1 C 4.29 g/m*3 0.1 C 0 km/h
2041 23-11-2008 03:00:01 0.2 C 4.37 g/m*3 0.2 C 0 km/h
2042 23-11-2008 03:12:01 0.2 C 4.42 g/m*3 0.2 C 0 km/h
2043 23-11-2008 03:24:01 0.3 C 4.5 g/m*3 0.3 C 0 km/h
2044 23-11-2008 03:36:01 0.3 C 4.5 g/m*3 0.3 C 0 km/h
2045 23-11-2008 03:48:01 0.3 C 4.5 g/m*3 0.3 C 0 km/h
2046 23-11-2008 04:00:01 0.5 C 4.61 g/m*3 0.5 C 0 km/h
2047 23-11-2008 04:12:02 0.5 C 4.61 g/m*3 0.5 C 0 km/h
2048 23-11-2008 04:24:01 0.5 C 4.61 g/m*3 0.5 C 0 km/h
2049 23-11-2008 04:36:02 0.5 C 4.61 g/m*3 0.5 C 0 km/h
2050 23-11-2008 04:48:01 0.5 C 4.56 g/m*3 0.5 C 0 km/h
Sensor: Nr:Datum:Temp:Abs-Feuchte:Windchill:Wind:
Aussen-T/F 2051 23-11-2008 05:00:01 0.5 C 4.51 g/m*3 0.5 C 0 km/h
2052 23-11-2008 05:12:02 0.6 C 4.49 g/m*3 0.6 C 0 km/h
2053 23-11-2008 05:24:01 0.5 C 4.41 g/m*3 0.5 C 0 km/h
2054 23-11-2008 05:36:02 0.5 C 4.36 g/m*3 0.5 C 0 km/h
2055 23-11-2008 05:48:01 0.5 C 4.36 g/m*3 0.5 C 0 km/h
2056 23-11-2008 06:00:01 0.6 C 4.34 g/m*3 0.6 C 0 km/h
2057 23-11-2008 06:12:02 0.7 C 4.37 g/m*3 0.7 C 0 km/h
2058 23-11-2008 06:24:01 0.7 C 4.37 g/m*3 0.7 C 0 km/h
2059 23-11-2008 06:36:02 0.6 C 4.34 g/m*3 0.6 C 0 km/h
2060 23-11-2008 06:48:01 0.6 C 4.34 g/m*3 0.6 C 0 km/h
2061 23-11-2008 07:00:02 0.6 C 4.39 g/m*3 0.6 C 0 km/h
2062 23-11-2008 07:12:01 0.6 C 4.39 g/m*3 0.6 C 0 km/h
2063 23-11-2008 07:24:01 0.6 C 4.44 g/m*3 0.6 C 0 km/h
2064 23-11-2008 07:36:01 0.6 C 4.44 g/m*3 0.6 C 0 km/h
2065 23-11-2008 07:48:01 0.6 C 4.44 g/m*3 0.6 C 0 km/h
2066 23-11-2008 08:00:01 0.6 C 4.49 g/m*3 0.6 C 0 km/h
2067 23-11-2008 08:12:02 0.7 C 4.53 g/m*3 0.7 C 0 km/h
2068 23-11-2008 08:24:02 0.7 C 4.53 g/m*3 0.7 C 0 km/h
2069 23-11-2008 08:36:01 0.8 C 4.56 g/m*3 0.8 C 0 km/h
2070 23-11-2008 08:48:01 0.7 C 4.53 g/m*3 0.7 C 0 km/h
2071 23-11-2008 09:00:01 0.8 C 4.56 g/m*3 0.8 C 0 km/h
2072 23-11-2008 09:12:02 1.1 C 4.55 g/m*3 1.1 C 0 km/h
2073 23-11-2008 09:24:01 1.2 C 4.42 g/m*3 1.2 C 0 km/h
2074 23-11-2008 09:36:01 1.5 C 4.4 g/m*3 1.5 C 0 km/h
2075 23-11-2008 09:48:01 1.6 C 4.33 g/m*3 1.6 C 0 km/h
Sensor: Nr:Datum:Temp:Abs-Feuchte:Windchill:Wind:
Aussen-T/F 2076 23-11-2008 10:00:01 1.7 C 4.3 g/m*3 1.7 C 0 km/h
2077 23-11-2008 10:12:02 1.9 C 4.25 g/m*3 1.9 C 0 km/h
2078 23-11-2008 10:24:01 2.1 C 4.2 g/m*3 2.1 C 0 km/h
2079 23-11-2008 10:36:02 2 C 4.11 g/m*3 2 C 0 km/h
2080 23-11-2008 10:48:02 2.1 C 4.03 g/m*3 2.1 C 0 km/h
2081 23-11-2008 11:00:02 2.2 C 4 g/m*3 2.2 C 0 km/h
2082 23-11-2008 11:12:01 2.4 C 4 g/m*3 2.4 C 0 km/h
2083 23-11-2008 11:24:02 2.5 C 3.97 g/m*3 2.5 C 0 km/h
2084 23-11-2008 11:36:02 2.6 C 3.99 g/m*3 2.6 C 0 km/h
2085 23-11-2008 11:48:02 2.6 C 3.94 g/m*3 2.6 C 0 km/h
2086 23-11-2008 12:00:02 2.5 C 3.85 g/m*3 2.5 C 0 km/h
2087 23-11-2008 12:12:01 2.4 C 3.83 g/m*3 2.4 C 0 km/h
2088 23-11-2008 12:24:02 2.4 C 3.83 g/m*3 2.4 C 0 km/h
2089 23-11-2008 12:36:02 2.2 C 3.83 g/m*3 2.2 C 0 km/h
2090 23-11-2008 12:48:02 2.3 C 3.91 g/m*3 2.3 C 0 km/h
2091 23-11-2008 13:00:02 2.3 C 3.86 g/m*3 2.3 C 0 km/h
2092 23-11-2008 13:12:01 2.1 C 3.69 g/m*3 2.1 C 0 km/h
2093 23-11-2008 13:24:02 1.8 C 3.67 g/m*3 1.8 C 0 km/h
2094 23-11-2008 13:36:01 2 C 3.72 g/m*3 2 C 0 km/h
2095 23-11-2008 13:48:02 2 C 3.72 g/m*3 2 C 0 km/h
2096 23-11-2008 14:00:02 2 C 3.61 g/m*3 2 C 0 km/h
2097 23-11-2008 14:12:02 1.8 C 3.56 g/m*3 1.8 C 0 km/h
2098 23-11-2008 14:24:02 1.7 C 3.48 g/m*3 1.7 C 0 km/h
2099 23-11-2008 14:36:01 1.6 C 3.46 g/m*3 1.6 C 0 km/h
2100 23-11-2008 14:48:01 1.6 C 3.46 g/m*3 1.6 C 0 km/h
Sensor: Nr:Datum:Temp:Abs-Feuchte:Windchill:Wind:
Aussen-T/F 2101 23-11-2008 15:00:01 1.6 C 3.41 g/m*3 1.6 C 0 km/h
2102 23-11-2008 15:12:02 1.6 C 3.41 g/m*3 1.6 C 0 km/h
2103 23-11-2008 15:24:02 1.6 C 3.46 g/m*3 1.6 C 0 km/h
2104 23-11-2008 15:36:01 1.5 C 3.44 g/m*3 1.5 C 0 km/h
2105 23-11-2008 15:48:01 1.5 C 3.44 g/m*3 1.5 C 0 km/h
2106 23-11-2008 16:00:01 1.5 C 3.44 g/m*3 1.5 C 0 km/h
2107 23-11-2008 16:12:02 1.4 C 3.52 g/m*3 1.4 C 0 km/h
2108 23-11-2008 16:24:02 1.2 C 3.47 g/m*3 1.2 C 0 km/h
2109 23-11-2008 16:36:02 1.2 C 3.53 g/m*3 1.2 C 0 km/h
2110 23-11-2008 16:48:02 1.1 C 3.55 g/m*3 1.1 C 0 km/h
2111 23-11-2008 17:00:02 1 C 3.58 g/m*3 1 C 0 km/h
2112 23-11-2008 17:12:01 0.8 C 3.74 g/m*3 0.8 C 0 km/h
2113 23-11-2008 17:24:02 0.5 C 3.86 g/m*3 0.5 C 0 km/h
2114 23-11-2008 17:36:01 0.3 C 4.01 g/m*3 0.3 C 0 km/h
2115 23-11-2008 17:48:02 0.1 C 4.15 g/m*3 0.1 C 0 km/h
2116 23-11-2008 18:00:02 0.1 C 4.2 g/m*3 0.1 C 0 km/h
2117 23-11-2008 18:12:01 0 C 4.22 g/m*3 0 C 0 km/h
2118 23-11-2008 18:24:02 0 C 4.26 g/m*3 0 C 0 km/h
2119 23-11-2008 18:36:01 0 C 4.26 g/m*3 0 C 0 km/h
2120 23-11-2008 18:48:01 0 C 4.26 g/m*3 0 C 0 km/h
2121 23-11-2008 19:00:01 -0.1 C 4.23 g/m*3 -0.1 C 0 km/h
2122 23-11-2008 19:12:02 -0.2 C 4.21 g/m*3 -0.2 C 0 km/h
2123 23-11-2008 19:24:01 -0.2 C 4.16 g/m*3 -0.2 C 0 km/h
2124 23-11-2008 19:36:02 -0.2 C 4.16 g/m*3 -0.2 C 0 km/h
2125 23-11-2008 19:48:01 -0.2 C 4.16 g/m*3 -0.2 C 0 km/h
Sensor: Nr:Datum:Temp:Abs-Feuchte:Windchill:Wind:
Aussen-T/F 2126 23-11-2008 20:00:01 -0.2 C 4.16 g/m*3 -0.2 C 0 km/h
2127 23-11-2008 20:12:02 -0.2 C 4.21 g/m*3 -0.2 C 0 km/h
2128 23-11-2008 20:24:01 -0.2 C 4.21 g/m*3 -0.2 C 0 km/h
2129 23-11-2008 20:36:02 -0.2 C 4.16 g/m*3 -0.2 C 0 km/h
2130 23-11-2008 20:48:01 -0.1 C 4.19 g/m*3 -0.1 C 0 km/h
2131 23-11-2008 21:00:01 -0.1 C 4.19 g/m*3 -0.1 C 0 km/h
2132 23-11-2008 21:12:01 -0.1 C 4.19 g/m*3 -0.1 C 0 km/h
2133 23-11-2008 21:24:01 -0.1 C 4.14 g/m*3 -0.1 C 0 km/h
2134 23-11-2008 21:36:01 -0.1 C 4.14 g/m*3 -0.1 C 0 km/h
2135 23-11-2008 21:49:02 0 C 4.17 g/m*3 0 C 0 km/h
2136 23-11-2008 22:01:02 0 C 4.17 g/m*3 0 C 0 km/h
2137 23-11-2008 22:13:02 0.1 C 4.2 g/m*3 0.1 C 0 km/h
2138 23-11-2008 22:25:02 0.1 C 4.15 g/m*3 0.1 C 0 km/h
2139 23-11-2008 22:37:02 0.1 C 4.15 g/m*3 0.1 C 0 km/h
2140 23-11-2008 22:49:02 0.1 C 4.15 g/m*3 0.1 C 0 km/h
2141 23-11-2008 23:01:02 0.2 C 4.18 g/m*3 0.2 C 0 km/h
2142 23-11-2008 23:13:02 0.2 C 4.18 g/m*3 0.2 C 0 km/h
2143 23-11-2008 23:25:02 0.2 C 4.22 g/m*3 0.2 C 0 km/h
2144 23-11-2008 23:37:02 0.1 C 4.2 g/m*3 0.1 C 0 km/h
2145 23-11-2008 23:49:02 0.2 C 4.27 g/m*3 0.2 C 0 km/h

Legende:
   Min
   Max


Maximal/Minimal-Werte vom 17.04.2019 - 19.05.2019

Sensor Min Max Avg
Temp
(Aussen-T/F)
2.2 °C
13-05-2019  06:50:00
26.6 °C
24-04-2019  17:05:00
11.51 °C

Die Daten stammen von einer Davis Vantage Pro 2 Wetter-Station und werden unter Linux mit der Software wview2wettercgi und aufbereitet. Alle Angaben erfolgen ohne Gewähr für ihre Vollständigkeit oder Richtigkeit.
Kontakt: Rainer Krienke krienke@uni-koblenz.de . Meine Webseiten an der Uni Koblenz oder privat.
Version: $Revision: 0.78 $